     2              OBSERVATION DATA    GPS                 RINEX VERSION / TYPE
teqc 1997Jul24 19970814                                     PGM / RUN BY / DATE
                                                            COMMENT
Original Marker Name: GREE                                  COMMENT
Campaign Name: HPGN 1991                                    COMMENT
4-Character Station Name: GREE                              COMMENT
6-Character Antenna Code: TRMSST                            COMMENT
Vertical Measurement Point: BPA                             COMMENT
Vertical Offset to Rinex Ref. Point: 0.0000                 COMMENT
Radial Measurement Point: RRP                               COMMENT
Radial Offset to Rinex Ref. Point: 0.0000                   COMMENT
Antenna Height from Field Measurement: 2.2200 m             COMMENT
Original XYZ: -2641172.6894 -4485416.3792 3674534.0841      COMMENT
New XYZ position is based on association with SCEC monument COMMENT
E1F1A6H4+0011. Position of that monument is believed to be  COMMENT
valid to within 1 m horizontally; vertical accuracy         COMMENT
should be no worse than 3-times this value.                 COMMENT
                                                            COMMENT
Revised Rinex header created by UCSD GPS archive for        COMMENT
GSAC on 16-Apr-1999 (1999:106) 04:17:59 GMT                 COMMENT
For assistance contact dagnew@ucsd.edu or hjohnson@ucsd.edu COMMENT
                                                            COMMENT
GREEN 1932                                                  MARKER NAME
unknown CALIF DEPT TRANSPORTATION                           OBSERVER / AGENCY
621 TRIMBLE 4000 SST NP 4.30 / SP 4.20                      REC # / TYPE / VERS
9 TR 4000SST L1/L2 GEO                                      ANT # / TYPE
 -2641174.0000 -4485414.0000  3674533.0000                  APPROX POSITION XYZ
        2.2200        0.0000        0.0000                  ANTENNA: DELTA H/E/N
     1     1     0                                          WAVELENGTH FACT L1/2
     3    C1    L1    L2                                    # / TYPES OF OBSERV
     0                                                      INTERVAL
  1991     5     1    19    26   15.000000                  TIME OF FIRST OBS
  1991     5     2     1    25   60.000000                  TIME OF LAST OBS
     0                                                      # OF SATELLITES
                                                            END OF HEADER
 91  5  1 19 26 15.0000000  0  4G18G11G19G 2
  20922216.3364      67963.92548        -0.47373
  23986206.4384         -0.48956        -0.02871
  20943666.5314         -0.17657        -0.01472
  23717097.578          -0.10816        -0.14231
 91  5  1 19 26 30.0000000  0  4G18G11G19G 2
  20924644.8134      80733.03148      9949.44963
  23978682.766      -39538.524 6    -30808.77821
  20942045.1174      -8506.13647     -6628.02963
  23706553.8674     -55403.72746    -43171.65161
 91  5  1 19 26 45.0000000  0  5G18G11G16G19G 2
  20927087.1484      93566.17948     19949.27163
  23971168.7194     -79023.97246    -61576.56861
  24430389.656          -0.33315        -0.47031
  20940430.5944     -17009.78947    -13254.25062
  23696010.555     -110802.250 6    -86339.20421
 91  5  1 19 27  0.0000000  0  5G18G11G16G19G 2
  20929543.2894     106474.32148     30007.53563
  23963667.297     -118445.404 6    -92294.48921
  24422706.0554     -40398.21545    -31479.34461
  20938812.3984     -25500.02347    -19870.01262
  23685473.688     -166184.637 6   -129494.17321
 91  5  1 19 27 15.0000000  0  5G18G11G16G19G 2
  20932014.6094     119457.88448     40124.56563
  23956178.4384    -157801.96846   -122961.84261
  24415028.7424     -80718.19645    -62897.46961
  20937202.8754     -33976.26147    -26474.87062
  23674938.672     -221550.037 6   -172635.90821
 91  5  1 19 27 30.0000000  0  5G18G11G16G19G 2
  20934501.3754     132524.46548     50306.28363
  23948701.391     -197085.690 6   -153572.41921
  24407369.9694    -120952.34645    -94248.74161
  20935591.9304     -42431.08847    -33063.04662
  23664405.617     -276890.514 6   -215758.22421
 91  5  1 19 27 45.0000000  0  5G18G11G16G19G 2
  20937003.2664     145670.75248     60550.11763
  23941240.2424    -236299.58846   -184128.60661
  24399725.719     -161103.855 4   -125535.60721
  20933986.6954     -50867.87147    -39637.15763
  23653879.734     -332209.397 6   -258863.70821
 91  5  1 19 28  0.0000000  0  5G18G11G16G19G 2
  20939519.7424     158899.49348     70858.19763
  23933793.0554    -275440.35746   -214627.82261
  24392100.3594    -201169.34145   -156755.47461
  20932383.8204     -59283.68747    -46194.93763
  23643356.195     -387503.612 6   -301949.98621
 91  5  1 19 28 15.0000000  0  5G18G11G16G19G 2
  20942054.2344     172215.76648     81234.48663
  23926356.922     -314502.459 6   -245065.73421
  24384496.086     -241143.247 5   -187903.96621
  20930789.2814     -67673.40447    -52732.37563
  23632841.1024    -442767.73046   -345012.80561
 91  5  1 19 28 30.0000000  0  5G18G11G16G19G 2
  20944608.0394     185626.86148     91684.65563
  23918943.078     -353478.281 6   -275436.42821
  24376909.7274    -281018.46745   -218975.52661
  20929196.7734     -76029.75846    -59243.81863
  23622331.1024    -497994.41746   -388046.45261
 91  5  1 19 28 45.0000000  0  5G18G11G16G19G 2
  20947176.1484     199128.64948    102205.49663
  23911540.5474    -392371.56546   -305742.80761
  24369348.570     -320798.708 5   -249973.15221
  20927613.3984     -84356.95147    -65732.54062
  23611828.047     -553187.603 6   -431054.00421
 91  5  1 19 29  0.0000000  0  5G18G11G16G19G 2
  20949762.1954     212721.23148    112797.09063
  23904154.8594    -431181.84846   -335984.49961
  24361789.219     -360483.742 4   -280896.49121
  20926035.0864     -92654.83747    -72198.42063
  23601330.8754    -608346.91046   -474035.15361
 91  5  1 19 29 15.0000000  0  5G18G11G16G19G 2
  20952365.8914     226405.67348    123460.25763
  23896783.219     -469907.378 6   -366160.15421
  24354259.0864    -400071.62945   -311744.18861
  20924462.7194    -100922.04247    -78640.40063
  23590840.5474    -663470.84546   -516988.73661
 91  5  1 19 29 30.0000000  0  5G18G11G16G19G 2
  20954987.484      240181.768 8    134194.84423
  23889432.227     -508548.113 6   -396269.74721
  24346739.4304    -439563.08445   -342516.76061
  20922891.8914    -109158.87847    -85058.71562
  23580357.2894    -718559.54846   -559914.87661
 91  5  1 19 29 45.0000000  0  5G18G11G16G19G 2
  20957627.7664     254058.39648    145007.77563
  23882097.0944    -547094.65546   -426305.92761
  24339250.4224    -478948.67345   -373206.81061
  20921333.9694    -117356.37346    -91446.36662
  23569880.0784    -773603.77846   -602806.36261
 91  5  1 19 30  0.0000000  0  5G18G11G16G19G 2
  20960286.2114     268025.43448    155891.14863
  23874778.250     -585557.047 6   -456276.54821
  24331772.219     -518238.239 5   -403822.05421
  20919778.7424    -125524.89347    -97811.44563
  23559415.8834    -828613.73546   -645671.13961
 91  5  1 19 30 15.0000000  0  5G18G11G16G19G 2
  20962962.6414     282090.38248    166850.81863
  23867476.602     -623927.129 6   -486175.22621
  24324310.633     -557423.872 5   -434356.29221
  20918232.5314    -133656.76547   -104147.96663
  23548957.5704    -883581.29846   -688502.87461
 91  5  1 19 30 30.0000000  0  5G18G11G16G19G 2
  20965656.5394     296247.82548    177882.56263
  23860191.2504    -662209.84946   -516005.86961
  24316875.7974    -596510.74345   -464813.59661
  20916689.9924    -141757.36347   -110460.11863
  23538503.070     -938511.928 6   -731305.84021
 91  5  1 19 30 45.0000000  0  5G18G11G16G19G 2
  20968368.7664     310496.10248    188985.08663
  23852921.453     -700406.735 6   -545769.61421
  24309451.8134    -635500.54745   -495195.25861
  20915154.9144    -149828.62746   -116749.41463
  23528057.7194    -993407.32046   -774081.35361
 91  5  1 19 31  0.0000000  0  5G18G11G16G19G 2
  20971096.9304     324834.32648    200157.69463
  23845668.7734    -738517.89746   -575466.52961
  24302057.3524    -674393.41545   -525501.35161
  20913623.3204    -157870.92847   -123016.14062
  23517620.6804   -1048267.54946   -816829.46161
 91  5  1 19 31 15.0000000  0  5G18G11G16G19G 2
  20973842.4924     339264.54648    211401.99263
  23838437.2504    -776541.10246   -605094.89861
  24294674.5944    -713187.25245   -555730.30961
  20912101.3914    -165882.50646   -129258.92162
  23507184.4924   -1103090.82546   -859548.76661
 91  5  1 19 31 30.0000000  0  5G18G11G16G19G 2
  20976606.2974     353789.60448    222720.18763
  23831215.5084    -814472.88746   -634652.07061
  24287305.688     -751878.909 4   -585879.65521
  20910580.4384    -173860.22647   -135475.32662
  23496756.4384   -1157873.69746   -902236.59461
 91  5  1 19 31 45.0000000  0  5G18G11G16G19G 2
  20979389.2974     368407.66648    234110.85063
  23824015.5554    -852314.86846   -664139.26561
  24279962.4694    -790469.88545   -615950.49761
  20909069.5864    -181805.93547   -141666.77563
  23486338.734    -1212618.018 6   -944894.39021
 91  5  1 19 32  0.0000000  0  5G18G11G16G19G 2
  20982188.2504     383116.02247    245571.87863
  23816829.430     -890069.339 6   -693558.25421
  24272640.094     -828962.575 5   -645944.80721
  20907561.3364    -189722.31747   -147835.38262
  23475930.4534   -1267326.07946   -987523.92761
 91  5  1 19 32 15.0000000  0  5G18G11G16G19G 2
  20985003.8204     397918.38347    257106.14563
  23809665.8364    -927732.09246   -722905.76361
  24265332.203     -867353.135 5   -675859.50321
  20906063.8054    -197605.64447   -153978.23262
  23465528.6954   -1321994.02246  -1030122.20061
 91  5  1 19 32 30.0000000  0  5G18G11G16G19G 2
  20987837.1644     412803.77247    268705.11563
  23802510.047     -965313.793 6   -752190.12721
  24258051.477     -905652.153 5   -705702.89321
  20904566.1804    -205467.05047   -160104.00263
  23455133.9534   -1376632.85046  -1072697.79161
 91  5  1 19 32 45.0000000  0  5G18G11G16G19G 2
  20990686.8134     427775.61948    280371.45763
  23795375.2974   -1002810.69346   -781408.40261
  24250772.008     -943855.837 5   -735472.00221
  20903077.2034    -213302.99547   -166209.93363
  23444737.266    -1431238.701 6  -1115247.69321
 91  5  1 19 33  0.0000000  0  5G18G11G16G19G 2
  20993550.1954     442831.26847    292103.09363
  23788255.3444   -1040225.02946   -810562.36361
  24243525.875     -981966.890 5   -765168.86821
  20901588.8674    -221116.07447   -172298.04863
  23434352.508    -1485814.011 6  -1157773.80621
 91  5  1 19 33 15.0000000  0  5G18G11G16G19G 2
  20996433.7584     457977.39448    303905.23263
  23781153.5394   -1077549.47146   -839646.28361
  24236294.3204   -1019977.92545   -794787.89461
  20900107.8524    -228899.32646   -178362.92063
  23423974.992    -1540351.762 6  -1200270.64521
 91  5  1 19 33 30.0000000  0  5G18G11G16G19G 2
  20999331.8364     473209.53248    315774.39163
  23774068.2194   -1114788.38446   -868663.53961
  24229075.477    -1057893.726 5   -824332.62621
  20898630.5084    -236657.44247   -184408.20663
  23413604.3054   -1594856.44346  -1242741.70361
 91  5  1 19 33 45.0000000  0  5G18G11G16G19G 2
  21002248.0314     488533.70248    327715.26563
  23766998.625    -1151934.839 6   -897608.71621
  24221883.914    -1095707.726 5   -853798.06221
  20897161.1724    -244383.82746   -190428.75962
  23403241.102    -1649321.345 6  -1285181.78121
 91  5  1 19 34  0.0000000  0  5G18G11G16G19G 2
  21005181.0704     503950.12348    339728.02063
  23759948.5634   -1188988.54146   -926481.64161
  24214704.641    -1133419.713 5   -883184.05121
  20895695.0864    -252078.67747   -196424.74163
  23392881.625    -1703746.428 6  -1327590.82621
 91  5  1 19 34 15.0000000  0  5G18G11G16G19G 2
  21008131.5084     519458.28148    351812.25763
  23752914.563    -1225949.447 6   -955282.28821
  24207546.7584   -1171029.32745   -912490.19161
  20894239.7664    -259742.25347   -202396.34562
  23382532.3134   -1758131.79246  -1369968.90961
 91  5  1 19 34 30.0000000  0  5G18G11G16G19G 2
  21011101.1024     535062.41647    363971.28563
  23745898.0864   -1262813.09746   -984007.12861
  24200408.7584   -1208532.27645   -941713.28061
  20892786.9304    -267370.54047   -208340.46562
  23372191.781    -1812472.998 6  -1412312.59421
 91  5  1 19 34 45.0000000  0  5G18G11G16G19G 2
  21014089.1094     550765.56947    376207.46963
  23738902.805    -1299576.133 6  -1012653.54421
  24193293.789    -1245925.341 5   -970850.74821
  20891343.8914    -274960.26647   -214254.52862
  23361858.7114   -1866766.74846  -1454619.30161
 91  5  1 19 35  0.0000000  0  5G18G11G16G19G 2
  21017094.8054     566557.15147    388512.56263
  23731924.039    -1336248.271 6  -1041229.14421
  24186198.398    -1283218.160 5   -999910.03621
  20889904.3674    -282521.57547   -220146.45562
  23351535.109    -1921023.133 6  -1496896.88921
 91  5  1 19 35 15.0000000  0  5G18G11G16G19G 2
  21020118.977      582444.779 8    400892.48523
  23724965.531    -1372821.711 6  -1069727.85221
  24179124.000    -1320403.538 5  -1028885.67021
  20888472.3054    -290047.23447   -226010.59762
  23341220.156    -1975234.539 6  -1539139.43521
 91  5  1 19 35 30.0000000  0  5G18G11G16G19G 2
  21023160.4224     598429.01448    413347.69663
  23718025.188    -1409295.614 6  -1098149.00421
  24172068.523    -1357480.599 5  -1057776.89021
  20887047.5944    -297536.64046   -231846.49662
  23330909.7814   -2029400.16546  -1581346.30861
 91  5  1 19 35 45.0000000  0  5G18G11G16G19G 2
  21026219.4224     614501.24347    425871.47263
  23711103.305    -1445678.056 6  -1126498.85821
  24165033.9304   -1394457.26945  -1086589.86461
  20885626.7974    -304998.20947   -237660.70162
  23320610.438    -2083528.408 6  -1623524.04421
 91  5  1 19 36  0.0000000  0  5G18G11G16G19G 2
  21029296.9614     630670.03848    438470.49563
  23704196.3984   -1481960.09946  -1154770.47461
  24158014.9304   -1431324.87645  -1115317.87861
  20884213.7974    -312423.42546   -243446.57962
  23310323.3984   -2137610.38946  -1665665.73061
 91  5  1 19 36 15.0000000  0  5G18G11G16G19G 2
  21032390.0164     646925.74148    451137.23363
  23697309.4454   -1518150.88446  -1182971.00161
  24151018.367    -1468093.200 5  -1143968.47021
  20882807.1334    -319821.87446   -249211.60062
  23300035.055    -2191655.509 6  -1707778.70221
 91  5  1 19 36 30.0000000  0  5G18G11G16G19G 2
  21035502.4694     663278.91848    463879.93063
  23690442.5084   -1554239.75246  -1211092.10261
  24144042.7034   -1504751.31145  -1172533.24561
  20881403.3674    -327183.06447   -254947.59162
  23289758.5634   -2245653.27346  -1749854.78661
 91  5  1 19 36 45.0000000  0  5G18G11G16G19G 2
  21038631.7274     679725.71548    476695.57663
  23683591.508    -1590229.989 6  -1239136.36221
  24137087.289    -1541302.410 5  -1201014.62321
  20880010.4454    -334510.57146   -260657.33762
  23279496.227    -2299606.949 6  -1791896.49821
 91  5  1 19 37  0.0000000  0  5G18G11G16G19G 2
  21041779.1724     696265.66948    489583.81463
  23676764.063    -1626121.544 6  -1267103.69821
  24130150.9924   -1577746.70045  -1229412.73661
  20878623.6954    -341804.73446   -266341.09462
  23269235.828    -2353516.728 6  -1833904.00821
 91  5  1 19 37 15.0000000  0  5G18G11G16G19G 2
  21044944.7274     712905.52948    502549.89663
  23669954.5944   -1661907.29146  -1294988.60361
  24123230.688    -1614077.415 5  -1257722.40721
  20877241.9224    -349058.97046   -271993.74462
  23258985.023    -2407375.898 6  -1875872.09521
 91  5  1 19 37 30.0000000  0  5G18G11G16G19G 2
  21048129.141      729640.452 8    515590.05723
  23663163.938    -1697591.655 6  -1322794.52121
  24116346.055    -1650298.957 5  -1285946.95121
  20875867.6804    -356277.92747   -277618.90362
  23248748.0944   -2461188.98846  -1917804.24461
 91  5  1 19 37 45.0000000  0  5G18G11G16G19G 2
  21051332.5474     746471.84648    528705.38763
  23656392.992    -1733172.687 6  -1350519.92421
  24109475.3054   -1686409.96245  -1314085.40361
  20874501.8594    -363460.13246   -283215.42062
  23238513.5634   -2514954.27746  -1959699.15661
 91  5  1 19 38  0.0000000  0  5G18G11G16G19G 2
  21054553.906      763400.567 8    541896.55423
  23649640.492    -1768649.455 6  -1378164.07921
  24102624.2424   -1722409.22045  -1342136.77661
  20873140.1644    -370604.86547   -288782.74362
  23228290.289    -2568670.927 6  -2001556.18321
 91  5  1 19 38 15.0000000  0  5G18G11G16G19G 2
  21057795.7274     780425.22448    555162.47963
  23642909.8524   -1804022.86146  -1405727.66561
  24095796.6094   -1758297.61245  -1370101.72661
  20871790.4924    -377713.25146   -294321.74562
  23218076.164    -2622339.798 6  -2043375.96421
 91  5  1 19 38 30.0000000  0  5G18G11G16G19G 2
  21061052.789      797548.466 8    568505.22323
  23636199.500    -1839289.795 6  -1433208.31121
  24088985.4694   -1794072.36545  -1397978.16461
  20870442.3594    -384782.51646   -299830.26362
  23207874.3674   -2675958.04546  -2085156.29661
 91  5  1 19 38 45.0000000  0  5G18G11G16G19G 2
  21064327.6804     814766.40548    581921.75963
  23629506.7584   -1874453.57046  -1460608.60261
  24082199.2194   -1829736.94645  -1425768.74161
  20869106.5234    -391816.46446   -305311.26062
  23197678.047    -2729529.238 6  -2126899.97421
 91  5  1 19 39  0.0000000  0  5G18G11G16G19G 2
  21067623.4064     832076.55848    595410.14963
  23622835.9924   -1909516.50146  -1487930.28561
  24075435.992    -1865293.648 5  -1453475.23921
  20867771.3444    -398817.38447   -310766.52262
  23187496.4774   -2783055.79146  -2168608.85261
 91  5  1 19 39 15.0000000  0  5G18G11G16G19G 2
  21070936.4454     849489.75848    608978.83063
  23616184.539    -1944467.022 6  -1515164.34821
  24068688.3444   -1900731.02045  -1481088.77361
  20866450.2814    -405774.31746   -316187.50962
  23177314.6884   -2836526.27646  -2210274.05061
 91  5  1 19 39 30.0000000  0  5G18G11G16G19G 2
  21074271.680      867002.588 8    622625.15023
  23609554.4384   -1979308.49846  -1542313.45561
  24061969.5314   -1936052.65545  -1508612.12461
  20865133.0704    -412690.97646   -321577.11662
  23167155.8984   -2889944.09146  -2251898.20361
 91  5  1 19 39 45.0000000  0  5G18G11G16G19G 2
  21077618.8364     884606.95748    636342.79863
  23602945.2034   -2014048.45646  -1569383.48861
  24055266.0314   -1971265.92545  -1536051.05361
  20863824.2274    -419575.14746   -326941.40262
  23156998.6024   -2943316.94646  -2293487.31961
 91  5  1 19 40  0.0000000  0  5G18G11G16G19G 2
  21080988.711      902311.106 8    650138.19723
  23596351.8594   -2048678.29446  -1596367.70461
  24048584.8444   -2006362.79745  -1563399.25461
  20862520.7424    -426418.46946   -332273.86062
  23146853.7664   -2996636.57946  -2335034.95761
 91  5  1 19 40 15.0000000  0  5G18G11G16G19G 2
  21084377.8834     920116.57948    664012.55363
  23589787.492    -2083195.775 6  -1623264.36021
  24041936.141    -2041341.210 5  -1590655.14921
  20861228.4064    -433219.14046   -337573.07562
  23136715.0784   -3049900.90446  -2376539.49961
 91  5  1 19 40 30.0000000  0  5G18G11G16G19G 2
  21087783.3754     938017.73048    677961.46163
  23583236.6094   -2117606.37846  -1650077.74861
  24035296.641    -2076206.614 5  -1617823.01621
  20859937.1334    -439983.05446   -342843.65362
  23126592.5314   -3103115.69146  -2418005.44361
 91  5  1 19 40 45.0000000  0  5G18G11G16G19G 2
  21091209.164      956021.972 8    691990.69723
  23576707.219    -2151902.180 6  -1676801.68621
  24028684.4694   -2110951.15145  -1644896.64561
  20858661.4384    -446702.61846   -348079.67162
  23116470.4144   -3156272.94246  -2459426.55261
 91  5  1 19 41  0.0000000  0  5G18G11G16G19G 2
  21094652.9924     974116.21348    706090.06763
  23570201.5944   -2186095.92046  -1703446.06561
  24022096.1174   -2145587.55645  -1671886.05161
  20857389.9614    -453390.83346   -353291.26162
  23106366.375    -3209385.475 6  -2500812.81221
 91  5  1 19 41 15.0000000  0  5G18G11G16G19G 2
  21098114.0784     992307.12648    720264.76563
  23563718.680    -2220180.674 6  -1730005.56021
  24015524.2114   -2180109.21545  -1698786.04961
  20856123.4454    -460041.20346   -358473.36663
  23096268.3984   -3262446.69246  -2542159.09861
 91  5  1 19 41 30.0000000  0  6G18G 6G11G16G19G 2
  21101593.898     1010593.538 8    734513.87223
  24504456.0784         -0.93353
  23557251.930    -2254157.033 6  -1756480.60221
  24008980.1414   -2214517.05545  -1725597.31261
  20854863.6804    -466654.59146   -363626.64863
  23086182.906    -3315457.472 6  -2583466.07821
 91  5  1 19 41 45.0000000  0  6G18G 6G11G16G19G 2
  21105092.617     1028981.104 8    748841.80523
  24496105.8834     -43854.82743
  23550806.773    -2288018.953 6  -1782866.44321
  24002452.953    -2248805.130 5  -1752315.30421
  20853614.8284    -473225.15346   -368746.56562
  23076105.7344   -3368412.06446  -2624729.27861
 91  5  1 19 42  0.0000000  0  6G18G 6G11G16G19G 2
  21108610.438     1047463.410 7    763243.55923
  24487761.3134     -87698.34143
  23544386.1804   -2321772.40746  -1809167.76161
  23995948.1954   -2282979.50545  -1778944.66561
  20852368.4774    -479759.29046   -373838.09562
  23066039.047    -3421316.329 6  -2665953.27221
 91  5  1 19 42 15.0000000  0  6G18G 6G11G16G19G 2
  21112146.648     1066042.664 8    777720.85623
  24479421.6804    -131529.21443
  23537982.930    -2355414.762 6  -1835382.53321
  23989472.0394   -2317037.54045  -1805483.39861
  20851136.2424    -486254.58746   -378899.36462
  23055979.6414   -3474167.61646  -2707135.97561
 91  5  1 19 42 30.0000000  0  6G18G 6G11G16G19G 2
  21115700.805     1084721.894 8    792276.05923
  24471088.1094    -175344.13544
  23531601.461    -2388942.505 6  -1861508.00021
  23983014.5554   -2350975.71845  -1831928.73161
  20849907.2734    -492707.79647   -383927.83662
  23045932.8134   -3526962.65346  -2748274.85661
 91  5  1 19 42 45.0000000  0  6G18G 6G11G16G19G 2
  21119274.086     1103494.569 8    806904.07423
  24462752.539     -219149.886 3        -0.08131
  23525244.125    -2422361.927 6  -1887549.04021
  23976573.4534   -2384800.68845  -1858285.83361
  20848687.0234    -499125.53146   -388928.66363
  23035897.297    -3579707.989 6  -2789375.00321
 91  5  1 19 43  0.0000000  0  6G18G 6G11G16G19G 2
  21122863.023     1122365.679 7    821608.79323
  24454417.7814    -262941.68843    -34123.51061
  23518906.0084   -2455667.83146  -1913501.61461
  23970158.6954   -2418507.45245  -1884550.82361
  20847470.2894    -505503.03946   -393898.15663
  23025872.766    -3632398.665 6  -2830432.56421
 91  5  1 19 43 15.0000000  0  6G18G 6G11G16G19G 2
  21126472.5634    1141332.36247    836387.98463
  24446083.727     -306721.988 3    -68237.84621
  23512590.0314   -2488862.31146  -1939367.40661
  23963771.492    -2452098.152 5  -1910725.39121
  20846266.1564    -511842.81746   -398838.23663
  23015850.094    -3685037.031 6  -2871449.35721
 91  5  1 19 43 30.0000000  0  6G18G 6G11G16G19G 2
  21130101.609     1160397.133 8    851243.60723
  24437765.617     -350488.188 4   -102341.28821
  23506292.234    -2521942.380 6  -1965144.03621
  23957402.2034   -2485569.73845  -1936807.14961
  20845065.8834    -518142.09446   -403746.76662
  23005845.3364   -3737620.18446  -2912423.13061
 91  5  1 19 43 45.0000000  0  6G18G 6G11G16G19G 2
  21133748.5084    1179563.91947    866178.72563
  24429434.1954    -394236.55843   -136430.80361
  23500021.328    -2554904.203 6  -1990828.50921
  23951052.5234   -2518918.61945  -1962793.26661
  20843877.9384    -524397.03546   -408620.74062
  22995849.602    -3790144.171 6  -2953350.79621
 91  5  1 19 44  0.0000000  0  6G18G 6G11G16G19G 2
  21137414.984     1198827.964 7    881189.62523
  24421113.508     -437971.652 4   -170510.01121
  23493771.117    -2587751.739 6  -2016423.93921
  23944730.4534   -2552149.04145  -1988687.09261
  20842692.7894    -530612.30146   -413463.80562
  22985867.375    -3842613.545 6  -2994235.92121
 91  5  1 19 44 15.0000000  0  6G18G 6G11G16G19G 2
  21141097.234     1218188.973 7    896276.08023
  24412792.2974    -481693.73344   -204579.07261
  23487542.242    -2620484.844 6  -2041930.20321
  23938429.867    -2585261.156 5  -2014488.73321
  20841520.9144    -536788.03146   -418276.05862
  22975893.258    -3895028.111 6  -3035078.33721
 91  5  1 19 44 30.0000000  0  6G18G 6G11G16G19G 2
  21144800.250     1237638.964 7    911431.87023
  24404467.1174    -525410.49643   -238643.96461
  23481333.1804   -2653111.10346  -2067353.22361
  23932151.0004   -2618262.55945  -2040204.08161
  20840348.0944    -542931.99646   -423063.56762
  22965931.0944   -3947395.40246  -3075883.91661
 91  5  1 19 44 45.0000000  0  6G18G 6G11G16G19G 2
  21148519.258     1257182.715 7    926660.72423
  24396149.867     -569117.406 4   -272701.19921
  23475144.859    -2685625.545 6  -2092689.11321
  23925891.1254   -2651148.15945  -2065829.23361
  20839188.0084    -549039.41546   -427822.59663
  22955969.5234   -3999710.74046  -3116649.01561
 91  5  1 19 45  0.0000000  0  6G18G 6G11G16G19G 2
  21152256.500     1276823.256 7    941964.99723
  24387836.984     -612811.230 4   -306748.25121
  23468978.9844   -2718024.55346  -2117935.03561
  23919654.3754   -2683914.84945  -2091361.73261
  20838030.3444    -555107.08346   -432550.64763
  22946026.3754   -4051970.81646  -3157371.05361
 91  5  1 19 45 15.0000000  0  6G18G 6G11G16G19G 2
  21156011.188     1296559.154 7    957343.57023
  24379532.063     -656493.395 5   -340786.16721
  23462838.625    -2750309.244 6  -2143091.89321
  23913443.648    -2716563.730 5  -2116802.38821
  20836885.9144    -561136.38446   -437248.80862
  22936093.008    -4104176.591 6  -3198050.76821
 91  5  1 19 45 30.0000000  0  6G18G 6G11G16G19G 2
  21159786.336     1316385.334 7    972792.49523
  24371218.8444    -700168.94044   -374818.99561
  23456713.5084   -2782484.15546  -2168163.21061
  23907254.6884   -2749099.45245  -2142154.90061
  20835744.4774    -567132.34346   -441920.98062
  22926168.141    -4156332.967 6  -3238691.99521
 91  5  1 19 45 45.0000000  0  6G18G 6G11G16G19G 2
  21163577.898     1336314.473 7    988321.64123
  24362909.641     -743824.978 4   -408836.58021
  23450613.422    -2814536.289 6  -2193138.87421
  23901086.3364   -2781509.33145  -2167409.34361
  20834612.9924    -573082.18746   -446557.22263
  22916255.320    -4208426.953 6  -3279284.60621
 91  5  1 19 46  0.0000000  0  6G18G 6G11G16G19G 2
  21167389.492     1356341.238 7   1003926.86823
  24354605.1024    -787466.82844   -442843.09061
  23444535.922    -2846470.656 6  -2218022.73721
  23894941.5004   -2813798.37645  -2192569.61461
  20833487.0314    -578991.07146   -451161.54762
  22906351.383    -4260463.837 6  -3319832.72721
 91  5  1 19 46 15.0000000  0  6G18G 6G11G16G19G 2
  21171218.383     1376463.169 7   1019606.24623
  24346304.430     -831096.911 4   -476840.45921
  23438483.797    -2878289.190 6  -2242816.36221
  23888814.914    -2845968.407 5  -2217637.18121
  20832371.1954    -584861.30846   -455735.75462
  22896460.6644   -4312445.68146  -3360337.95661
 91  5  1 19 46 30.0000000  0  6G18G 6G11G16G19G 2
  21175068.023     1396686.521 7   1035364.65623
  24338000.0704    -874709.13444   -510823.88461
  23432451.2194   -2909985.43146  -2267514.70161
  23882716.984    -2878013.246 5  -2242607.15221
  20831259.6954    -590686.72346   -460275.03963
  22886582.570    -4364366.190 6  -3400795.38821
 91  5  1 19 46 45.0000000  0  6G18G 6G11G16G19G 2
  21178932.805     1417007.771 7   1051199.34823
  24329709.852     -918306.719 4   -544795.93821
  23426443.6094   -2941562.35046  -2292120.04761
  23876644.7664   -2909935.79745  -2267481.87861
  20830162.1414    -596470.47746   -464781.86462
  22876709.8134   -4416228.25846  -3441207.28661
 91  5  1 19 47  0.0000000  0  6G18G 6G11G16G19G 2
  21182819.180     1437428.864 7   1067111.84123
  24321413.352     -961887.673 3   -578755.01421
  23420456.242    -2973017.771 6  -2316630.72321
  23870591.398    -2941734.234 5  -2292259.87421
  20829069.6954    -602210.62746   -469254.70463
  22866853.2584   -4468029.91646  -3481572.11861
 91  5  1 19 47 15.0000000  0  6G18G 6G11G16G19G 2
  21186722.820     1457942.067 7   1083096.10723
  24313120.6174   -1005459.76344   -612707.16161
  23414493.492    -3004359.006 6  -2341052.41821
  23864563.7974   -2973416.08245  -2316947.01261
  20827983.8674    -607914.91646   -473699.60262
  22857004.9774   -4519778.69046  -3521895.73461
 91  5  1 19 47 30.0000000  0  6G18G 6G11G16G19G 2
  21190646.188     1478559.087 7   1099161.26823
  24304833.9454   -1049010.93844   -646642.98061
  23408552.2664   -3035573.64846  -2365375.47761
  23858554.5234   -3004969.19445  -2341533.85861
  20826908.3754    -613571.11646   -478107.03063
  22847169.7114   -4571462.32746  -3562168.59961
 91  5  1 19 47 45.0000000  0  6G18G 6G11G16G19G 2
  21194587.055     1499273.926 7   1115302.65223
  24296547.3594   -1092547.47143   -680567.42761
  23402635.1024   -3066667.58946  -2389604.48861
  23852579.5784   -3036399.37245  -2366024.91661
  20825840.1804    -619185.49446   -482481.87463
  22837347.5784   -4623086.94846  -3602395.48261
 91  5  1 19 48  0.0000000  0  6G18G 6G11G16G19G 2
  21198548.211     1520084.098 7   1131518.32823
  24288268.0314   -1136071.52144   -714482.11261
  23396738.406    -3097642.652 6  -2413740.84621
  23846620.1804   -3067708.32645  -2390421.49761
  20824781.7734    -624760.20846   -486825.81263
  22827534.4144   -4674654.49046  -3642577.88761
 91  5  1 19 48 15.0000000  0  6G18G 6G11G16G19G 2
  21202526.570     1540989.939 7   1147808.54023
  24279987.0084   -1179582.93144   -748386.98861
  23390871.5474   -3128498.32046  -2437784.19261
  23840682.6334   -3098895.94145  -2414723.53561
  20823724.1334    -630294.93246   -491138.58163
  22817732.5944   -4726164.40746  -3682715.38861
 91  5  1 19 48 30.0000000  0  6G18G 6G11G16G19G 2
  21206523.539     1561992.629 7   1164174.22923
  24271707.7114   -1223080.17744   -782280.84661
  23385021.3444   -3159232.79046  -2461733.09461
  23834775.8524   -3129960.68545  -2438929.82861
  20822681.3054    -635788.18346   -495419.03963
  22807941.0084   -4777615.09646  -3722806.74461
 91  5  1 19 48 45.0000000  0  6G18G 6G11G16G19G 2
  21210538.492     1583095.269 7   1180617.79423
  24263436.9454   -1266560.31944   -816161.36261
  23379196.148    -3189842.940 6  -2485585.11221
  23828889.9614   -3160899.46845  -2463037.97161
  20821642.6564    -641236.91446   -499664.80363
  22798159.8284   -4829003.63946  -3762849.66661
 91  5  1 19 49  0.0000000  0  6G18G 6G11G16G19G 2
  21214574.945     1604297.571 7   1197139.02523
  24255161.461    -1310023.515 4   -850028.65821
  23373395.641    -3220328.435 6  -2509339.99421
  23823024.734    -3191711.975 5  -2487047.70221
  20820611.2274    -646641.15146   -503875.90063
  22788393.7974   -4880329.90946  -3802844.07161
 91  5  1 19 49 15.0000000  0  6G18G 6G11G16G19G 2
  21218626.445     1625596.723 7   1213735.71623
  24246896.781    -1353472.515 4   -883884.91721
  23367617.1254   -3250691.70246  -2532999.64661
  23817185.6174   -3222400.91245  -2510961.16361
  20819594.9454    -652003.75146   -508054.55063
  22778639.9694   -4931596.51046  -3842791.96961
 91  5  1 19 49 30.0000000  0  6G18G 6G11G16G19G 2
  21222699.617     1646994.595 7   1230409.33523
  24238633.4844   -1396905.13544   -917728.40061
  23361863.523    -3280930.433 6  -2556562.24521
  23811373.258    -3252964.143 5  -2534776.66521
  20818583.8984    -657322.59546   -512199.10763
  22768893.8134   -4982801.10146  -3882691.55061
 91  5  1 19 49 45.0000000  0  6G18G 6G11G16G19G 2
  21226788.430     1668490.685 7   1247159.48223
  24230364.281    -1440321.974 4   -951559.59921
  23356132.156    -3311044.695 6  -2580027.85621
  23805579.1094   -3283401.89045  -2558494.39161
  20817579.9924    -662598.02546   -516309.83563
  22759161.9454   -5033943.73746  -3922542.86161
 91  5  1 19 50  0.0000000  0  6G18G 6G11G16G19G 2
  21230896.266     1690080.795 7   1263982.89923
  24222110.0704   -1483727.10345   -985381.68261
  23350423.578    -3341038.274 6  -2603399.44221
  23799803.6254   -3313717.98845  -2582117.33461
  20816580.8834    -667833.99846   -520389.81763
  22749441.4454   -5085028.59146  -3962349.14961
 91  5  1 19 50 15.0000000  0  6G18G 6G11G16G19G 2
  21235024.125     1711760.947 7   1280876.47823
  24213847.375    -1527124.512 5  -1019197.73021
  23344739.336    -3370914.821 6  -2626679.81721
  23794063.516    -3343916.150 5  -2605648.35121
  20815591.8984    -673034.62646   -524442.25763
  22739728.1564   -5136059.51846  -4002113.40761
 91  5  1 19 50 30.0000000  0  6G18G 6G11G16G19G 2
  21239166.805     1733540.376 7   1297847.41623
  24205600.4534   -1570504.76845  -1053000.41661
  23339077.289    -3400664.702 6  -2649861.49621
  23788338.1174   -3373986.97745  -2629080.16161
  20814609.1094    -678190.53646   -528459.85263
  22730033.9614   -5187026.92246  -4041828.18161
 91  5  1 19 50 45.0000000  0  6G18G 6G11G16G19G 2
  21243330.539     1755413.058 7   1314891.02123
  24197342.070    -1613873.746 5  -1086794.34621
  23333440.1484   -3430293.48846  -2672948.83061
  23782643.094    -3403936.046 5  -2652417.12621
  20813639.3204    -683307.35746   -532446.98563
  22720344.7424   -5237936.28346  -4081497.71761
 91  5  1 19 51  0.0000000  0  6G18G 6G11G16G19G 2
  21247510.281     1777375.282 7   1332004.39923
  24189088.9064   -1657235.35844  -1120582.50161
  23327823.266    -3459804.795 6  -2695944.59721
  23776959.6254   -3433766.92145  -2675661.95661
  20812669.2974    -688388.91146   -536406.64163
  22710665.7114   -5288791.43746  -4121125.01761
 91  5  1 19 51 15.0000000  0  6G18G 6G11G16G19G 2
  21251712.969     1799459.886 7   1349213.13123
  24180847.2504   -1700556.41545  -1154339.05961
  23322236.352    -3489164.983 6  -2718822.61621
  23771314.5784   -3463446.31745  -2698788.75861
  20811717.1414    -693401.95846   -540312.92063
  22701004.8364   -5339559.03446  -4160684.08361
 91  5  1 19 51 30.0000000  0  6G18G 6G11G16G19G 2
  21255937.867     1821662.799 7   1366514.05723
  24172614.4144   -1743840.97744  -1188067.21061
  23316678.1884   -3518377.78946  -2741585.78061
  23765697.4384   -3492978.41645  -2721800.76261
  20810773.4694    -698350.61646   -544169.01862
  22691361.3284   -5390242.90246  -4200177.90761
 91  5  1 19 51 45.0000000  0  6G18G 6G11G16G19G 2
  21260185.3754    1843990.17647   1383911.96963
  24164377.578    -1787082.920 4  -1221762.12621
  23311148.5474   -3547436.77046  -2764229.09961
  23760107.6024   -3522356.55145  -2744692.82161
  20809847.2974    -703228.59546   -547970.04563
  22681731.8984   -5440836.69146  -4239601.54261
 91  5  1 19 52  0.0000000  0  6G18G 6G11G16G19G 2
  21264456.281     1866425.111 7   1401393.69023
  24156162.2194   -1830298.96944  -1255436.89261
  23305642.9614   -3576358.36546  -2786765.36361
  23754540.828    -3551597.548 5  -2767478.01921
  20808926.7034    -708052.54346   -551728.97863
  22672118.125    -5491356.963 6  -4278967.88821
 91  5  1 19 52 15.0000000  0  6G18G 6G11G16G19G 2
  21268743.484     1888955.581 7   1418949.86123
  24147939.3594   -1873501.12844  -1289100.80861
  23300163.5634   -3605154.26746  -2809203.70161
  23749000.9844   -3580713.15245  -2790165.50161
  20808019.1254    -712834.41446   -555455.10763
  22662515.1724   -5541815.49246  -4318286.12161
 91  5  1 19 52 30.0000000  0  6G18G 6G11G16G19G 2
  21273050.109     1911589.499 7   1436586.63423
  24139723.008    -1916681.394 5  -1322747.66021
  23294711.539    -3633816.200 6  -2831537.62621
  23743484.8444   -3609695.19745  -2812748.90061
  20807117.4304    -717566.15746   -559142.18963
  22652928.6414   -5592204.26246  -4357550.00561
 91  5  1 19 52 45.0000000  0  6G18G 6G11G16G19G 2
  21277376.344     1934323.789 7   1454301.62123
  24131509.6804   -1959842.56944  -1356379.68461
  23289279.953    -3662346.754 6  -2853769.17321
  23737993.0164   -3638546.40545  -2835230.38261
  20806228.0164    -722250.64646   -562792.44463
  22643353.6484   -5642525.97946  -4396761.63461
 91  5  1 19 53  0.0000000  0  6G18G 6G11G16G19G 2
  21281720.703     1957159.450 7   1472095.60023
  24123294.3364   -2002983.81544  -1389996.12061
  23283874.4064   -3690744.74646  -2875897.41961
  23732525.3204   -3667265.51445  -2857608.88761
  20805342.6254    -726887.09946   -566405.27663
  22633786.219    -5692779.486 6  -4435920.10621
 91  5  1 19 53 15.0000000  0  6G18G 6G11G16G19G 2
  21286086.430     1980095.336 7   1489967.67223
  24115093.648    -2046106.308 4  -1423597.97921
  23278499.7814   -3719011.05446  -2897923.07361
  23727087.0314   -3695853.46645  -2879885.21661
  20804471.4694    -731476.48046   -569981.42163
  22624237.7424   -5742965.79546  -4475026.22561
 91  5  1 19 53 30.0000000  0  6G18G 6G11G16G19G 2
  21290471.602     2003130.516 7   1507917.11423
  24106889.719    -2089210.717 4  -1457185.73721
  23273143.1724   -3747145.97046  -2919846.35061
  23721674.234    -3724311.077 5  -2902059.96921
  20803606.7894    -736019.23346   -573521.23363
  22614700.7114   -5793085.42346  -4514080.38861
 91  5  1 19 53 45.0000000  0  6G18G 6G11G16G19G 2
  21294872.859     2026266.886 7   1525945.40723
  24098690.820    -2132294.729 5  -1490757.60121
  23267814.1414   -3775146.96046  -2941665.26861
  23716287.4534   -3752635.69945  -2924131.10161
  20802752.9694    -740513.23046   -577023.05763
  22605177.703    -5843135.895 6  -4553080.64821
 91  5  1 19 54  0.0000000  0  6G18G 6G11G16G19G 2
  21299295.594     2049507.355 7   1544054.81523
  24090492.5634   -2175355.74044  -1524311.53461
  23262512.1724   -3803011.03846  -2963377.49761
  23710922.5634   -3780824.74045  -2946096.58961
  20801906.8754    -744955.55446   -580484.61663
  22595667.6024   -5893114.33846  -4592024.79561
 91  5  1 19 54 15.0000000  0  6G18G 6G11G16G19G 2
  21303736.344     2072842.118 7   1562237.70123
  24082303.781    -2218403.380 5  -1557855.09321
  23257236.0474   -3830747.65846  -2984990.41461
  23705582.3444   -3808887.68445  -2967963.82961
  20801069.3284    -749355.91446   -583913.47563
  22586167.6414   -5943030.12946  -4630920.12061
 91  5  1 19 54 30.0000000  0  6G18G 6G11G16G19G 2
  21308194.281     2096275.179 7   1580497.17723
  24074119.023    -2261433.529 5  -1591384.98621
  23251984.0704   -3858352.22346  -3006500.42561
  23700263.1884   -3836820.05645  -2989729.31561
  20800239.641     -753710.172 6   -587306.41723
  22576680.4224   -5992878.94946  -4669763.26262
 91  5  1 19 54 45.0000000  0  6G18G 6G11G16G19G 2
  21312673.992     2119812.759 7   1598838.10223
  24065930.2894   -2304439.90045  -1624896.36261
  23246755.781    -3885818.253 6  -3027902.48621
  23694971.3834   -3864615.24345  -3011387.90461
  20799421.8364    -758012.00546   -590658.50262
  22567210.1024   -6042654.55946  -4708549.35962
 91  5  1 19 55  0.0000000  0  6G18G 6G11G16G19G 2
  21317172.766     2143454.125 7   1617259.89423
  24057753.5784   -2347423.14445  -1658389.72461
  23241556.8284   -3913146.06846  -3049196.85161
  23689710.2424   -3892273.88645  -3032940.09561
  20798611.719     -762261.878 6   -593970.10623
  22557750.9844   -6092357.46246  -4747278.79961
 91  5  1 19 55 15.0000000  0  6G18G 6G11G16G19G 2
  21321691.594     2167203.953 7   1635766.20523
  24049580.648    -2390378.544 5  -1691861.38721
  23236381.2344   -3940330.61446  -3070379.58961
  23684475.2734   -3919791.39545  -3054382.30761
  20797815.672     -766455.111 6   -597237.57023
  22548308.6644   -6141982.60346  -4785947.64361
 91  5  1 19 55 30.0000000  0  6G18G 6G11G16G19G 2
  21326230.172     2191053.687 7   1654350.36123
  24041405.0704   -2433314.34545  -1725317.79261
  23231234.7814   -3967379.94446  -3091456.95761
  23679264.0864   -3947175.75445  -3075720.77361
  20797026.2344    -770599.86346   -600467.25463
  22538877.1334   -6191538.19646  -4824562.30162
 91  5  1 19 55 45.0000000  0  6G18G 6G11G16G19G 2
  21330787.445     2215000.052 7   1673009.81523
  24033238.508    -2476233.764 5  -1758761.42021
  23226114.1724   -3994297.06446  -3112431.29761
  23674078.273    -3974429.903 5  -3096957.78321
  20796247.4224    -774699.25346   -603661.59762
  22529458.3054   -6241027.33346  -4863125.17461
 91  5  1 19 56  0.0000000  0  6G18G 6G11G16G19G 2
  21335364.156     2239047.065 7   1691747.69623
  24025075.680    -2519132.800 5  -1792189.17821
  23221018.2114   -4021077.52946  -3133299.15661
  23668917.9924   -4001549.78545  -3118090.14861
  20795474.3444    -778749.25046   -606817.44263
  22520055.2664   -6290445.58646  -4901632.81262
 91  5  1 19 56 15.0000000  0  6G18G 6G11G16G19G 2
  21339959.531     2263203.483 7   1710570.82723
  24016917.453    -2562002.596 5  -1825594.13021
  23215947.742    -4047712.368 6  -3154053.54621
  23663788.3284   -4028526.42645  -3139110.89261
  20794717.3444    -782740.99646   -609927.89763
  22510665.7344   -6339784.09746  -4940078.31362
 91  5  1 19 56 30.0000000  0  6G18G 6G11G16G19G 2
  21344575.508     2287457.106 7   1729469.70323
  24008765.609    -2604855.283 5  -1858985.78321
  23210905.6094   -4074213.33046  -3174703.61461
  23658677.0394   -4055371.56845  -3160029.20061
  20793963.9224    -786686.45046   -613002.28763
  22501293.1954   -6389054.80846  -4978470.98562
 91  5  1 19 56 45.0000000  0  6G18G 6G11G16G19G 2
  21349211.594     2311811.896 7   1748447.40423
  24000612.969    -2647686.643 5  -1892360.79021
  23205888.9614   -4100575.98546  -3195245.90961
  23653585.1884   -4082080.91145  -3180841.69061
  20793224.2814    -790581.27846   -616037.22363
  22491928.0164   -6438253.29346  -5016807.37562
 91  5  1 19 57  0.0000000  0  6G18G 6G11G16G19G 2
  21353861.820     2336258.179 7   1767496.39923
  23992462.422    -2690506.377 5  -1925726.76321
  23200897.430    -4126809.715 6  -3215687.75921
  23648535.125    -4108664.174 5  -3201555.91421
  20792491.1484    -794435.31746   -619040.37663
  22482579.2734   -6487389.13346  -5055094.95662
 91  5  1 19 57 15.0000000  0  6G18G 6G11G16G19G 2
  21358535.023     2360816.266 7   1786632.51523
  23984323.5474   -2733293.86045  -1959067.59761
  23195932.5164   -4152893.64546  -3236012.86761
  23643505.2114   -4135100.66445  -3222155.77961
  20791770.1024    -798227.92146   -621995.65663
  22473245.2274   -6536441.57446  -5093317.54862
 91  5  1 19 57 30.0000000  0  6G18G 6G11G16G19G 2
  21363230.484     2385487.358 7   1805856.68823
  23976188.867    -2776047.978 5  -1992382.40821
  23190999.0704   -4178826.26146  -3256220.06761
  23638500.281    -4161388.861 5  -3242640.08421
  20791056.773     -801957.885 6   -624902.13123
  22463926.2584   -6585409.32246  -5131474.14662
 91  5  1 19 57 45.0000000  0  6G18G 6G11G16G19G 2
  21367945.359     2410264.486 7   1825163.48523
  23968060.6804   -2818775.77545  -2025676.77361
  23186090.7584   -4204614.44446  -3276314.72161
  23633529.664    -4187535.695 5  -3263014.25021
  20790362.0784    -805632.01846   -627765.10263
  22454623.469    -6634299.224 6  -5169570.08522
 91  5  1 19 58  0.0000000  0  6G18G 6G11G16G19G 2
  21372679.156     2435137.669 7   1844545.13023
  23959928.055    -2861486.970 5  -2058958.12021
  23181209.8364   -4230267.54246  -3296304.11461
  23628577.8054   -4213550.83745  -3283285.78861
  20789666.6644    -809259.97546   -630592.08863
  22445331.852    -6683120.813 6  -5207612.80422
 91  5  1 19 58 15.0000000  0  6G18G 6G11G16G19G 2
  21377429.305     2460108.486 7   1864002.85523
  23951803.719    -2904179.732 5  -2092225.14621
  23176352.6884   -4255783.48046  -3316186.63061
  23623652.766    -4239432.241 5  -3303453.11421
  20788988.8754    -812839.91146   -633381.65663
  22436054.008    -6731872.165 6  -5245600.79422
 91  5  1 19 58 30.0000000  0  6G18G 6G11G16G19G 2
  21382200.1254    2485179.23547   1883538.44363
  23943686.6174   -2946851.58645  -2125475.89461
  23171523.0234   -4281159.56446  -3335960.16661
  23618749.500    -4265177.566 5  -3323514.40721
  20788316.3054    -816369.40846   -636131.92563
  22426790.094    -6780550.759 6  -5283532.08822
 91  5  1 19 58 45.0000000  0  6G18G 6G11G16G19G 2
  21386990.7734    2510348.93047   1903151.13463
  23935567.3674   -2989503.80744  -2158711.30561
  23166720.5634   -4306396.76846  -3355625.48461
  23613877.3754   -4290787.86345  -3343470.47561
  20787653.477     -819849.640 6   -638843.80423
  22417541.813    -6829157.462 6  -5321407.36922
 91  5  1 19 59  0.0000000  0  6G18G 6G11G16G19G 2
  21391799.4384    2535619.01747   1922842.05263
  23927454.008    -3032134.386 5  -2191929.85221
  23161944.711    -4331492.788 6  -3375180.79321
  23609029.9454   -4316260.72445  -3363319.46561
  20787000.9844    -823278.57246   -641515.70663
  22408308.078    -6877690.257 6  -5359225.05722
 91  5  1 19 59 15.0000000  0  6G18G 6G11G16G19G 2
  21396627.9304    2560993.13247   1942614.02863
  23919344.453    -3074739.835 5  -2225128.84121
  23157198.0864   -4356443.74646  -3394623.05061
  23604207.1954   -4341592.71745  -3383058.68461
  20786361.5314    -826652.61246   -644144.83563
  22399087.4844   -6926145.35346  -5396982.20362
 91  5  1 19 59 30.0000000  0  6G18G 6G11G16G19G 2
  21401475.5864    2586467.14847   1962463.85063
  23911240.867    -3117323.927 4  -2258311.18421
  23152476.6484   -4381253.37246  -3413955.19761
  23599418.1724   -4366787.48145  -3402690.97961
  20785728.406     -829975.547 6   -646734.15423
  22389878.398    -6974526.355 6  -5434681.61322
 91  5  1 19 59 45.0000000  0  6G18G 6G11G16G19G 2
  21406341.1174    2612040.33047   1982390.94463
  23903143.4534   -3159887.56044  -2291477.57461
  23147782.5704   -4405922.19246  -3433177.62761
  23594648.6484   -4391845.69445  -3422216.86661
  20785106.375     -833248.111 6   -649284.20823
  22380685.969    -7022833.837 6  -5472323.72922
 91  5  1 20  0  0.0000000  0  6G18G 6G11G16G19G 2
  21411227.7424    2637712.70147   2002395.32963
  23895047.4144   -3202430.62744  -2324627.96261
  23143116.3054   -4430449.94446  -3452290.12761
  23589904.1724   -4416767.24745  -3441636.27161
  20784491.8754    -836470.10246   -651794.85863
  22371508.867    -7071067.714 6  -5509908.50022
 91  5  1 20  0 15.0000000  0  6G18G 6G11G16G19G 2
  21416132.5234    2663480.67047   2022474.20663
  23886958.8984   -3244956.52145  -2357764.98061
  23138473.0864   -4454839.67646  -3471295.07361
  23585192.2584   -4441555.32145  -3460951.64261
  20783884.3754    -839644.89546   -654268.73163
  22362342.797    -7119231.354 6  -5547438.53422
 91  5  1 20  0 30.0000000  0  6G18G 6G11G16G19G 2
  21421055.5704    2689348.09547   2042630.58163
  23878867.930    -3287461.511 5  -2390885.68421
  23133858.6254   -4479087.45546  -3490189.42161
  23580500.7424   -4466206.00245  -3480159.98161
  20783294.9144    -842768.58046   -656702.78063
  22353194.6804   -7167320.65346  -5584910.64762
 91  5  1 20  0 45.0000000  0  6G18G 6G11G16G19G 2
  21425995.7114    2715316.28747   2062865.47263
  23870784.336    -3329943.695 5  -2423988.60921
  23129272.6024   -4503191.15646  -3508971.48961
  23575832.2894   -4490717.45045  -3499259.81661
  20782706.1174    -845839.27946   -659095.53863
  22344056.156    -7215333.670 6  -5622323.30622
 91  5  1 20  1  0.0000000  0  6G18G 6G11G16G19G 2
  21430954.3984    2741381.19247   2083175.72963
  23862703.5784   -3372407.26144  -2457077.02661
  23124713.2344   -4527154.53346  -3527644.22261
  23571195.3134   -4515093.78245  -3518254.35561
  20782134.500     -848861.077 6   -661450.20123
  22334933.242    -7263274.444 6  -5659679.68322
 91  5  1 20  1 15.0000000  0  6G18G 6G11G16G19G 2
  21435935.0314    2767549.07747   2103566.22063
  23854626.547    -3414845.783 5  -2490145.94121
  23120180.6804   -4550971.15746  -3546202.59961
  23566583.7274   -4539328.40245  -3537138.48661
  20781566.234     -851827.646 6   -663761.81722
  22325827.469    -7311136.421 6  -5696974.65722
 91  5  1 20  1 30.0000000  0  6G18G 6G11G16G19G 2
  21440934.3204    2793815.60247   2124033.58363
  23846552.9924   -3457263.38545  -2523198.54961
  23115674.9304   -4574644.79246  -3564649.53761
  23561998.2114   -4563424.93245  -3555915.02061
  20781011.9844    -854742.98346   -666033.51663
  22316730.3594   -7358923.47746  -5734211.25362
 91  5  1 20  1 45.0000000  0  6G18G 6G11G16G19G 2
  21445949.1414    2820176.77247   2144574.68763
  23838483.9144   -3499663.85545  -2556237.83861
  23111196.5784   -4598179.08446  -3582987.91261
  23557434.727    -4587387.413 5  -3574587.08721
  20780466.609     -857610.899 6   -668268.26623
  22307650.445    -7406639.160 6  -5771392.22922
 91  5  1 20  2  0.0000000  0  6G18G 6G11G16G19G 2
  21450986.1484    2846634.48947   2165191.02663
  23830422.242    -3542045.603 5  -2589262.47021
  23106744.9384   -4621572.00846  -3601216.12361
  23552902.500    -4611214.188 5  -3593153.42421
  20779934.320     -860429.492 6   -670464.58223
  22298585.4384   -7454281.78446  -5808516.27962
 91  5  1 20  2 14.9990000  0  6G18G 6G11G16G19G 2
  21456037.6444    2873190.00047   2185883.56963
  23822367.159    -3584402.293 5  -2622267.63321
  23102320.651    -4644818.333 6  -3619330.12021
  23548391.831    -4634899.867 5  -3611609.80821
  20779403.5504    -863195.17046   -672619.66263
  22289532.8474   -7501844.74846  -5845578.26162
 91  5  1 20  2 29.9990000  0  6G18G 6G11G16G19G 2
  21461110.8154    2899842.62447   2206651.78363
  23814303.0424   -3626743.75544  -2655260.88461
  23097923.839    -4667925.211 6  -3637335.43921
  23543913.7764   -4658451.82745  -3629961.98161
  20778887.1204    -865912.37146   -674736.97063
  22280496.0584   -7549338.31246  -5882586.16562
 91  5  1 20  2 44.9990000  0  6G18G 6G11G16G19G 2
  21466201.3944    2926596.99447   2227499.28463
  23806254.433    -3669060.629 5  -2688235.01821
  23093554.190    -4690884.150 6  -3655225.48121
  23539462.065    -4681861.686 5  -3648203.45421
  20778380.7764    -868574.36046   -676811.25663
  22271470.9954   -7596752.46446  -5919532.18962
 91  5  1 20  2 59.9990000  0  6G18G 6G11G16G19G 2
  21471312.0114    2953449.91947   2248423.57463
  23798204.206    -3711356.314 4  -2721192.63121
  23089213.6514   -4713698.24546  -3673002.66361
  23535031.847    -4705132.795 5  -3666336.80221
  20777883.2374    -871184.35846   -678845.03163
  22262465.7844   -7644090.48046  -5956418.88962
 91  5  1 20  3 14.9990000  0  6G18G 6G11G16G19G 2
  21476438.3234    2980396.85547   2269421.12263
  23790158.667    -3753635.107 5  -2754137.08021
  23084899.4484   -4736371.73646  -3690670.28461
  23530626.956    -4728269.450 5  -3684365.38221
  20777396.1364    -873746.60046   -680841.58363
  22253470.3314   -7691356.60246  -5993249.56462
 91  5  1 20  3 29.9990000  0  6G18G 6G11G16G19G 2
  21481584.5344    3007431.25647   2290486.82463
  23782115.3784   -3795903.18945  -2787073.13661
  23080612.9404   -4758910.41846  -3708232.86361
  23526245.3004   -4751277.53645  -3702293.77061
  20776918.7694    -876267.29746   -682805.77162
  22244488.503    -7738556.692 6  -6030028.77922
 91  5  1 20  3 44.9990000  0  6G18G 6G11G16G19G 2
  21486746.9874    3034560.95447   2311626.78263
  23774074.1204   -3838152.79944  -2819994.91361
  23076348.8704   -4781306.32846  -3725684.19161
  23521896.815    -4774149.219 5  -3720115.86421
  20776447.2694    -878738.58346   -684731.45463
  22235520.5264   -7785682.85346  -6066750.38862
 91  5  1 20  3 59.9990000  0  6G18G 6G11G16G19G 2
  21491927.1284    3061791.64747   2332845.43663
  23766041.815    -3880378.077 5  -2852897.61421
  23072115.4564   -4803553.41246  -3743019.54961
  23517572.706    -4796878.524 5  -3737827.02221
  20775987.0814    -881154.56246   -686614.03963
  22226568.1674   -7832729.32446  -6103409.90862
 91  5  1 20  4 14.9990000  0  6G18G 6G11G16G19G 2
  21497128.8004    3089116.96647   2354137.82563
  23758008.839    -3922585.065 5  -2885786.11621
  23067909.4804   -4825657.51246  -3760243.48661
  23513274.6984   -4819471.43445  -3755431.92661
  20775536.620     -883521.156 6   -688458.14523
  22217630.495    -7879701.889 6  -6140011.83522
 91  5  1 20  4 29.9990000  0  6G18G 6G11G16G19G 2
  21502346.7924    3116538.67747   2375505.32863
  23749978.4014   -3964771.85044  -2918658.86061
  23063730.550    -4847616.551 6  -3777354.38221
  23508998.917    -4841926.145 5  -3772929.11121
  20775096.9954    -885836.39546   -690262.23863
  22208705.0034   -7926598.56046  -6176554.62762
 91  5  1 20  4 44.9990000  0  6G18G 6G11G16G19G 2
  21507583.7614    3144056.43347   2396947.66563
  23741960.4334   -4006938.58545  -2951515.98861
  23059578.448    -4869430.344 6  -3794352.09721
  23504751.6124   -4864242.34045  -3790318.35761
  20774664.8554    -888100.38146   -692026.39063
  22199795.0264   -7973419.20446  -6213038.17162
 91  5  1 20  4 59.9990000  0  6G18G 6G11G16G19G 2
  21512837.5814    3171673.70647   2418467.55263
  23733936.565    -4049082.002 5  -2984354.94221
  23055457.370    -4891095.461 6  -3811233.96021
  23500531.886    -4886416.765 5  -3807597.17021
  20774247.401     -890309.797 6   -693748.02323
  22190900.9484   -8020160.63246  -6249460.00662
 91  5  1 20  5 14.9990000  0  6G18G 6G11G16G19G 2
  21518110.730     3199383.062 7   2440059.18523
  23725921.0814   -4091209.34345  -3017181.35961
  23051362.9874   -4912618.86646  -3828005.40661
  23496340.550    -4908456.618 5  -3824771.07821
  20773834.4954    -892471.75446   -695432.66963
  22182019.0974   -8066829.79246  -6285825.51762
 91  5  1 20  5 29.9990000  0  6G18G 6G11G16G19G 2
  21523401.1514    3227188.43247   2461725.64163
  23717908.112    -4133316.581 5  -3049992.09321
  23047293.409    -4933996.283 6  -3844663.08521
  23492173.0894   -4930357.93045  -3841837.05161
  20773432.1904    -894582.26546   -697077.23263
  22173153.323    -8113422.406 6  -6322131.37822
 91  5  1 20  5 44.9990000  0  6G18G 6G11G16G19G 2
  21528709.8624    3255083.16947   2483461.73163
  23709894.0654   -4175410.25944  -3082792.33061
  23043252.8864   -4955233.97746  -3861211.91361
  23488029.198    -4952127.183 5  -3858800.14621
  20773038.394     -896647.829 6   -698686.77523
  22164300.2224   -8159944.99246  -6358382.67862
 91  5  1 20  5 59.9990000  0  6G18G 6G11G16G19G 2
  21534037.5424    3283075.82447   2505274.11963
  23701891.0584   -4217481.62145  -3115575.10361
  23039237.7064   -4976323.02646  -3877644.90361
  23483913.3944   -4973755.40045  -3875653.29861
  20772657.7534    -898659.61446   -700254.40363
  22155462.9174   -8206388.61547  -6394572.44462
 91  5  1 20  6 14.9990000  0  6G18G 6G11G16G19G 2
  21539382.1904    3311157.38847   2527155.79063
  23693882.0974   -4259539.31145  -3148347.27661
  23035252.714    -4997271.857 6  -3893968.62221
  23479824.230    -4995251.205 5  -3892403.30521
  20772280.878     -900626.085 6   -701786.73123
  22146635.9724   -8252761.69647  -6430707.25362
 91  5  1 20  6 29.9990000  0  6G18G 6G11G16G19G 2
  21544744.1514    3339336.35747   2549113.35963
  23685881.394    -4301574.829 4  -3181102.16321
  23031294.1754   -5018071.78646  -3910176.32161
  23475757.901    -5016606.048 5  -3909043.46021
  20771917.933     -902538.634 6   -703277.04123
  22137829.3784   -8299055.65447  -6466780.40262
 91  5  1 20  6 44.9990000  0  6G18G 6G11G16G19G 2
  21550125.917     3367613.731 7   2571147.60523
  23677895.651    -4343587.061 5  -3213838.91421
  23027363.706    -5038721.476 6  -3926266.96321
  23471726.276    -5037818.606 6  -3925572.73821
  20771563.605     -904396.258 6   -704724.55323
  22129032.7764   -8345269.26347  -6502790.94162
 91  5  1 20  6 59.9990000  0  6G18G 6G11G16G19G 2
  21555524.2454    3395984.79447   2593254.85963
  23669904.323    -4385580.661 5  -3246561.10221
  23023460.9644   -5059225.36346  -3942243.98761
  23467709.675    -5058893.498 5  -3941994.75121
  20771220.245     -906203.532 6   -706132.83023
  22120254.4874   -8391407.05947  -6538742.40662
 91  5  1 20  7 14.9990000  0  6G18G 6G11G16G19G 2
  21560940.136     3424451.672 7   2615436.76523
  23661911.9564   -4427553.42345  -3279267.11661
  23019589.972    -5079580.995 6  -3958105.47621
  23463729.8554   -5079828.48045  -3958307.75261
  20770885.7694    -907958.07346   -707500.01163
  22111487.8234   -8437466.58647  -6574632.88162
 91  5  1 20  7 29.9990000  0  6G18G 6G11G16G19G 2
  21566375.6904    3453009.36447   2637689.44363
  23653932.097    -4469510.123 5  -3311960.58721
  23015743.5894   -5099792.88446  -3973854.95961
  23459773.433    -5100627.941 6  -3974515.15121
  20770561.9174    -909664.63846   -708829.81363
  22102738.1204   -8483452.49147  -6610465.98762
 91  5  1 20  7 44.9990000  0  6G18G 6G11G16G19G 2
  21571828.8004    3481656.37447   2660011.71963
  23645954.073    -4511452.126 5  -3344642.57021
  23011923.8624   -5119862.28446  -3989493.41761
  23455835.097    -5121293.370 5  -3990618.10621
  20770243.2694    -911324.47546   -710123.20163
  22093999.3624   -8529366.10547  -6646242.76262
 91  5  1 20  7 59.9990000  0  6G18G 6G11G16G19G 2
  21577297.0424    3510397.74647   2682407.52563
  23637973.730    -4553374.216 5  -3377309.07121
  23008132.1984   -5139783.79346  -4005016.63761
  23451933.901    -5141819.594 5  -4006612.58121
  20769939.7614    -912932.28146   -711376.04763
  22085277.8154   -8575201.94747  -6681958.93862
 91  5  1 20  8 14.9990000  0  6G18G 6G11G16G19G 2
  21582783.417     3539236.121 7   2704878.90923
  23629997.1444   -4595273.29045  -3409957.61961
  23004370.2694   -5159554.08746  -4020422.02661
  23448050.370    -5162203.414 5  -4022496.11121
  20769644.495     -914485.001 6   -712585.96823
  22076572.3394   -8620956.89447  -6717612.08462
 91  5  1 20  8 29.9990000  0  6G18G 6G11G16G19G 2
  21588289.683     3568167.253 7   2727422.57623
  23622032.495    -4637153.860 5  -3442591.75721
  23000636.8154   -5179177.49046  -4035712.95661
  23444200.425    -5182449.197 5  -4038272.07521
  20769358.3474    -915987.00146   -713756.36963
  22067877.9564   -8666635.38647  -6753205.65062
 91  5  1 20  8 44.9990000  0  6G18G 6G11G16G19G 2
  21593815.097     3597196.404 7   2750042.62022
  23614063.6754   -4679010.41845  -3475207.15561
  22996929.8004   -5198648.28246  -4050884.96161
  23440376.1834   -5202551.64845  -4053936.34161
  20769083.784     -917432.652 6   -714882.86223
  22059200.9644   -8712231.51647  -6788735.03862
 91  5  1 20  8 59.9990000  0  6G18G 6G11G16G19G 2
  21599356.4334    3626316.99247   2772733.91763
  23606098.9804   -4720849.52745  -3507809.02761
  22993254.6594   -5217972.75246  -4065942.95761
  23436575.472    -5222516.821 6  -4069493.64321
  20768819.065     -918828.520 6   -715970.56623
  22050541.5424   -8757751.82347  -6824205.34562
 91  5  1 20  9 14.9990000  0  6G18G 6G11G16G19G 2
  21604913.112     3655525.927 7   2795494.05222
  23598141.9094   -4762674.06345  -3540399.50061
  22989603.8234   -5237153.62746  -4080889.06661
  23432806.401    -5242347.511 6  -4084946.14621
  20768561.589     -920177.598 6   -717021.80923
  22041894.0194   -8803199.15447  -6859618.78962
 91  5  1 20  9 29.9990000  0  6G18G 6G11G16G19G 2
  21610489.917     3684830.299 7   2818328.55323
  23590183.1204   -4804476.58045  -3572972.80461
  22985983.355    -5256183.316 6  -4095717.36721
  23429061.308    -5262036.611 6  -4100288.32021
  20768315.620     -921472.077 6   -718030.50923
  22033259.3704   -8848565.82347  -6894969.38262
 91  5  1 20  9 44.9990000  0  6G18G 6G11G16G19G 2
  21616085.7614    3714231.88047   2841238.80662
  23582237.3864   -4846255.26045  -3605527.55061
  22982390.2374   -5275059.71646  -4110426.21461
  23425335.7224   -5281581.92746  -4115518.45161
  20768078.7534    -922710.06846   -718995.18563
  22024642.8624   -8893849.86247  -6930255.58662
 91  5  1 20  9 59.9990000  0  6G18G 6G11G16G19G 2
  21621696.276     3743723.179 7   2864218.96122
  23574286.9954   -4888017.59945  -3638069.56561
  22978826.8944   -5293790.23746  -4125021.39861
  23421644.339    -5300991.044 6  -4130642.44221
  20767853.534     -923899.416 6   -719921.96423
  22016037.3864   -8939058.80747  -6965483.27962
 91  5  1 20 10 14.9990000  0  6G18G 6G11G16G19G 2
  21627326.362     3773309.225 7   2887272.94822
  23566345.237    -4929758.356 5  -3670594.77021
  22975289.8154   -5312369.36546  -4139498.61261
  23417980.480    -5320258.383 6  -4145655.97321
  20767637.159     -925034.347 6   -720806.34123
  22007451.847    -8984187.226 7  -7000648.22122
 91  5  1 20 10 29.9990000  0  6G18G 6G11G16G19G 2
  21632974.214     3802985.317 7   2910397.09622
  23558406.542    -4971481.958 5  -3703106.58721
  22971782.5264   -5330801.42046  -4153861.21461
  23414338.620    -5339388.667 6  -4160562.71721
  20767434.058     -926119.512 6   -721651.93523
  21998876.526    -9029239.494 7  -7035753.83622
 91  5  1 20 10 44.9990000  0  6G18G 6G11G16G19G 2
  21638640.839     3832757.084 7   2933595.79422
  23550469.0504   -5013182.86345  -3735600.75261
  22968305.034    -5349080.589 6  -4168104.70121
  23410724.440    -5358376.034 6  -4175358.10321
  20767234.386     -927149.109 6   -722454.23223
  21990320.6054   -9074209.77147  -7070795.55762
 91  5  1 20 10 59.9990000  0  6G18G 6G11G16G19G 2
  21644323.120     3862623.059 7   2956867.90523
  23542535.378    -5054862.242 5  -3768078.14421
  22964854.9174   -5367207.95146  -4182229.88961
  23407137.706    -5377221.561 5  -4190042.95421
  20767050.3234    -928124.27646   -723214.11663
  21981780.7454   -9119099.18047  -7105774.26262
 91  5  1 20 11 14.9990000  0  6G18G 6G11G16G19G 2
  21650022.980     3892577.243 7   2980208.75122
  23534613.9644   -5096525.74545  -3800543.13461
  22961435.2694   -5385188.82446  -4196240.92261
  23403576.011    -5395930.852 5  -4204621.64521
  20766872.901     -929050.587 6   -723935.92623
  21973250.9404   -9163913.06147  -7140694.11162
 91  5  1 20 11 29.9990000  0  6G18G 6G11G16G19G 2
  21655742.347     3922629.669 7   3003626.14022
  23526684.0344   -5138163.48945  -3832988.07961
  22958042.761    -5403013.349 6  -4210130.13921
  23400045.761    -5414494.269 5  -4219086.66221
  20766710.2614    -929918.19346   -724611.98663
  21964740.378    -9208641.665 7  -7175547.51622
 91  5  1 20 11 44.9990000  0  6G18G 6G11G16G19G 2
  21661479.620     3952780.002 7   3027119.82222
  23518771.690    -5179775.583 5  -3865413.01421
  22954681.3704   -5420681.29846  -4223897.34061
  23396540.784    -5432911.541 5  -4233437.80621
  20766554.4804    -930727.04546   -725242.27263
  21956245.386    -9253284.805 7  -7210334.31922
 91  5  1 20 11 59.9990000  0  6G18G 6G11G16G19G 2
  21667233.987     3983024.370 7   3050686.78122
  23510854.058    -5221365.753 5  -3897820.87521
  22951346.0654   -5438196.23046  -4237545.30261
  23393060.495    -5451186.627 5  -4247678.14021
  20766413.6364    -931480.73346   -725829.56863
  21947761.597    -9297846.074 7  -7245057.33022
 91  5  1 20 12 14.9990000  0  6G18G 6G11G16G19G 2
  21673007.253     4013356.996 7   3074322.50722
  23502943.5584   -5262939.64545  -3930216.08961
  22948040.6444   -5455563.65346  -4251078.32661
  23389613.3004   -5469325.00646  -4261811.95961
  20766276.456     -932184.893 6   -726378.27923
  21939297.2454   -9342330.87547  -7279720.75862
 91  5  1 20 12 29.9990000  0  6G18G 6G11G16G19G 2
  21678796.448     4043775.774 7   3098025.36822
  23495033.8784   -5304499.00945  -3962599.94261
  22944763.5814   -5472785.07846  -4264497.59061
  23386185.1754   -5487328.26845  -4275840.48961
  20766155.8234    -932841.19146   -726889.68863
  21930845.409    -9386740.924 7  -7314325.93822
 91  5  1 20 12 44.9990000  0  6G18G 6G11G16G19G 2
  21684601.714     4074284.116 7   3121798.01622
  23487131.0734   -5346040.27545  -3994969.70761
  22941516.675    -5489856.893 6  -4277800.27321
  23382785.065    -5505193.146 5  -4289761.19721
  20766036.9484    -933446.00346   -727360.98063
  21922413.1834   -9431072.62547  -7348870.06562
 91  5  1 20 12 59.9990000  0  6G18G 6G11G16G19G 2
  21690425.308     4104885.384 7   3145643.07522
  23479233.417    -5387560.137 5  -4027322.79221
  22938295.1204   -5506775.61146  -4290983.66161
  23379416.761    -5522916.188 5  -4303571.36021
  20765936.3394    -933996.15846   -727789.68263
  21913991.878    -9475322.640 7  -7383350.54922
 91  5  1 20 13 14.9990000  0  6G18G 6G11G16G19G 2
  21696266.269     4135579.704 7   3169560.64422
  23471332.245    -5429058.406 5  -4059659.06121
  22935106.2374   -5523540.78946  -4304047.40461
  23376068.167    -5540496.918 5  -4317270.65221
  20765837.386     -934491.216 6   -728175.45523
  21905587.886    -9519490.588 7  -7417767.08422
 91  5  1 20 13 29.9990000  0  6G18G 6G11G16G19G 2
  21702122.9804    4166359.56047   3193544.86262
  23463438.8314   -5470542.11845  -4091983.97661
  22931943.6204   -5540159.33346  -4316996.89161
  23372751.167    -5557942.242 6  -4330864.41921
  20765755.5344    -934938.16346   -728523.73463
  21897196.901    -9563583.443 7  -7452125.10122
 91  5  1 20 13 44.9990000  0  6G18G 6G11G16G19G 2
  21707997.284     4197233.171 7   3217602.13622
  23455549.026    -5512003.078 5  -4124291.15821
  22928811.3704   -5556622.78646  -4329825.52161
  23369456.1124   -5575244.18345  -4344346.50361
  20765676.495     -935328.611 6   -728827.99523
  21888817.761    -9607592.838 7  -7486418.08422
 91  5  1 20 13 59.9990000  0  6G18G 6G11G16G19G 2
  21713891.745     4228191.728 7   3241725.60422
  23447663.2924   -5553449.85345  -4156587.28861
  22925704.4804   -5572939.71246  -4342539.98061
  23366189.526    -5592411.336 5  -4357723.55321
  20765613.597     -935671.266 6   -729095.00823
  21880459.573    -9651527.140 7  -7520652.55522
 91  5  1 20 14 14.9990000  0  6G18G 6G11G16G19G 2
  21719797.9094    4259245.95147   3265923.60662
  23439780.409    -5594871.863 5  -4188864.11021
  22922631.3554   -5589099.23046  -4355131.78361
  23362948.089    -5609432.969 5  -4370987.18021
  20765559.183     -935955.322 6   -729316.35923
  21872115.831    -9695375.588 7  -7554820.12522
 91  5  1 20 14 29.9990000  0  6G18G 6G11G16G19G 2
  21725724.4174    4290385.81447   3290188.34862
  23431899.901    -5636278.553 5  -4221129.01421
  22919586.089    -5605110.665 6  -4367608.20221
  23359731.7534   -5626318.56945  -4384144.79261
  20765518.8554    -936190.11346   -729499.32263
  21863788.151    -9739147.548 7  -7588928.09522
 91  5  1 20 14 44.9990000  0  6G18G 6G11G16G19G 2
  21731668.6834    4321612.03147   3314520.37562
  23424024.9174   -5677669.13945  -4253381.37561
  22916563.644    -5620973.061 6  -4379968.48421
  23356551.948    -5643067.309 5  -4397195.77021
  20765480.7694    -936374.91746   -729643.33263
  21855471.175    -9782842.210 7  -7622975.83222
 91  5  1 20 14 59.9990000  0  6G18G 6G11G16G19G 2
  21737626.9404    4352928.28447   3338922.56762
  23416148.362    -5719039.856 5  -4285618.24821
  22913576.339    -5636682.516 6  -4392209.60021
  23353386.5344   -5659675.26445  -4410137.04161
  20765454.808     -936505.819 6
  21847172.878    -9826455.740 7  -7656960.35322
 91  5  1 20 15 14.9990000  0  6G18G 6G11G16G19G 2
  21743603.7694    4384338.94047   3363398.31362
  23408281.1834   -5760386.18945  -4317836.10461
  22910617.4874   -5652234.49946  -4404327.99961
  23350259.1834   -5676138.05145  -4422965.21061
  20765441.730     -936578.341 6
  21838889.128    -9869983.428 7  -7690877.98222
 91  5  1 20 15 29.9990000  0  6G18G 6G11G16G19G 2
  21749598.0654    4415844.53847   3387948.03962
  23400422.6124   -5801707.40145  -4350034.38461
  22907686.2694   -5667627.90046  -4416322.82561
  23347149.5424   -5692454.82145  -4435679.58361
  20765438.573     -936591.566 6
  21830625.495    -9913424.365 7  -7724728.01322
 91  5  1 20 15 44.9990000  0  6G18G 6G11G16G19G 2
  21755609.9484    4447438.03047   3412566.25862
  23392560.3004   -5843010.20045  -4382218.32061
  22904786.7064   -5682869.43446  -4428199.30961
  23344072.042    -5708632.454 5  -4448285.54721
  20765446.948     -936552.336 6
  21822371.136    -9956785.215 7  -7758515.64122
 91  5  1 20 15 59.9990000  0  6G18G 6G11G16G19G 2
  21761639.3624    4479118.80147   3437252.48562
  23384707.2064   -5884295.33445  -4414388.49861
  22901915.714    -5697959.682 6  -4439957.91521
  23341022.081    -5724671.682 5  -4460783.66721
  20765465.706     -936461.237 6
  21814134.964   -10000066.666 7  -7792241.39822
 91  5  1 20 16 14.9990000  0  6G18G 6G11G16G19G 2
  21767685.2374    4510879.35647   3462000.88262
  23376848.2224   -5925569.93645  -4446550.46461
  22899070.7144   -5712905.56646  -4451604.03161
  23337991.034    -5740579.456 5  -4473179.36721
  20765489.019     -936325.269 6
  21805911.425   -10043275.706 7  -7825910.73322
 91  5  1 20 16 29.9990000  0  6G18G 6G11G16G19G 2
  21773746.6674    4542730.38047   3486819.76862
  23368996.6514   -5966823.01345  -4478695.64361
  22896256.0424   -5727696.22346  -4463129.18961
  23334994.4954   -5756344.73645  -4485464.01661
  20765525.8084    -936133.51246
  21797707.714   -10086401.402 7  -7859515.11622
 91  5  1 20 16 44.9990000  0  6G18G 6G11G16G19G 2
  21779823.7844    4574676.54647   3511712.80162
  23361154.1364   -6008049.84545  -4510820.37861
  22893473.308    -5742326.490 6  -4474529.37221
  23332027.2374   -5771962.58545  -4497633.80161
  20765571.698     -935881.010 6
  21789513.847   -10129438.606 7  -7893050.55522
 91  5  1 20 16 59.9990000  0  6G18G 6G11G16G19G 2
  21785919.4014    4606707.61547   3536671.98262
  23353312.136    -6049260.704 5  -4542932.66621
  22890717.9564   -5756806.68446  -4485812.61561
  23329078.7534   -5787443.53945  -4509696.92161
  20765632.9404    -935578.08746   -729022.51263
  21781341.956   -10172397.690 7  -7926525.11722
 91  5  1 20 17 14.9990000  0  6G18G 6G11G16G19G 2
  21792032.5814    4638831.77747   3561703.70962
  23345478.8314   -6090447.21345  -4575025.98261
  22887990.8554   -5771128.19246  -4496972.20761
  23326159.190    -5802779.120 5  -4521646.74421
  20765699.9404    -935216.18946   -728740.52163
  21773182.675   -10215270.116 7  -7959932.16122
 91  5  1 20 17 29.9990000  0  6G18G 6G11G16G19G 2
  21798161.5654    4671042.61947   3586802.97462
  23337639.183    -6131615.516 5  -4607105.08921
  22885294.581    -5785297.067 6  -4508012.86721
  23323268.159    -5817975.416 5  -4533488.03921
  20765780.448     -934801.428 6   -728417.33823
  21765041.128   -10258062.019 7  -7993276.45322
 91  5  1 20 17 44.9990000  0  6G18G 6G11G16G19G 2
  21804305.3784    4703334.92547   3611965.72162
  23329810.378    -6172770.752 5  -4639174.03221
  22882627.792    -5799318.163 6  -4518938.37021
  23320396.6124   -5833037.70745  -4545224.89661
  20765866.722     -934338.666 6   -728056.75723
  21756913.605   -10300778.242 7  -8026561.77022
 91  5  1 20 17 59.9990000  0  6G18G 6G11G16G19G 2
  21810469.2844    4735721.29047   3637201.76262
  23321983.269    -6213899.982 5  -4671222.71521
  22879990.409    -5813178.464 6  -4529738.58021
  23317563.0034   -5847952.83745  -4556847.05461
  20765966.0264    -933815.08046   -727648.77863
  21748800.683   -10343405.744 7  -8059777.95622
 91  5  1 20 18 14.9990000  0  6G18G 6G11G16G19G 2
  21816647.5974    4768192.01047   3662503.52662
  23314156.964    -6255012.625 5  -4703258.49321
  22877380.7144   -5826887.34746  -4540420.80561
  23314749.940    -5862730.341 5  -4568362.02721
  20766075.323     -933240.177 6   -727200.81223
  21740701.808   -10385953.906 7  -8092932.31722
 91  5  1 20 18 29.9990000  0  6G18G 6G11G16G19G 2
  21822847.605     4800759.121 7   3687880.41022
  23306342.995    -6296096.496 5  -4735271.81221
  22874803.0344   -5840432.57346  -4550975.49561
  23311961.636    -5877358.134 5  -4579760.33521
  20766199.3314    -932601.72046   -726703.32463
  21732623.081   -10428410.413 7  -8126015.26422
 91  5  1 20 18 44.9990000  0  6G18G 6G11G16G19G 2
  21829062.3474    4833411.54047   3713323.76662
  23298525.612    -6337162.810 5  -4767271.45621
  22872256.0974   -5853825.19746  -4561411.28261
  23309209.480    -5891847.325 5  -4591050.62321
  20766327.878     -931910.595 6   -726164.80023
  21724561.120   -10470786.460 7  -8159035.51023
 91  5  1 20 18 59.9990000  0  6G18G 6G11G16G19G 2
  21835288.8784    4866148.77747   3738833.20862
  23290714.706    -6378211.704 5  -4799257.55421
  22869735.6984   -5867065.02846  -4571728.00561
  23306477.315    -5906197.850 5  -4602232.86821
  20766473.4014    -931166.89546   -725585.30363
  21716511.401   -10513081.899 7  -8191992.94522
 91  5  1 20 19 14.9990000  0  6G18G 6G11G16G19G 2
  21841537.0894    4898969.54147   3764407.73662
  23282904.9954   -6419244.15845  -4831230.82061
  22867244.1444   -5880153.11646  -4581926.48961
  23303771.9484   -5920411.16145  -4613308.18561
  20766621.4564    -930371.62646   -724965.61963
  21708478.480   -10555297.677 7  -8224888.31422
 91  5  1 20 19 29.9990000  0  6G18G 6G11G16G19G 2
  21847796.9724    4931877.40047   3790050.12962
  23275097.581    -6460256.443 5  -4863188.37121
  22864783.4644   -5893085.49646  -4592003.63861
  23301092.573    -5934483.318 5  -4624273.51721
  20766786.409     -929520.931 6   -724302.75423
  21700459.089   -10597430.094 7  -8257718.71922
 91  5  1 20 19 44.9990000  0  6G18G 6G11G16G19G 2
  21854075.1984    4964873.04147   3815760.92962
  23267303.4644   -6501247.73545  -4895129.57161
  22862351.6834   -5905861.21746  -4601958.71761
  23298445.308    -5948413.452 6  -4635128.17321
  20766956.909     -928613.952 6   -723596.03123
  21692459.448   -10639478.121 7  -8290483.37022
 91  5  1 20 19 59.9990000  0  6G18G 6G11G16G19G 2
  21860373.2064    4997954.53147   3841538.63062
  23259501.5814   -6542219.97145  -4927055.91961
  22859949.9954   -5918482.25746  -4611793.25861
  23295821.628    -5962203.643 5  -4645873.82721
  20767141.1514    -927652.72746   -722847.03563
  21684471.237   -10681443.667 7  -8323183.75023
 91  5  1 20 20 14.9990000  0  6G18G 6G11G16G19G 2
  21866683.2694    5031116.44946   3867378.99562
  23251709.706    -6583178.321 5  -4958971.43821
  22857578.7924   -5930953.48346  -4621511.05461
  23293218.4014   -5975858.87845  -4656514.29761
  20767333.2694    -926642.14547   -722059.57463
  21676502.292   -10723331.612 7  -8355823.65523
 91  5  1 20 20 29.9990000  0  6G18G 6G11G16G19G 2
  21873009.7614    5064363.35847   3893285.58462
  23243918.300    -6624118.018 5  -4990872.45821
  22855233.9334   -5943270.02146  -4631108.31961
  23290650.065    -5989374.249 5  -4667045.79121
  20767535.8154    -925577.36946   -721229.88663
  21668547.183   -10765137.134 7  -8388399.33523
 91  5  1 20 20 44.9990000  0  6G18G 6G11G16G19G 2
  21879352.7844    5097701.07046   3919262.93162
  23236133.4254   -6665032.86845  -5022754.08361
  22852920.6124   -5955425.74746  -4640580.27861
  23288108.222    -6002743.843 6  -4677463.67421
  20767749.1444    -924452.32147   -720353.23063
  21660608.440   -10806854.229 7  -8420906.11123
 91  5  1 20 20 59.9990000  0  6G18G 6G11G16G19G 2
  21885714.136     5131127.766 6   3945309.62122
  23228350.776    -6705924.527 5  -5054617.64621
  22850636.1204   -5967422.04046  -4649928.00561
  23285593.433    -6015969.253 6  -4687769.22721
  20767973.620     -923268.370 6   -719430.68323
  21652687.409   -10848484.270 7  -8453345.05723
 91  5  1 20 21 14.9990000  0  6G18G 6G11G16G19G 2
  21892091.9484    5164638.20346   3971421.56362
  23220572.308    -6746798.281 5  -5086467.25321
  22848383.8234   -5979264.14746  -4659155.58361
  23283099.6124   -6029055.55345  -4697966.35461
  20768208.159     -922030.787 7   -718466.34723
  21644777.558   -10890032.474 7  -8485720.22723
 91  5  1 20 21 29.9990000  0  6G18G 6G11G16G19G 2
  21898486.065     5198237.967 6   3997603.11222
  23212802.7064   -6787648.24345  -5118298.30561
  22846161.5814   -5990946.18146  -4668258.43161
  23280636.190    -6041997.475 5  -4708051.01021
  20768455.8314    -920733.91246   -717455.81163
  21636890.706   -10931492.929 7  -8518027.02923
 91  5  1 20 21 44.9990000  0  6G18G 6G11G16G19G 2
  21904893.425     5231920.958 6   4023849.51522
  23205029.3704   -6828480.43845  -5150115.54261
  22843967.9564   -6002473.94046  -4677241.06761
  23278200.558    -6054800.650 5  -4718027.52821
  20768712.034     -919383.467 7   -716403.52423
  21629015.933   -10972871.285 7  -8550269.86223
 91  5  1 20 21 59.9990000  0  6G18G 6G11G16G19G 2
  21911321.9334    5265683.23546   4050157.69062
  23197266.3944   -6869298.39445  -5181921.68861
  22841803.300    -6013850.826 6  -4686106.13621
  23275787.8084   -6067468.39145  -4727898.52261
  20768980.1124    -917982.81746   -715312.11863
  21621155.487   -11014171.210 7  -8582451.57423
 91  5  1 20 22 14.9990000  0  6G18G 6G11G16G19G 2
  21917759.4014    5299523.91546   4076526.96862
  23189497.3944   -6910103.00945  -5213717.40861
  22839665.4804   -6025077.87946  -4694854.45561
  23273403.112    -6080002.066 5  -4737665.05121
  20769255.6054    -916532.85147   -714182.28263
  21613314.7304  -11055393.63747  -8614572.90763
 91  5  1 20 22 29.9990000  0  6G18G 6G11G16G19G 2
  21924215.5114    5333450.39846   4102963.09562
  23181737.7614   -6950886.47145  -5245496.68461
  22837560.8554   -6036147.06846  -4703479.76061
  23271045.9484   -6092393.89345  -4747321.05661
  20769543.9564    -915025.66446   -713007.86263
  21605484.776   -11096530.575 7  -8646627.62123
 91  5  1 20 22 44.9990000  0  6G18G 6G11G16G19G 2
  21930687.0814    5367461.95346   4129465.51862
  23173977.417    -6991649.573 5  -5277260.06221
  22835483.0264   -6047059.04946  -4711982.57161
  23268717.4954   -6104644.51745  -4756867.01861
  20769839.8624    -913462.01047   -711789.43863
  21597673.300   -11137582.663 7  -8678616.21523
 91  5  1 20 22 59.9990000  0  6G18G 6G11G16G19G 2
  21937176.472     5401557.667 6   4156033.52622
  23166224.7144   -7032392.95745  -5309008.06261
  22833435.7454   -6057814.40946  -4720363.34061
  23266409.698    -6116754.529 5  -4766303.42621
  20770149.7374    -911842.50946   -710527.49763
  21589875.440   -11178550.389 7  -8710539.07223
 91  5  1 20 23 14.9990000  0  6G18G 6G11G16G19G 2
  21943679.355     5435734.145 6   4182664.46322
  23158476.6284   -7073119.77045  -5340743.17361
  22831420.159    -6068416.109 6  -4728624.38021
  23264128.6364   -6128727.15945  -4775632.76761
  20770467.7144    -910170.17247   -709224.39063
  21582097.362   -11219436.798 7  -8742398.57223
 91  5  1 20 23 29.9990000  0  6G18G 6G11G16G19G 2
  21950198.2224    5469994.94646   4209361.10262
  23150726.917    -7113826.080 5
  22829431.1284   -6078860.27246  -4736762.65061
  23261878.2844   -6140558.68245  -4784852.15661
  20770795.8944    -908441.08346   -707877.05663
  21574331.581   -11260237.978 7
 91  5  1 20 23 44.9990000  0  6G18G 6G11G16G19G 2
  21956735.7224    5504341.29146   4236124.39562
  23142984.2614   -7154510.85545
  22827474.8704   -6089145.48846  -4744777.08061
  23259657.5504   -6152247.86345  -4793960.64261
  20771134.4094    -906653.89046   -706484.44763
  21566585.558   -11300952.535 7
 91  5  1 20 23 59.9990000  0  6G18G 6G11G16G19G 2
  21963287.2534    5538767.51646   4262949.93262
  23135246.753    -7195179.357 5
  22825546.2224   -6099277.31046  -4752671.97661
  23257459.7924   -6163800.16445  -4802962.46061
  20771488.0734    -904814.19346   -705050.92763
  21558853.698   -11341586.085 7
 91  5  1 20 24 14.9990000  0  6G18G 6G11G16G19G 2
  21969852.6364    5573275.84446   4289839.43961
  23127510.823    -7235829.070 5  -5467529.41621
  22823647.636    -6109252.974 6  -4760445.18921
  23255285.167    -6175212.896 5  -4811855.51521
  20771847.3474    -902919.17147   -703574.29563
  21551134.105   -11382135.925 7  -8869176.94023
 91  5  1 20 24 29.9990000  0  6G18G 6G11G16G19G 2
  21976435.3944    5607865.32046   4316792.18061
  23119783.5344   -7276460.73845  -5499190.39061
  22821779.3154   -6119073.28146  -4768097.34061
  23253140.784    -6186487.188 5  -4820640.71221
  20772219.2224    -900969.72146   -702055.25463
  21543432.7924  -11422602.60647  -8900709.38063
 91  5  1 20 24 44.9990000  0  6G18G 6G11G16G19G 2
  21983032.2844    5642536.95646   4343808.94862
  23112048.9564   -7317073.50445  -5530836.68361
  22819940.0114   -6128737.17046  -4775627.61261
  23251020.753    -6197621.976 5  -4829317.20021
  20772598.378     -898964.607 6   -700492.84123
  21535749.409   -11462985.054 7  -8932176.17623
 91  5  1 20 24 59.9990000  0  6G18G 6G11G16G19G 2
  21989647.464     5677289.216 6   4370888.52722
  23104325.612    -7357668.359 5  -5562469.00221
  22818130.315    -6138245.657 6  -4783036.80121
  23248930.4334   -6208618.21245  -4837885.72861
  20772992.6904    -896904.97946   -698887.95063
  21528080.370   -11503284.279 7  -8963578.12923
 91  5  1 20 25 14.9990000  0  6G18G 6G11G16G19G 2
  21996273.339     5712116.061 6   4398026.22321
  23096606.0584   -7398250.99945  -5594091.76361
  22816350.105    -6147604.377 6  -4790329.28821
  23246860.940    -6219481.993 5  -4846351.03921
  20773391.4564    -894796.38146   -697244.89763
  21520426.776   -11543505.997 7  -8994919.68423
 91  5  1 20 25 29.9990000  0  6G18G 6G11G16G19G 2
  22002917.2614    5747020.42146   4425224.31362
  23088885.5034   -7438818.73845  -5625702.92761
  22814599.347    -6156810.375 6  -4797502.77921
  23244822.558    -6230210.287 5  -4854710.75321
  20773806.9484    -892636.06546   -695561.54263
  21512789.823   -11583647.320 7  -9026198.59623
 91  5  1 20 25 44.9990000  0  6G18G 6G11G16G19G 2
  22009571.8474    5782005.28146   4452485.11561
  23081167.4484   -7479368.12045  -5657299.78961
  22812872.9484   -6165860.29946  -4804554.64361
  23242803.472    -6240799.782 5  -4862962.36621
  20774223.659     -890420.512 6   -693835.14823
  21505166.292   -11623704.798 7  -9057412.17423
 91  5  1 20 25 59.9990000  0  6G18G 6G11G16G19G 2
  22016243.8704    5817073.53446   4479810.90562
  23073455.4254   -7519896.33645  -5688880.15661
  22811184.089    -6174751.074 6  -4811482.49921
  23240814.651    -6251247.774 5  -4871103.70121
  20774661.4174    -888146.75546   -692063.40163
  21497558.964   -11663675.535 7  -9088558.15723
 91  5  1 20 26 14.9990000  0  6G18G 6G11G16G19G 2
  22022935.519     5852222.165 6   4507199.33522
  23065749.542    -7560405.993 5  -5720446.07921
  22809521.894    -6183485.403 6  -4818288.44821
  23238858.3314   -6261556.97845  -4879136.85961
  20775100.8784    -885817.54246   -690248.44063
  21489969.269   -11703562.108 7  -9119638.56723
 91  5  1 20 26 29.9990000  0  6G18G 6G11G16G19G 2
  22029637.198     5887450.756 6   4534650.07022
  23058043.097    -7600897.072 5  -5751997.52321
  22807889.081    -6192063.177 6  -4824972.40421
  23236921.409    -6271727.414 5  -4887061.91121
  20775554.940     -883432.514 6   -688389.98823
  21482396.175   -11743364.389 7  -9150653.28623
 91  5  1 20 26 44.9990000  0  6G18G 6G11G16G19G 2
  22036359.3784    5922756.26746   4562160.75761
  23050342.073    -7641372.780 5  -5783536.99521
  22806286.323    -6200487.480 6  -4831536.77521
  23235013.2534   -6281762.24545  -4894881.28661
  20776017.722     -880994.847 6   -686490.51923
  21474835.9954  -11783085.42347  -9181604.70363
 91  5  1 20 26 59.9990000  0  6G18G 6G11G16G19G 2
  22043091.3864    5958136.72346   4589729.85462
  23042637.8154   -7681834.81645  -5815065.81361
  22804711.667    -6208759.984 6  -4837982.86121
  23233124.651    -6291663.117 5  -4902596.30521
  20776495.7374    -878506.28546   -684551.39563
  21467295.9874  -11822726.90947  -9212494.12963
 91  5  1 20 27 14.9990000  0  6G18G 6G11G16G19G 2
  22049839.8154    5993597.59946   4617361.61362
  23034943.0264   -7722277.38545  -5846579.47461
  22803171.105    -6216874.750 6  -4844306.03921
  23231270.753    -6301424.572 5  -4910202.67921
  20776974.933     -875961.079 6   -682568.13123
  21459765.1444  -11862283.10247  -9243317.10263
 91  5  1 20 27 29.9990000  0  6G18G 6G11G16G19G 2
  22056600.8624    6029136.78546   4645054.39961
  23027257.034    -7762702.527 5  -5878079.53621
  22801653.651    -6224833.842 6  -4850507.91321
  23229434.964    -6311048.573 5  -4917701.92821
  20777471.1984    -873361.00246   -680542.10363
  21452256.7064  -11901755.80147  -9274075.00863
 91  5  1 20 27 44.9990000  0  6G18G 6G11G16G19G 2
  22063378.7844    6064745.50446   4672801.35162
  23019558.183    -7803118.700 5  -5909572.58221
  22800167.675    -6232645.936 6  -4856595.23921
  23227625.9804   -6320543.94545  -4925100.93861
  20777973.3004    -870714.64147   -678480.01663
  21444755.6284  -11941153.63647  -9304774.58363
 91  5  1 20 27 59.9990000  0  6G18G 6G11G16G19G 2
  22070170.1904    6100433.42646   4700610.02161
  23011872.339    -7843515.860 5  -5941050.81521
  22798709.597    -6240300.744 6  -4862560.00921
  23225847.433    -6329900.428 5  -4932391.74321
  20778489.042     -868011.825 6   -676373.94023
  21437279.9404  -11980466.28247  -9335407.77463
 91  5  1 20 28 14.9990000  0  6G18G 6G11G16G19G 2
  22076973.940     6136197.550 6   4728478.06822
  23004194.198    -7883897.002 5  -5972516.59421
  22797284.1364   -6247801.21146  -4868404.52561
  23224096.050    -6339121.015 5  -4939576.68121
  20779013.558     -865255.461 6   -674226.13623
  21429812.0974  -12019696.43947  -9365976.69463
 91  5  1 20 28 29.9990000  0  6G18G 6G11G16G19G 2
  22083791.487     6172039.525 6   4756406.77821
  22996510.683    -7924260.364 5  -6003968.51021
  22795885.7144   -6255145.52746  -4874127.36661
  23222367.5424   -6348204.04245  -4946654.39461
  20779549.362     -862443.761 6   -672035.22223
  21422365.0034  -12058842.37847  -9396479.99163
 91  5  1 20 28 44.9990000  0  6G18G 6G11G16G19G 2
  22090633.972     6207969.560 6   4784404.10221
  22988832.2144   -7964595.24745  -6035398.25861
  22794519.9174   -6262322.97146  -4879720.17961
  23220672.284    -6357139.091 5  -4953616.78521
  20780095.573     -859565.909 6   -669792.75623
  21414930.2374  -12097893.59847  -9426909.47463
 91  5  1 20 28 59.9990000  0  6G18G 6G11G16G19G 2
  22097480.456     6243975.281 6   4812460.40321
  22981158.870    -8004913.859 5  -6066815.30521
  22793182.7304   -6269345.70146  -4885192.42361
  23218992.4644   -6365938.22245  -4960473.30761
  20780653.769     -856634.061 6   -667508.21823
  21407515.5894  -12136862.19347  -9457274.57663
 91  5  1 20 29 14.9990000  0  6G18G 6G11G16G19G 2
  22104352.440     6280057.099 6   4840576.00021
  22973491.425    -8045215.611 5  -6098219.21621
  22791876.6054   -6276212.98846  -4890543.54961
  23217340.8624   -6374600.89145  -4967223.46561
  20781222.276     -853647.574 6   -665181.10023
  21400116.3154  -12175747.48747  -9487574.77263
 91  5  1 20 29 29.9990000  0  6G18G 6G11G16G19G 2
  22111230.808     6316212.110 6   4868748.62921
  22965821.4954   -8085503.34345  -6129612.21761
  22790597.6284   -6282927.59346  -4895775.70561
  23215717.706    -6383130.156 5  -4973869.70821
  20781800.948     -850609.281 6   -662813.61723
  21392730.4804  -12214552.15847  -9517812.14163
 91  5  1 20 29 44.9990000  0  6G18G 6G11G16G19G 2
  22118125.940     6352445.473 6   4896982.30921
  22958164.5424   -8125771.68745  -6160990.08361
  22789351.3944   -6289484.22346  -4900884.76061
  23214125.6444   -6391520.61045  -4980407.74761
  20782389.667     -847513.581 6   -660401.40023
  21385361.9014  -12253270.76647  -9547982.45063
 91  5  1 20 29 59.9990000  0  6G18G 6G11G16G19G 2
  22125035.917     6388750.559 6   4925271.87421
  22950499.292    -8166026.869 5  -6192357.71221
  22788132.4564   -6295889.16446  -4905875.61961
  23212553.011    -6399778.473 5  -4986842.48021
  20782990.065     -844366.699 6   -657949.30023
  21378009.2844  -12291909.51147  -9578090.52963
 91  5  1 20 30 14.9990000  0  6G18G 6G11G16G19G 2
  22131956.745     6425129.623 6   4953619.08521
  22942847.2374   -8206266.43045  -6223713.15061
  22786940.2764   -6302139.89946  -4910746.31961
  23211004.659    -6407901.677 5  -4993172.28621
  20783596.644     -841166.318 6   -655455.51323
  21370672.1754  -12330465.78247  -9608134.33963
 91  5  1 20 30 29.9990000  0  6G18G 6G11G16G19G 2
  22138893.464     6461583.204 6   4982024.35221
  22935190.8084   -8246489.85545  -6255056.01161
  22785781.2224   -6308235.68846  -4915496.28861
  23209484.4014   -6415889.51145  -4999396.63461
  20784218.089     -837911.517 6   -652919.32423
  21363350.5344  -12368939.04847  -9638113.47663
 91  5  1 20 30 44.9990000  0  6G18G 6G11G16G19G 2
  22145843.8084    6498112.94246   5010488.97061
  22927541.0584   -8286695.13245  -6286384.74161
  22784652.1364   -6314174.74446  -4920124.12061
  23207995.495    -6423740.341 5  -5005514.18921
  20784846.198     -834600.517 6   -650339.34123
  21356046.9254  -12407327.42647  -9668026.46963
 91  5  1 20 30 59.9990000  0  6G18G 6G11G16G19G 2
  22152812.3554    6534716.71846   5039011.27261
  22919893.4874   -8326884.08845  -6317700.76861
  22783550.5974   -6319958.70646  -4924631.10161
  23206524.9094   -6431455.62745  -5011526.14661
  20785490.722     -831234.894 6   -647716.79823
  21348756.2534  -12445632.56447  -9697874.59863
 91  5  1 20 31 14.9990000  0  6G18G 6G11G16G19G 2
  22159792.987     6571399.315 6   5067594.99821
  22912249.105    -8367052.011 5  -6349000.38721
  22782481.0974   -6325582.88246  -4929013.57761
  23205084.1674   -6439030.80145  -5017428.92761
  20786139.706     -827810.060 6   -645048.11323
  21341484.0584  -12483849.68047  -9727654.13463
 91  5  1 20 31 29.9990000  0  6G18G 6G11G16G19G 2
  22166786.0344    6608148.11746   5096230.31261
  22904603.9644   -8407210.92245  -6380293.00861
  22781440.9254   -6331059.42046  -4933281.01261
  23203663.105    -6446478.558 5  -5023232.42221
  20786803.065     -824337.979 6   -642342.61223
  21334227.6124  -12521991.03847  -9757374.63763
 91  5  1 20 31 44.9990000  0  6G18G 6G11G16G19G 2
  22173793.159     6644971.989 6   5124924.11921
  22896968.862    -8447352.108 5  -6411571.80821
  22780427.5974   -6336379.30946  -4937426.36861
  23202273.9954   -6453790.17745  -5028929.81361
  20787471.753     -820809.686 6   -639593.30823
  21326986.3234  -12560047.38747  -9787028.90363
 91  5  1 20 31 59.9990000  0  6G18G 6G11G16G19G 2
  22180813.8944    6681867.17746   5153673.50161
  22889329.534    -8487478.782 5  -6442839.28121
  22779443.5114   -6341545.85446  -4941452.24261
  23200907.151    -6460968.430 5  -5034523.30921
  20788153.886     -817228.364 6   -636802.68523
  21319759.7924  -12598022.09547  -9816619.55263
 91  5  1 20 32 14.9990000  0  6G18G 6G11G16G19G 2
  22187849.4874    6718841.15146   5182484.27061
  22881703.472    -8527583.208 5  -6474089.43221
  22778491.6284   -6346551.33746  -4945352.61461
  23199570.8154   -6468006.01045  -5040007.17961
  20788845.378     -813586.386 6   -633964.79723
  21312549.0974  -12635907.41947  -9846140.55563
 91  5  1 20 32 29.9990000  0  6G18G 6G11G16G19G 2
  22194899.9334    6755884.42946   5211349.04361
  22874074.1514   -8567674.73045  -6505329.51961
  22777567.0344   -6351404.95846  -4949134.64961
  23198258.9954   -6474912.29445  -5045388.72761
  20789548.425     -809892.940 6   -631086.80723
  21305353.9804  -12673712.47347  -9875599.00663
 91  5  1 20 32 44.9990000  0  6G18G 6G11G16G19G 2
  22201964.9254    6793001.11246   5240271.01061
  22866445.784    -8607748.848 5  -6536556.04921
  22776674.0344   -6356102.38846  -4952794.97961
  23196969.120    -6481682.990 5  -5050664.64221
  20790261.784     -806143.406 6   -628165.10723
  21298177.3314  -12711432.94347  -9904991.54663
 91  5  1 20 32 59.9990000  0  6G18G 6G11G16G19G 2
  22209038.8394    6830193.17246   5269251.71061
  22858820.815    -8647803.770 5  -6567767.62921
  22775809.9334   -6360641.81346  -4956332.19161
  23195706.2374   -6488316.40245  -5055833.58561
  20790988.909     -802335.909 6   -625198.24423
  21291014.8784  -12749066.91147  -9934316.68463
 91  5  1 20 33 14.9990000  0  6G18G 6G11G16G19G 2
  22216128.4724    6867450.72346   5298283.44161
  22851205.026    -8687848.902 5  -6598971.58221
  22774974.1204   -6365032.67046  -4959753.63261
  23194468.737    -6494821.956 5  -5060902.91321
  20791722.706     -798479.891 7   -622193.57423
  21283869.5114  -12786623.60747  -9963581.61163
 91  5  1 20 33 29.9990000  0  6G18G 6G11G16G19G 2
  22223234.9094    6904781.41146   5327372.17261
  22843580.6514   -8727876.58445  -6630161.94361
  22774167.8554   -6369267.05646  -4963053.14561
  23193260.917    -6501191.951 5  -5065866.55921
  20792466.394     -794567.518 6   -619144.98423
  21276740.9484  -12824095.27547  -9992780.28563
 91  5  1 20 33 44.9990000  0  6G18G 6G11G16G19G 2
  22230351.1204    6942189.84646   5356521.47461
  22835974.308    -8767881.784 5  -6661334.78221
  22773394.8394   -6373340.14546  -4966226.97961
  23192072.558    -6507421.801 5  -5070721.05121
  20793222.472     -790593.902 6   -616048.67523
  21269624.3944  -12861477.12947 -10021908.96863
 91  5  1 20 33 59.9990000  0  6G18G 6G11G16G19G 2
  22237483.2844    6979669.48646   5385726.26561
  22828363.409    -8807870.869 5  -6692495.05421
  22772647.433    -6377258.187 6  -4969279.98721
  23190911.112    -6513517.684 5  -5075471.13221
  20793990.026     -786565.221 6   -612909.45823
  21262527.1204  -12898775.29747 -10050972.44263
 91  5  1 20 34 14.9990000  0  6G18G 6G11G16G19G 2
  22244629.6834    7017215.58146   5414982.83761
  22820754.5584   -8847848.42245  -6723646.34961
  22771929.3554   -6381025.86846  -4972215.83661
  23189773.7454   -6519484.17045  -5080120.41061
  20794764.144     -782485.980 6   -609730.84323
  21255444.9334  -12935994.17547 -10079974.13163
 91  5  1 20 34 29.9990000  0  6G18G 6G11G16G19G 2
  22251788.9174    7054835.97746   5444297.31061
  22813149.026    -8887806.413 5  -6754782.40321
  22771243.2844   -6384635.10446  -4975028.22361
  23188662.1444   -6525313.56545  -5084662.84661
  20795553.394     -778348.017 6   -606506.47423
  21248377.6904  -12973125.73647 -10108907.77963
 91  5  1 20 34 44.9990000  0  6G18G 6G11G16G19G 2
  22258963.4874    7092529.65746   5473668.88061
  22805550.4644   -8927745.64845  -6785903.85561
  22770587.503    -6388086.715 6  -4977717.78021
  23187579.1834   -6531006.69745  -5089099.10561
  20796352.042     -774152.078 6   -603236.92723
  21241328.3704  -13010170.85347 -10137774.06363
 91  5  1 20 34 59.9990000  0  6G18G 6G11G16G19G 2
  22266148.9564    7130300.02846   5503100.21361
  22797952.089    -8967662.315 5  -6817007.70121
  22769961.331    -6391376.934 6  -4980281.57621
  23186528.3624   -6536560.13845  -5093426.51661
  20797161.214     -769894.474 6   -599919.33223
  21234294.9404  -13047125.62647 -10166569.96363
 91  5  1 20 35 14.9990000  0  6G18G 6G11G16G19G 2
  22273349.792     7168138.711 6   5532584.76621
  22790364.839    -9007564.521 5  -6848100.28421
  22769366.5424   -6394513.78146  -4982725.86261
  23185493.198    -6541981.921 5  -5097651.30421
  20797979.972     -765583.040 6   -596559.78723
  21227277.6444  -13083998.11147 -10195301.73163
 91  5  1 20 35 29.9990000  0  6G18G 6G11G16G19G 2
  22280562.6054    7206048.28946   5562124.56861
  22782772.222    -9047449.543 5  -6879179.47121
  22768797.136    -6397494.604 6  -4985048.56521
  23184488.6754   -6547269.32845  -5101771.44361
  20798814.972     -761215.026 6   -593156.15523
  21220278.8394  -13120785.63147 -10223967.29763
 91  5  1 20 35 44.9990000  0  6G18G 6G11G16G19G 2
  22287790.1204    7244024.39146   5591716.20761
  22775185.4014   -9087321.44645  -6910248.44561
  22768258.284    -6400323.561 6  -4987252.93621
  23183506.847    -6552426.698 5  -5105790.21321
  20799654.581     -756794.523 6   -589711.62323
  21213295.7844  -13157492.19647 -10252569.77763
 91  5  1 20 35 59.9990000  0  6G18G 6G11G16G19G 2
  22295029.4014    7282063.78446   5621357.16561
  22767597.058    -9127183.388 5  -6941309.65821
  22767747.8624   -6403003.80246  -4989341.42761
  23182545.8864   -6557457.29245  -5109710.20261
  20800505.183     -752324.630 6   -586228.60623
  21206325.6204  -13194120.96647 -10281111.64163
 91  5  1 20 36 14.9990000  0  6G18G 6G11G16G19G 2
  22302282.3864    7320175.17346   5651054.22361
  22760013.355    -9167026.258 5  -6972356.02121
  22767271.0894   -6405526.27646  -4991306.98261
  23181614.8084   -6562352.13645  -5113524.42861
  20801365.401     -747796.224 6   -582699.99423
  21199370.6514  -13230662.73847 -10309585.71563
 91  5  1 20 36 29.9990000  0  6G18G 6G11G16G19G 2
  22309550.417     7358368.121 6   5680814.83021
  22752442.550    -9206840.381 5  -7003379.96921
  22766819.558    -6407881.244 6  -4993142.01221
  23180715.9874   -6567101.47445  -5117225.25361
  20802242.980     -743199.530 6   -579118.16623
  21192434.0424  -13267107.62547 -10337984.29663
 91  5  1 20 36 44.9990000  0  6G18G 6G11G16G19G 2
  22316836.503     7396658.274 6   5710651.18121
  22744872.5654   -9246609.65545  -7034368.97761
  22766409.3704   -6410052.74646  -4994834.08261
  23179840.8864   -6571689.43345  -5120800.36661
  20803130.190     -738518.553 6   -575470.67023
  21185523.5114  -13303439.80547 -10366295.04963
 91  5  1 20 36 59.9990000  0  6G18G 6G11G16G19G 2
  22324142.370     7435053.759 6   5740569.60321
  22737312.230    -9286325.788 5  -7065316.57321
  22766030.8314   -6412032.35946  -4996376.63561
  23179004.065    -6576107.929 5  -5124243.38121
  20804042.175     -733744.818 6   -571750.89623
  21178632.2374  -13339650.72447 -10394511.31663
 91  5  1 20 37 14.9990000  0  6G18G 6G11G16G19G 2
  22331459.214     7473511.122 6   5770536.24521
  22729759.7374   -9326032.31045  -7096256.68061
  22765681.019    -6413863.763 6  -4997803.69121
  23178181.5734   -6580400.57245  -5127588.36261
  20804957.901     -728921.551 6   -567992.52123
  21171754.3554  -13375783.99247 -10422667.07563
 91  5  1 20 37 29.9990000  0  6G18G 6G11G16G19G 2
  22338792.761     7512037.701 6   5800556.82521
  22722204.9724   -9365721.21845  -7127183.06861
  22765363.7224   -6415538.87646  -4999108.96461
  23177387.0584   -6584559.57245  -5130829.20261
  20805890.347     -724040.933 6   -564189.46323
  21164895.3394  -13411831.60147 -10450756.08763
 91  5  1 20 37 44.9990000  0  6G18G 6G11G16G19G 2
  22346137.636     7550633.602 6   5830631.40821
  22714658.855    -9405392.252 5  -7158095.51521
  22765074.800    -6417057.626 6  -5000292.39621
  23176623.050    -6588584.972 5  -5133965.93021
  20806826.112     -719102.647 6   -560341.46523
  21158053.9874  -13447793.27047 -10478778.13263
 91  5  1 20 37 59.9990000  0  6G18G 6G11G16G19G 2
  22353497.339     7589298.705 6   5860759.92621
  22707113.9564   -9445045.45145  -7188994.06761
  22764817.4254   -6418419.95546  -5001353.94261
  23175882.323    -6592476.426 5  -5136998.26021
  20807781.644     -714106.739 6   -556448.56523
  21151223.9874  -13483668.97047 -10506733.19263
 91  5  1 20 38 14.9990000  0  6G18G 6G11G16G19G 2
  22360865.034     7628021.796 6   5890933.62421
  22699567.7844   -9484691.93845  -7219887.39861
  22764584.0654   -6419637.14146  -5002302.39261
  23175165.7224   -6596245.51045  -5139935.26361
  20808735.769     -709064.252 6   -552519.37823
  21144410.0344  -13519469.71247 -10534629.84263
 91  5  1 20 38 29.9990000  0  6G18G 6G11G16G19G 2
  22368244.761     7666816.637 6   5921163.23821
  22692029.526    -9524317.565 5  -7250764.48621
  22764382.1364   -6420694.93946  -5003126.64361
  23174478.440    -6599878.082 5  -5142765.89121
  20809709.589     -703960.845 6   -548542.71223
  21137619.3154  -13555181.20147 -10562456.94563
 91  5  1 20 38 44.9990000  0  6G18G 6G11G16G19G 2
  22375645.050     7705682.049 6   5951447.83021
  22684490.073    -9563922.939 6  -7281625.78821
  22764211.8394   -6421594.20346  -5003827.36761
  23173811.1984   -6603375.21145  -5145490.97561
  20810690.206     -698797.206 6   -544519.11123
  21130839.1754  -13590804.21547 -10590215.10163
 91  5  1 20 38 59.9990000  0  6G18G 6G11G16G19G 2
  22383050.378     7744616.551 6   5981786.26821
  22676960.0814   -9603509.74445  -7312472.61561
  22764070.0504   -6422336.54446  -5004405.79961
  23173168.753    -6606738.583 5  -5148111.82921
  20811683.097     -693574.895 6   -540449.79223
  21124074.6904  -13626340.36047 -10617905.57463
 91  5  1 20 39 14.9990000  0  6G18G 6G11G16G19G 2
  22390473.222     7783614.693 6   6012174.29221
  22669429.7454   -9643083.14445  -7343308.98261
  22763956.9404   -6422926.99946  -5004865.89861
  23172560.308    -6609973.244 5  -5150632.39721
  20812686.753     -688298.991 6   -536338.72123
  21117327.4014  -13661794.86947 -10645532.43463
 91  5  1 20 39 29.9990000  0  6G18G 6G11G16G19G 2
  22397908.245     7822679.346 6   6042614.14121
  22661898.8154   -9682639.63745  -7374132.19061
  22763873.9724   -6423362.30746  -5005205.08961
  23171966.386    -6613076.287 5  -5153050.40721
  20813707.730     -682965.949 6   -532183.12123
  21110598.0974  -13697164.20747 -10673092.91763
 91  5  1 20 39 44.9990000  0  6G18G 6G11G16G19G 2
  22405352.315     7861807.725 6   6073103.64921
  22654372.8084   -9722182.16045  -7404944.50661
  22763822.0194   -6423645.41046  -5005425.69461
  23171395.511    -6616050.408 5  -5155367.96121
  20814729.792     -677578.632 6   -527985.23223
  21103882.0034  -13732451.15647 -10700589.20263
 91  5  1 20 39 59.9990000  0  6G18G 6G11G16G19G 2
  22412810.175     7901002.367 6   6103644.78521
  22646855.1674   -9761707.81246  -7435743.68261
  22763796.3234   -6423773.51046
  23170859.136    -6618893.261 5  -5157583.20921
  20815763.214     -672134.239 6   -523742.87023
  21097184.1754  -13767652.72447 -10728018.95963
 91  5  1 20 40 14.9980000  0  6G18G 6G11G16G19G 2
  22420281.232     7940257.822 6   6134233.31021
  22639339.537    -9801216.481 5  -7466529.63821
  22763797.9824   -6423748.94346
  23170342.1004   -6621607.01345  -5159697.85261
  20816811.115     -666635.416 6   -519458.09323
  21090503.2564  -13802768.98447 -10755382.24863
 91  5  1 20 40 29.9980000  0  6G18G 6G11G16G19G 2
  22427765.725     7979585.247 6   6164877.91421
  22631821.1394   -9840707.15945  -7497301.55161
  22763833.8504   -6423565.78246
  23169847.350    -6624186.086 5  -5161707.57421
  20817868.514     -661075.291 6   -515125.55123
  21083836.8034  -13837798.62547 -10782678.03663
 91  5  1 20 40 44.9980000  0  6G18G 6G11G16G19G 2
  22435259.459     8018973.103 6   6195569.60521
  22624311.490    -9880185.940 6  -7528064.20321
  22763899.9674   -6423232.78546
  23169382.2174   -6626639.02745  -5163619.02461
  20818936.920     -655462.945 6   -510752.31423
  21077184.6704  -13872748.02147 -10809911.29463
 91  5  1 20 40 59.9980000  0  6G18G 6G11G16G19G 2
  22442768.693     8058425.483 6   6226311.57721
  22616796.951    -9919648.647 5  -7558814.32821
  22763990.7014   -6422745.61346  -5004724.56661
  23168943.443    -6628961.639 5  -5165428.90021
  20820016.732     -649793.922 6   -506334.92222
  21070551.6544  -13907612.58147 -10837078.45963
 91  5  1 20 41 14.9980000  0  6G18G 6G11G16G19G 2
  22450285.154     8097935.572 6   6257098.51221
  22609292.7094   -9959101.73646  -7589556.96961
  22764116.1234   -6422111.02746  -5004230.09361
  23168523.9984   -6631160.93745  -5167142.66161
  20821102.0764    -644074.92446   -501878.58463
  21063932.8734  -13942399.10647 -10864184.80063
 91  5  1 20 41 29.9980000  0  6G18G 6G11G16G19G 2
  22457818.717     8137512.794 6   6287937.76921
  22601789.623    -9998535.833 6  -7620284.78821
  22764263.1704   -6421319.59446  -5003613.40161
  23168127.4984   -6633227.49045  -5168753.05561
  20822203.3424    -638296.31046   -497375.79763
  21057329.6784  -13977098.20147 -10891223.02563
 91  5  1 20 41 44.9980000  0  6G18G 6G11G16G19G 2
  22465363.7014    8177154.15446   6318826.99761
  22594287.7724  -10037953.02546  -7650999.45261
  22764441.1074   -6420373.49946  -5002876.18961
  23167766.5614   -6635163.72645  -5170261.84461
  20823313.912     -632460.292 6   -492828.27523
  21050740.8034  -14011711.83347 -10918194.64963
 91  5  1 20 41 59.9980000  0  6G18G 6G11G16G19G 2
  22472915.1074    8216853.48946   6349761.39361
  22586786.920   -10077359.559 6  -7681705.79921
  22764650.5924   -6419279.00346  -5002023.34561
  23167420.506    -6636975.993 5  -5171674.03921
  20824434.240     -626572.752 6   -488240.60723
  21044168.1154  -14046246.22547 -10945104.53863
 91  5  1 20 42 14.9980000  0  6G18G 6G11G16G19G 2
  22480484.9364    8256617.57646   6380746.24461
  22579291.4364  -10116748.50246  -7712398.45261
  22764888.4594   -6418029.40846  -5001049.63561
  23167100.8504   -6638657.43345  -5172984.30461
  20825565.326     -620626.781 6   -483607.40523
  21037615.7644  -14080694.60047 -10971947.39563
 91  5  1 20 42 29.9980000  0  6G18G 6G11G16G19G 2
  22488060.2174    8296442.99646   6411778.88861
  22571800.373   -10156123.063 6  -7743079.88521
  22765154.717    -6416627.904 6  -4999957.57521
  23166800.584    -6640211.346 5  -5174195.21521
  20826710.5224    -614625.64246   -478931.21863
  21031075.5684  -14115059.82547 -10998725.46063
 91  5  1 20 42 44.9980000  0  6G18G 6G11G16G19G 2
  22495655.0534    8336332.92346   6442861.80861
  22564309.0924  -10195479.67646  -7773747.33961
  22765452.6394   -6415071.00446  -4998744.41161
  23166529.2724   -6641634.38145  -5175304.09461
  20827861.498     -608565.864 6   -474209.33123
  21024550.2484  -14149338.54047 -11025436.11963
 91  5  1 20 42 59.9980000  0  6G18G 6G11G16G19G 2
  22503254.3504    8376283.40646   6473991.89861
  22556822.4044  -10234821.94546  -7804403.61761
  22765777.9044   -6413362.44546  -4997413.07761
  23166280.1624   -6642930.47745  -5176314.10861
  20829026.779     -602450.884 6   -469444.43723
  21018044.3034  -14183534.28847 -11052082.12363
 91  5  1 20 43 14.9980000  0  6G18G 6G11G16G19G 2
  22510870.404     8416292.287 6   6505167.51021
  22549338.217   -10274151.676 6  -7835050.10321
  22766132.053    -6411504.041 6  -4995964.98421
  23166056.6864   -6644101.59345  -5177226.72561
  20830197.287     -596282.398 6   -464637.84722
  21011555.1784  -14217648.90147 -11078664.91063
 91  5  1 20 43 29.9980000  0  6G18G 6G11G16G19G 2
  22518491.9984    8456363.70446   6536391.83961
  22541858.6074  -10313464.50445  -7865683.44261
  22766516.7874   -6409491.47546  -4994396.75961
  23165864.0614   -6645143.63245  -5178038.73961
  20831385.951     -590056.089 6   -459786.20023
  21005076.3114  -14251678.18347 -11105181.20363
 91  5  1 20 43 44.9980000  0  6G18G 6G11G16G19G 2
  22526131.6544    8496499.61346   6567666.42461
  22534380.7644  -10352758.56246  -7896302.14661
  22766927.842    -6407323.006 6  -4992707.06121
  23165685.9754   -6646054.61645  -5178748.65361
  20832579.4434    -583769.95646   -454887.94063
  20998618.7644  -14285620.05347 -11131629.38163
 91  5  1 20 43 59.9980000  0  6G18G 6G11G16G19G 2
  22533783.7094    8536696.25646   6598988.33361
  22526907.107   -10392037.300 6  -7926908.90421
  22767369.311    -6405002.111 6  -4990898.58321
  23165537.295    -6646838.305 5  -5179359.37921
  20833787.256     -577427.401 6   -449945.71223
  20992176.2724  -14319477.84947 -11158012.05063
 91  5  1 20 44 14.9980000  0  6G18G 6G11G16G19G 2
  22541442.4284    8576953.04246   6630357.11061
  22519431.928   -10431300.907 5  -7957503.87821
  22767840.928    -6402529.169 6  -4988971.63521
  23165414.272    -6647495.349 5  -5179871.40521
  20835003.7564    -571028.63246   -444959.68662
  20985748.7954  -14353251.90147 -11184329.46363
 91  5  1 20 44 29.9980000  0  6G18G 6G11G16G19G 2
  22549114.4204    8617269.01446   6661772.00661
  22511962.5684  -10470549.95146  -7988087.47861
  22768340.3894   -6399904.82146  -4986926.70361
  23165315.0144   -6648026.10945  -5180285.04861
  20836233.600     -564574.228 6   -439930.30923
  20979338.1544  -14386942.94647 -11210582.19263
 91  5  1 20 44 44.9980000  0  6G18G 6G11G16G19G 2
  22556798.4754    8657640.74046   6693230.33961
  22504501.201   -10509787.682 6  -8018662.29021
  22768866.764    -6397132.430 6  -4984766.41621
  23165242.0614   -6648433.76145  -5180602.75761
  20837472.561     -558067.280 6   -434859.98123
  20972942.4124  -14420553.89147 -11236772.51363
 91  5  1 20 44 59.9980000  0  6G18G 6G11G16G19G 2
  22564490.9044    8698075.25246   6724737.60461
  22497032.756   -10549006.856 5  -8049222.63521
  22769425.045    -6394204.769 6  -4982485.14121
  23165185.0684   -6648711.80445  -5180819.46961
  20838720.4434    -551500.44546   -429742.99563
  20966563.5534  -14454077.57547 -11262894.83263
 91  5  1 20 45 14.9980000  0  6G18G 6G11G16G19G 2
  22572197.6864    8738571.72346   6756293.15061
  22489575.3034  -10588208.16246  -8079769.07361
  22770009.326    -6391122.578 6  -4980083.45121
  23165155.8654   -6648860.82145
  20839980.2404    -544874.50646   -424579.94862
  20960199.8034  -14487514.68847 -11288949.69563
 91  5  1 20 45 29.9980000  0  6G18G 6G11G16G19G 2
  22579913.6544    8779124.29146   6787892.40261
  22482117.318   -10627397.007 6  -8110305.78321
  22770623.100    -6387891.485 6  -4977565.73621
  23165157.4514   -6648886.68245
  20841254.850     -538194.897 6   -419375.08222
  20953852.2404  -14520870.71447 -11314941.37663
 91  5  1 20 45 44.9980000  0  6G18G 6G11G16G19G 2
  22587644.3894    8819732.65746   6819535.13361
  22474662.3184  -10666573.49845  -8140832.88461
  22771267.795    -6384511.441 6  -4974931.95221
  23165168.8424   -6648789.35245
  20842534.357     -531461.412 6   -414128.23623
  20947518.9904  -14554145.56147 -11340869.80063
 91  5  1 20 45 59.9980000  0  6G18G 6G11G16G19G 2
  22595381.0764    8860400.95846   6851224.57261
  22467213.701   -10705733.149 6  -8171346.85121
  22771940.522    -6380978.327 6  -4972178.89421
  23165210.857    -6648564.557 5
  20843826.967     -524669.705 6   -408836.01623
  20941202.7724  -14587335.01247 -11366731.67663
 91  5  1 20 46 14.9980000  0  6G18G 6G11G16G19G 2
  22603132.1154    8901132.55146   6882963.32061
  22459765.748   -10744872.541 6  -8201845.03421
  22772643.639    -6377288.740 6  -4969303.91921
  23165279.701    -6648209.036 5
  20845129.654     -517816.254 6   -403495.68923
  20934904.4674  -14620435.68847 -11392524.38563
 91  5  1 20 46 29.9980000  0  6G18G 6G11G16G19G 2
  22610896.2254    8941922.82846   6914747.79261
  22452318.162   -10783995.984 6  -8232330.78021
  22773375.342    -6373446.974 6  -4966310.35821
  23165375.818    -6647727.684 5  -5180052.96521
  20846444.826     -510905.276 6   -398110.53223
  20928621.2794  -14653451.76647 -11418251.17163
 91  5  1 20 46 44.9980000  0  6G18G 6G11G16G19G 2
  22618666.7174    8982764.30646   6946572.16661
  22444872.8574  -10823110.23046  -8262809.37161
  22774132.826    -6369460.158 6  -4963203.77321
  23165484.0614   -6647127.63345  -5179585.46761
  20847770.373     -503943.776 6   -392686.00522
  20922354.0454  -14686389.97647 -11443917.28263
 91  5  1 20 46 59.9980000  0  6G18G 6G11G16G19G 2
  22626450.5294    9023658.61746   6978437.70661
  22437432.709   -10862213.919 6  -8293279.73821
  22774917.522    -6365326.792 6  -4959982.98421
  23165625.2874   -6646407.18845  -5179024.15961
  20849106.4124    -496930.00746   -387220.75663
  20916100.568   -14719248.964 7 -11469521.66123
 91  5  1 20 47 14.9980000  0  6G18G 6G11G16G19G 2
  22634243.022     9064613.810 6   7010350.67921
  22429996.490   -10901298.436 6  -8323735.16721
  22775733.545    -6361038.586 6  -4956641.55021
  23165787.5374   -6645558.10645  -5178362.58961
  20850451.3734    -489855.43246   -381708.12762
  20909863.9904  -14752020.03247 -11495057.53063
 91  5  1 20 47 29.9980000  0  6G18G 6G11G16G19G 2
  22642046.9674    9105627.82146   7042309.49661
  22422562.600   -10940365.706 6  -8354177.13421
  22776580.936    -6356597.381 6  -4953180.89221
  23165964.3734   -6644582.52245  -5177602.46061
  20851808.084     -482721.907 6   -376149.56323
  20903646.475   -14784705.142 7 -11520526.42123
 91  5  1 20 47 44.9980000  0  6G18G 6G11G16G19G 2
  22649863.6544    9146697.74346   7074311.86561
  22415126.6234  -10979418.32846  -8384607.68861
  22777454.912    -6352006.034 6  -4949603.24321
  23166181.2954   -6643483.13145  -5176745.85261
  20853176.131     -475532.007 6   -370547.07122
  20897441.7404  -14817307.12647 -11545930.53563
 91  5  1 20 47 59.9980000  0  6G18G 6G11G16G19G 2
  22657687.6624    9187823.94846   7106358.11061
  22407698.6394  -11018455.65446  -8415026.34861
  22778356.6704   -6347263.96146  -4945908.15061
  23166411.857    -6642259.615 5  -5175792.54421
  20854557.561     -468285.025 6   -364900.09923
  20891254.7724  -14849825.16147 -11571269.23963
 91  5  1 20 48 14.9980000  0  6G18G 6G11G16G19G 2
  22665523.3894    9228994.79046   7138439.12461
  22400275.2254  -11057489.05446  -8445441.94761
  22779284.5224   -6342382.58546  -4942104.50861
  23166667.9984   -6640923.32745  -5174751.34861
  20855943.2174    -460992.24246   -359217.43563
  20885077.9284  -14882270.62847 -11596551.39263
 91  5  1 20 48 29.9980000  0  6G18G 6G11G16G19G 2
  22673369.537     9270223.021 6   7170564.85321
  22392849.2644  -11096505.53746  -8475844.37661
  22780241.764    -6337349.238 6  -4938182.44421
  23166948.6074   -6639461.81545  -5173612.58161
  20857343.748     -453640.812 6   -353489.07323
  20878919.365   -14914630.658 7 -11621766.97423
 91  5  1 20 48 44.9980000  0  6G18G 6G11G16G19G 2
  22681226.4904    9311515.02946   7202740.28661
  22385426.061   -11135498.479 6  -8506228.43321
  22781231.647    -6332157.208 6  -4934136.72921
  23167250.623    -6637868.323 5  -5172370.96821
  20858752.256     -446223.977 6   -347709.74922
  20872780.6004  -14946898.42147 -11646910.65563
 91  5  1 20 48 59.9980000  0  6G18G 6G11G16G19G 2
  22689094.842     9352861.173 6   7234957.89521
  22378011.9984  -11174477.07846  -8536601.32861
  22782244.6624   -6326816.00946  -4929974.79261
  23167577.3184   -6636152.56145  -5171034.06961
  20860178.928     -438751.190 6   -341886.82723
  20866656.2174  -14979083.35347 -11671989.79663
 91  5  1 20 49 14.9980000  0  6G18G 6G11G16G19G 2
  22696971.334     9394264.840 6   7267220.32921
  22370594.6074  -11213437.74146  -8566960.24761
  22783294.436    -6321321.973 6  -4925693.74321
  23167926.506    -6634311.043 5  -5169599.21221
  20861608.826     -431218.524 6   -336017.23623
  20860548.584   -15011181.778 7 -11697001.53024
 91  5  1 20 49 29.9980000  0  6G18G 6G11G16G19G 2
  22704861.045     9435716.190 6   7299519.91621
  22363187.3894  -11252390.15046  -8597312.73261
  22784367.193    -6315684.972 6  -4921301.29421
  23168301.654    -6632353.681 5  -5168074.06421
  20863053.764     -423635.627 6   -330108.50922
  20854454.420   -15043203.288 7 -11721953.33423
 91  5  1 20 49 44.9980000  0  6G18G 6G11G16G19G 2
  22712762.670     9477226.927 6   7331865.78221
  22355774.076   -11291322.348 6  -8627649.47021
  22785467.475    -6309893.229 6  -4916788.27021
  23168691.9594   -6630268.90245  -5166449.62261
  20864507.857     -415990.552 6   -324151.32822
  20848378.600   -15075136.022 7 -11746835.95923
 91  5  1 20 49 59.9980000  0  6G18G 6G11G16G19G 2
  22720674.287     9518794.900 6   7364256.24321
  22348371.912   -11330236.032 6  -8657971.78121
  22786597.943    -6303948.653 6  -4912156.15821
  23169115.6474   -6628058.26645  -5164727.13761
  20865976.647     -408285.032 6   -318147.04823
  20842317.318   -15106981.675 7 -11771650.72523
 91  5  1 20 50 14.9980000  0  6G18G 6G11G16G19G 2
  22728593.373     9560424.049 6   7396694.37421
  22340966.8264  -11369127.01346  -8688276.40761
  22787758.131    -6297847.217 6  -4907401.81921
  23169556.943    -6625718.063 5  -5162903.64921
  20867454.303     -400514.802 6   -312092.34422
  20836275.248   -15138736.079 7 -11796394.39623
 91  5  1 20 50 29.9980000  0  6G18G 6G11G16G19G 2
  22736523.920     9602103.773 6   7429171.92221
  22333568.982   -11408005.752 6  -8718571.48621
  22788947.514    -6291599.420 6  -4902533.42221
  23170029.818    -6623258.920 5  -5160987.50421
  20868945.857     -392690.093 6   -305995.19623
  20830247.928   -15170409.695 7 -11821075.11123
 91  5  1 20 50 44.9980000  0  6G18G 6G11G16G19G 2
  22744465.201     9643827.602 6   7461683.81921
  22326173.7254  -11446878.35146  -8748861.79361
  22790162.7954   -6285211.50146  -4897555.84861
  23170517.7874   -6620687.33445  -5158983.77561
  20870440.248     -384817.042 6   -299860.36922
  20824234.506   -15202008.744 7 -11845697.72323
 91  5  1 20 50 59.9980000  0  6G18G 6G11G16G19G 2
  22752414.068     9685600.764 6   7494234.16421
  22318779.2874  -11485739.17946  -8779142.92861
  22791406.740    -6278678.084 6  -4892464.89421
  23171033.334    -6617997.683 5  -5156888.01921
  20871951.318     -376890.016 6   -293683.48822
  20818235.428   -15233527.824 7 -11870258.02624
 91  5  1 20 51 14.9980000  0  6G18G 6G11G16G19G 2
  22760372.834     9727426.879 6   7526825.76921
  22311385.0064  -11524584.41546  -8809411.91161
  22792682.936    -6271995.344 6  -4887257.58821
  23171566.397    -6615186.434 5  -5154697.51321
  20873468.389     -368905.217 6   -287461.59022
  20812254.162   -15264962.929 7 -11894752.89024
 91  5  1 20 51 29.9980000  0  6G18G 6G11G16G19G 2
  22768342.373     9769305.860 6   7559458.57121
  22303995.9824  -11563413.78946  -8839668.54161
  22793980.1474   -6265163.28946  -4881933.92261
  23172122.7404   -6612253.49545  -5152412.18461
  20874997.201     -360862.437 6   -281194.50823
  20806290.225   -15296313.879 7 -11919182.17924
 91  5  1 20 51 44.9980000  0  6G18G 6G11G16G19G 2
  22776321.2094    9811234.25846   7592129.87061
  22296612.2644  -11602230.46746  -8869915.26461
  22795307.076    -6258185.159 6  -4876496.43921
  23172703.6474   -6609202.24045  -5150034.65461
  20876539.2484    -352764.58046   -274884.51762
  20800338.373   -15327583.638 7 -11943548.20523
 91  5  1 20 51 59.9980000  0  6G18G 6G11G16G19G 2
  22784313.615     9853217.590 6   7624843.99421
  22289227.1864  -11641028.85846  -8900147.75061
  22796662.553    -6251055.498 6  -4870940.87421
  23173312.115    -6606027.380 5  -5147560.80421
  20878096.022     -344606.133 6   -268527.30722
  20794403.779   -15358766.805 7 -11967846.75824
 91  5  1 20 52 14.9980000  0  6G18G 6G11G16G19G 2
  22792309.334     9895243.488 6   7657591.26121
  22281847.3734  -11679820.98046  -8930375.33861
  22798050.2014   -6243786.53646  -4865276.76261
  23173934.2954   -6602741.45145  -5145000.43461
  20879652.412     -336399.019 6   -262132.17522
  20788483.084   -15389875.563 7 -11992087.32824
 91  5  1 20 52 29.9980000  0  6G18G 6G11G16G19G 2
  22800315.303     9937317.544 6   7690376.06821
  22274466.3114  -11718600.98746  -8960593.49661
  22799455.998    -6236372.562 6  -4859499.66421
  23174582.9124   -6599338.56545  -5142348.89461
  20881228.451     -328137.362 6   -255694.54422
  20782582.522   -15420903.960 7 -12016265.27723
 91  5  1 20 52 44.9980000  0  6G18G 6G11G16G19G 2
  22808330.178     9979436.490 6   7723195.85721
  22267088.7094  -11757371.72846  -8990804.42261
  22800896.9514   -6228816.57646  -4853611.89461
  23175247.522    -6595821.765 5  -5139608.60121
  20882807.029     -319824.125 6   -249216.71722
  20776690.467   -15451854.668 7 -12040382.69024
 91  5  1 20 52 59.9980000  0  6G18G 6G11G16G19G 2
  22816353.6394   10021599.28546   7756049.80261
  22259710.1074  -11796134.00346  -9021008.76061
  22802360.506    -6221119.534 6  -4847614.21921
  23175939.0614   -6592192.28345  -5136780.52961
  20884400.139     -311460.065 6   -242699.28522
  20770814.967   -15482728.610 7 -12064440.28624
 91  5  1 20 53 14.9980000  0  6G18G 6G11G16G19G 2
  22824382.9204   10063812.02346   7788942.67161
  22252339.4044  -11834881.54646  -9051201.61261
  22803854.553    -6213275.205 6  -4841501.76321
  23176657.2954   -6588443.98445  -5133859.82961
  20885998.826     -303038.810 6   -236137.29223
  20764956.693   -15513519.574 7 -12088433.22824
 91  5  1 20 53 29.9980000  0  6G18G 6G11G16G19G 2
  22832431.4674   10106076.31446   7821875.71161
  22244970.6784  -11873612.32146  -9081381.40661
  22805376.451    -6205281.837 6  -4835273.18721
  23177395.6154   -6584575.11845  -5130845.22161
  20887616.662     -294558.376 6   -229529.17922
  20759112.795   -15544225.571 7 -12112359.95824
 91  5  1 20 53 44.9980000  0  6G18G 6G11G16G19G 2
  22840479.0924   10148382.95446   7854841.74061
  22237599.0064  -11912335.10646  -9111554.96761
  22806921.912    -6197148.365 6  -4828935.42921
  23178146.8574   -6580594.90745  -5127743.82761
  20889239.147     -286027.532 6   -222881.79022
  20753283.209   -15574855.382 7 -12136227.32524
 91  5  1 20 53 59.9980000  0  6G18G 6G11G16G19G 2
  22848539.6234   10190738.76246   7887846.08961
  22230231.5064  -11951042.97046  -9141716.90961
  22808497.045    -6188868.062 6  -4822483.25421
  23178931.975    -6576496.318 5  -5124550.19821
  20890873.951     -277439.242 6   -216189.63522
  20747471.303   -15605402.091 7 -12160029.93624
 91  5  1 20 54 14.9980000  0  6G18G 6G11G16G19G 2
  22856609.943    10233140.777 6   7920886.42621
  22222871.873   -11989738.745 6  -9171869.42621
  22810102.834    -6180443.841 6  -4815918.94221
  23179731.584    -6572282.154 5  -5121266.54721
  20892517.076     -268796.143 6   -209454.77822
  20741674.795   -15635868.509 7 -12183769.97824
 91  5  1 20 54 29.9980000  0  6G18G 6G11G16G19G 2
  22864686.4124   10275591.48246   7953964.71261
  22215508.967   -12028419.265 6  -9202010.04621
  22811734.318    -6171872.884 6
  23180556.756    -6567950.048 5  -5117890.96121
  20894174.420     -260095.267 6
  20735892.100   -15666251.702 7 -12207445.17724
 91  5  1 20 54 44.9980000  0  6G18G 6G11G16G19G 2
  22872773.272    10318086.519 6   7987077.54221
  22208152.3574  -12067088.72846  -9232142.06061
  22813392.857    -6163159.343 6
  23181401.2094   -6563504.03645  -5114426.62861
  20895838.404     -251340.632 6
  20730126.756   -15696555.737 7 -12231058.68924
 91  5  1 20 54 59.9980000  0  6G18G 6G11G16G19G 2
  22880871.4044   10360631.87046   8020229.57861
  22200798.2644  -12105740.83746  -9262260.55861
  22815075.607    -6154297.230 6
  23182273.6074   -6558938.54145  -5110869.19161
  20897516.834     -242526.171 6
  20724374.717   -15726774.453 7 -12254605.72124
 91  5  1 20 55 14.9980000  0  6G18G 6G11G16G19G 2
  22888972.584    10403220.603 6   8053415.41621
  22193443.6864  -12144382.47346  -9292370.88961
  22816789.6934   -6145293.61846  -4788529.20161
  23183157.7014   -6554260.49545  -5107224.06761
  20899204.0844    -233658.48646   -182074.87662
  20718641.311   -15756914.794 7 -12278091.68124
 91  5  1 20 55 29.9980000  0  6G18G 6G11G16G19G 2
  22897087.092    10445856.200 6   8086637.76421
  22186090.7014  -12183009.82146  -9322470.08161
  22818530.045    -6136144.898 6  -4781400.33521
  23184074.490    -6549466.463 5  -5103488.53721
  20900904.279     -224733.790 6   -175120.59022
  20712919.107   -15786972.951 7 -12301513.60324
 91  5  1 20 55 44.9980000  0  6G18G 6G11G16G19G 2
  22905207.6544   10488536.85046   8119895.23461
  22178743.9434  -12221624.20746  -9352559.18261
  22820297.764    -6126852.607 6  -4774159.59921
  23185006.6934   -6544557.91045  -5099663.74561
  20902611.326     -215753.445 6   -168122.94122
  20707213.897   -15816950.327 7 -12324872.57624
 91  5  1 20 55 59.9980000  0  6G18G 6G11G16G19G 2
  22913338.498    10531261.336 6   8153186.84121
  22171396.4984  -12260226.63046  -9382638.95961
  22822096.1784   -6117417.73846  -4766807.76461
  23185961.0064   -6539536.00245  -5095750.67161
  20904333.756     -206718.418 6   -161082.68822
  20701524.764   -15846847.884 7 -12348169.35324
 91  5  1 20 56 14.9980000  0  6G18G 6G11G16G19G 2
  22921479.873    10574029.762 6   8186512.70521
  22164052.6314  -12298816.75846  -9412709.16261
  22823917.3504   -6107840.26546  -4759344.79861
  23186944.678    -6534400.604 5  -5091749.16121
  20906059.412     -197628.344 6   -153999.53622
  20695851.303   -15876665.513 7 -12371403.85324
 91  5  1 20 56 29.9980000  0  6G18G 6G11G16G19G 2
  22929628.373    10616837.528 6   8219869.20121
  22156714.193   -12337398.673 6  -9442772.96921
  22825764.9904   -6098124.57946  -4751774.14461
  23187936.084    -6529156.123 5  -5087662.64421
  20907802.943     -188487.373 6   -146876.72222
  20690192.303   -15906407.293 7 -12394579.24524
 91  5  1 20 56 44.9980000  0  6G18G 6G11G16G19G 2
  22937782.334    10659690.702 6   8253261.09021
  22149374.5684  -12375966.37446  -9472825.68361
  22827644.4284   -6088264.70146  -4744091.12561
  23188959.326    -6523797.119 5  -5083486.87321
  20909548.3184    -179289.35246   -139709.45862
  20684547.139   -15936067.071 7 -12417690.73724
 91  5  1 20 56 59.9980000  0  6G18G 6G11G16G19G 2
  22945944.670    10702589.031 6   8286688.16421
  22142035.8184  -12414519.56546  -9502867.10061
  22829545.2874   -6078260.68446  -4736295.80461
  23189997.7324   -6518323.39045  -5079221.74261
  20911314.045     -170033.942 6   -132497.47222
  20678919.725   -15965644.733 7 -12440738.24724
 91  5  1 20 57 14.9980000  0  6G18G 6G11G16G19G 2
  22954116.897    10745534.338 6   8320151.83821
  22134707.350   -12453056.117 6  -9532895.53121
  22831478.0144   -6068110.45546  -4728386.54061
  23191067.201    -6512733.112 5  -5074865.76021
  20913083.834     -160719.046 6   -125239.13622
  20673304.709   -15995137.949 7 -12463719.95623
 91  5  1 20 57 29.9980000  0  6G18G 6G11G16G19G 2
  22962296.670    10788517.621 6   8353645.11321
  22127370.8654  -12491584.58346  -9562917.69161
  22833434.451    -6057822.907 6  -4720370.28321
  23192150.709    -6507035.198 5  -5070425.91221
  20914869.092     -151353.386 6   -117941.24622
  20667710.459   -16024555.624 7 -12486642.79924
 91  5  1 20 57 44.9980000  0  6G18G 6G11G16G19G 2
  22970482.748    10831545.008 5   8387172.74821
  22120044.8974  -12530098.79446  -9592928.72561
  22835420.7724   -6047392.06646  -4712242.36861
  23193252.373    -6501223.402 5  -5065897.34521
  20916659.1704    -141930.70746   -110598.92562
  20662125.404   -16053891.576 7 -12509501.96324
 91  5  1 20 57 59.9980000  0  6G18G 6G11G16G19G 2
  22978682.6934   10874617.33745   8420735.40761
  22112716.2954  -12568597.68746  -9622927.83561
  22837433.9594   -6036816.90746  -4704001.98561
  23194387.498    -6495296.959 5  -5061279.40421
  20918464.2874    -132449.81346   -103211.25062
  20656558.850   -16083144.678 7 -12532296.57024
 91  5  1 20 58 14.9980000  0  6G18G 6G11G16G19G 2
  22986882.9984   10917731.92945   8454330.98861
  22105394.0294  -12607083.51346  -9652916.75361
  22839471.428    -6026099.907 6  -4695651.09021
  23195527.795    -6489258.478 5  -5056574.17921
  20920278.8974    -122912.96246    -95779.96962
  20651008.514   -16112317.356 7 -12555028.50824
 91  5  1 20 58 29.9980000  0  6G18G 6G11G16G19G 2
  22995096.232    10960889.820 5   8487960.31521
  22098074.8344  -12645554.66946  -9682894.24961
  22841537.8894   -6015239.81246  -4687188.68961
  23196698.7564   -6483106.91645  -5051780.83461
  20922106.0294    -113318.50046    -88303.79462
  20645472.584   -16141408.154 7 -12577696.64224
 91  5  1 20 58 44.9980000  0  6G18G 6G11G16G19G 2
  23003316.8574   11004090.96745   8521623.35061
  22090752.0764  -12684011.23746  -9712860.37861
  22843630.4044   -6004236.75546  -4678614.88561
  23197894.272    -6476842.533 5  -5046899.60221
  20923941.8974    -103666.40246    -80782.71262
  20639952.357   -16170417.093 7 -12600300.99523
 91  5  1 20 58 59.9980000  0  6G18G 6G11G16G19G 2
  23011546.0294   11047330.67645   8555316.42161
  22083441.834   -12722457.567 6  -9742818.53421
  22845751.256    -5993095.242 6  -4669933.21321
  23199107.311    -6470469.884 5  -5041933.99021
  20925789.1544     -93961.01246    -73220.09962
  20634445.482   -16199348.409 7 -12622844.85423
 91  5  1 20 59 14.9980000  0  6G18G 6G11G16G19G 2
  23019785.670    11090620.121 5   8589048.26021
  22076125.826   -12760882.021 6  -9772759.63221
  22847899.873    -5981803.908 6  -4661134.78721
  23200343.9124   -6463977.43345  -5036875.03561
  20927648.7094     -84190.94146    -65607.08862
  20628957.732   -16228190.711 7 -12645319.36424
 91  5  1 20 59 29.9980000  0  6G18G 6G11G16G19G 2
  23028028.8734   11133948.10545   8622810.11661
  22068818.1784  -12799295.66646  -9802692.31861
  22850076.748    -5970374.002 6  -4652228.39021
  23201605.342    -6457376.640 5  -5031731.66421
  20929518.8424     -74367.29246    -57952.32862
  20623484.881   -16256955.084 7 -12667733.13224
 91  5  1 20 59 44.9980000  0  6G18G 6G11G16G19G 2
  23036284.826    11177320.481 5   8656606.57721
  22061510.1394  -12837692.25346  -9832611.69661
  22852278.701    -5958799.547 6  -4643209.35221
  23202880.4514   -6450661.53445  -5026499.21261
  20931398.8344     -64483.40646    -50250.63362
  20618026.381   -16285635.277 7 -12690081.31023
 91  5  1 20 59 59.9980000  0  6G18G 6G11G16G19G 2
  23044546.7874   11220737.02045   8690437.43161
  22054208.0144  -12876071.61746  -9862517.65461
  22854508.553    -5947080.627 6  -4634077.74721
  23204178.7014   -6443832.56845  -5021178.05861
  20933291.014      -54539.231 6    -42501.95122
  20612585.295   -16314231.241 7 -12712363.85724
 91  5  1 21  0 14.9980000  0  6G18G 6G11G16G19G 2
  23052813.592    11264194.593 5   8724300.27921
  22046903.2014  -12914436.65946  -9892412.44961
  22856766.1624   -5935220.40646  -4624836.03161
  23205494.967    -6436892.720 5  -5015770.47221
  20935192.5294     -44537.64346    -34708.53262
  20607160.490   -16342745.775 7 -12734582.95524
 91  5  1 21  0 29.9980000  0  6G18G 6G11G16G19G 2
  23061094.4124   11307689.23045   8758191.99761
  22039607.2254  -12952791.05546  -9922298.95561
  22859051.256    -5923222.660 6  -4615487.15821
  23206835.498    -6429845.878 5  -5010279.49921
  20937106.8034     -34482.33546    -26873.26362
  20601746.529   -16371182.778 7 -12756741.64024
 91  5  1 21  0 44.9980000  0  6G18G 6G11G16G19G 2
  23069373.865    11351221.269 5   8792112.86121
  22032309.0764  -12991134.18946  -9952176.69861
  22861356.0144   -5911087.16946  -4606030.96061
  23208198.2174   -6422691.70745  -5004704.91061
  20939031.045      -24372.745 6    -18995.68722
  20596352.514   -16399541.825 7 -12778839.58124
 91  5  1 21  0 59.9980000  0  6G18G 6G11G16G19G 2
  23077665.490    11394798.201 5   8826068.71121
  22025018.170   -13029458.251 6  -9982039.57621
  22863694.607    -5898806.181 6  -4596461.38121
  23209581.857    -6415422.917 5  -4999041.01921
  20940966.8814     -14200.93746    -11069.63262
  20590972.522   -16427815.169 7 -12800870.73623
 91  5  1 21  1 14.9980000  0  6G18G 6G11G16G19G 2
  23085972.600    11438412.098 5   8860053.35321
  22017726.943   -13067770.845 6 -10011893.51621
  22866059.3894   -5886387.56546  -4586784.56961
  23210984.2254   -6408047.06345  -4993293.68361
  20942912.1784      -3974.60646     -3101.09862
  20585605.537   -16456010.174 7 -12822840.84724
 91  5  1 21  1 29.9980000  0  6G18G 6G11G16G19G 2
  23094273.256    11482059.599 5   8894064.18521
  22010436.7324  -13106075.09246 -10041740.95361
  22868447.4824   -5873834.69046  -4577003.13561
  23212406.6864   -6400567.81045  -4987465.78761
  20944869.5224       6303.06246      4907.43862
  20580255.053   -16484130.118 7 -12844752.46924
 91  5  1 21  1 44.9980000  0  6G18G 6G11G16G19G 2
  23102590.5144   11525748.12245   8928106.98861
  22003149.5844  -13144363.22146 -10071575.82361
  22870862.584    -5861140.008 6  -4567111.20521
  23213854.147    -6392977.670 5  -4981551.46221
  20946834.4904      16639.95446     12962.12962
  20574917.303   -16512167.332 7 -12866599.62923
 91  5  1 21  1 59.9980000  0  6G18G 6G11G16G19G 2
  23110907.076    11569475.109 5   8962179.73821
  21995869.0534  -13182637.40046 -10101399.82861
  22873306.342    -5848305.916 6  -4557110.63421
  23215313.3034   -6385278.95945  -4975552.55461
  20948815.0454      27033.95346     21061.31762
  20569598.889   -16540124.171 7 -12888384.15624
 91  5  1 21  2 14.9980000  0  6G18G 6G11G16G19G 2
  23119236.943    11613237.211 5   8996279.88121
  21988586.5614  -13220900.61146 -10131215.28961
  22875773.1314   -5835335.64446  -4547003.97061
  23216800.5454   -6377475.23645  -4969471.82461
  20950802.1934      37481.98846     29202.61362
  20564293.553   -16568003.742 7 -12910108.47324
 91  5  1 21  2 29.9980000  0  6G18G 6G11G16G19G 2
  23127572.2324   11657043.59045   9030414.50361
  21981311.3734  -13259143.47746 -10161014.89261
  22878269.7174   -5822220.05746  -4536784.04861
  23218313.5374   -6369557.11645  -4963301.95961
  20952804.0144      47993.39546     37393.29162
  20559003.303   -16595796.547 7 -12931765.18624
 91  5  1 21  2 44.9980000  0  6G18G 6G11G16G19G 2
  23135912.350    11700885.575 5   9064576.87921
  21974036.8264  -13297374.38546 -10190805.18261
  22880792.147    -5808967.793 6  -4526457.62921
  23219841.092    -6361533.415 5  -4957049.79521
  20954810.7644      58559.87746     45626.88662
  20553730.850   -16623511.107 7 -12953360.92424
 91  5  1 21  2 59.9980000  0  6G18G 6G11G16G19G 2
  23144268.4754   11744769.46845   9098771.91661
  21966761.4364  -13335586.74446 -10220581.00161
  22883339.2724   -5795572.34146  -4516019.65761
  23221388.053    -6353397.891 5  -4950710.51021
  20956839.256       69188.051 6     53908.54822
  20548472.076   -16651140.771 7 -12974890.51124
 91  5  1 21  3 14.9980000  0  6G18G 6G11G16G19G 2
  23152625.865    11788716.900 5   9133016.45221
  21959497.7564  -13373758.45546 -10250325.15961
  22885918.8504   -5782011.95846  -4505453.15361
  23222965.982    -6345128.715 5  -4944267.07521
  20958874.9514      79899.88846     62255.40762
  20543235.795   -16678663.469 7 -12996336.74823
 91  5  1 21  3 29.9980000  0  6G18G 6G11G16G19G 2
  23161042.326    11832917.028 5   9167457.90821
  21952276.928   -13411700.137 6 -10279890.06021
  22888566.787    -5768097.583 6  -4494610.80421
  23224591.3654   -6336536.97645  -4937572.32361
  20960967.3814      90884.83646     70815.07762
  20538054.8574  -16705890.02647 -13017552.21964
 91  5  1 21  3 44.9980000  0  6G18G 6G11G16G19G 2
  23169461.2094   11877159.64945   9201932.45361
  21945062.1624  -13449621.47346 -10309439.11761
  22891243.022    -5754039.136 6  -4483656.20621
  23226247.779    -6327832.647 5  -4930789.79621
  20963066.6004     101933.20146     79424.16662
  20532889.209   -16733030.304 7 -13038700.46424
 91  5  1 21  3 59.9980000  0  6G18G 6G11G16G19G 2
  23177885.295    11921443.996 5   9236439.52621
  21937850.943   -13487523.253 6 -10338972.93121
  22893945.4754   -5739837.56346  -4472590.08061
  23227926.045    -6319016.738 5  -4923920.33621
  20965181.9904     113044.34846     88082.17262
  20527739.8654  -16760085.26847 -13059782.23164
 91  5  1 21  4 14.9980000  0  6G18G 6G11G16G19G 2
  23186320.287    11965759.559 5   9270970.93821
  21930642.1474  -13525415.57446 -10368499.37461
  22896674.2874   -5725503.11746  -4461420.41761
  23229621.912    -6310099.392 5  -4916971.85621
  20967306.0764     124208.16246     96781.22062
  20522605.904   -16787064.787 7 -13080805.21124
 91  5  1 21  4 29.9980000  0  6G18G 6G11G16G19G 2
  23194764.467    12010118.419 5   9305536.05521
  21923432.0534  -13563285.82446 -10398008.62061
  22899428.8184   -5711023.54746  -4450137.66861
  23231340.514    -6301068.507 5  -4909934.89921
  20969446.897      135437.141 6    105531.04822
  20517491.326   -16813956.474 7 -13101759.74924
 91  5  1 21  4 44.9980000  0  6G18G 6G11G16G19G 2
  23203212.4204   12054514.88845   9340130.48961
  21916232.7724  -13601139.62346 -10427505.04861
  22902213.1544   -5696404.73246  -4438746.42561
  23233084.076    -6291930.271 5  -4902814.25521
  20971589.1394     146725.75246    114327.33762
  20512389.037   -16840765.934 7 -13122650.21724
 91  5  1 21  4 59.9980000  0  6G18G 6G11G16G19G 2
  23211663.7484   12098941.21945   9374748.19961
  21909024.9824  -13638984.26246 -10456994.33361
  22905019.5684   -5681654.21246  -4427252.54061
  23234839.9904   -6282691.94345  -4895615.65161
  20973747.1234     158066.65546    123164.37362
  20507301.326   -16867500.494 7 -13143482.31824
 91  5  1 21  5 14.9980000  0  6G18G 6G11G16G19G 2
  23220125.1394   12143400.42845   9409391.51961
  21901827.3974  -13676816.59846 -10486474.04661
  22907849.2644   -5666769.11246  -4415653.80261
  23236623.2404   -6273350.69045  -4888336.84261
  20975917.342      169462.970 6    132044.59222
  20502227.436   -16894157.106 7 -13164253.67924
 91  5  1 21  5 29.9980000  0  6G18G 6G11G16G19G 2
  23228591.873    12187896.123 5   9444063.27321
  21894633.943   -13714632.635 6 -10515941.03821
  22910708.639    -5651745.767 6  -4403947.33421
  23238418.568    -6263902.740 5  -4880974.88721
  20978098.8974     180918.71246    140971.11462
  20497168.529   -16920731.861 7 -13184961.25724
 91  5  1 21  5 44.9980000  0  6G18G 6G11G16G19G 2
  23237068.2324   12232424.92345   9478760.80661
  21887437.061   -13752435.212 6 -10545397.54621
  22913596.0294   -5636587.12646  -4392135.43961
  23240230.8974   -6254351.67945  -4873532.57161
  20980287.990      192431.081 6    149941.76122
  20492128.389   -16947227.803 7 -13205607.42024
 91  5  1 21  5 59.9980000  0  6G18G 6G11G16G19G 2
  23245545.295    12276987.801 5   9513484.91521
  21880251.084   -13790222.948 6 -10574842.49821
  22916506.1704   -5621292.18046  -4380217.34461
  23242070.451    -6244696.753 5  -4866009.33621
  20982489.8574     204001.30446    158957.49462
  20487101.686   -16973643.643 7 -13226191.17124
 91  5  1 21  6 14.9980000  0  6G18G 6G11G16G19G 2
  23254030.8344   12321583.59145   9548234.65661
  21873061.1154  -13827996.91746 -10604276.72161
  22919439.5294   -5605862.25246  -4368194.06561
  23243927.6784   -6234938.93045  -4858405.92361
  20984700.7954     215628.39846    168017.53362
  20482091.225   -16999980.356 7 -13246713.25824
 91  5  1 21  6 29.9980000  0  6G18G 6G11G16G19G 2
  23262530.193    12366219.796 5   9583015.87521
  21865876.8894  -13865749.37746 -10633694.18061
  22922404.5144   -5590289.86546  -4356059.76861
  23245807.397    -6225070.517 5  -4850716.37621
  20986927.0224     227320.22746    177128.02062
  20477094.6864  -17026230.43247 -13267167.84064
 91  5  1 21  6 44.9980000  0  6G18G 6G11G16G19G 2
  23271025.506    12410888.352 5   9617822.31921
  21858695.459   -13903487.925 6 -10663100.79121
  22925394.2174   -5574583.04246  -4343820.73261
  23247699.8574   -6215099.79745  -4842947.06961
  20989161.639      239069.034 6    186282.90422
  20472115.162   -17052401.613 7 -13287560.94124
 91  5  1 21  6 59.9980000  0  6G18G 6G11G16G19G 2
  23279536.2324   12455594.82345   9652658.30061
  21851517.436   -13941206.738 6 -10692492.03321
  22928408.936    -5558736.277 6  -4331472.64921
  23249619.3574   -6205021.07045  -4835093.60761
  20991412.4824     250880.57746    195486.67562
  20467150.342   -17078488.158 7 -13307888.09624
 91  5  1 21  7 14.9980000  0  6G18G 6G11G16G19G 2
  23288047.7954   12500327.80445   9687514.93761
  21844343.764   -13978916.992 6 -10721876.60821
  22931447.912    -5542760.781 6  -4319024.26221
  23251558.8114   -6194845.67045  -4827164.80761
  20993666.9284     262743.67746    204730.62862
  20462201.014   -17104501.356 7 -13328158.09724
 91  5  1 21  7 29.9980000  0  6G18G 6G11G16G19G 2
  23296566.139    12545095.182 5   9722398.37721
  21837168.740   -14016610.404 6 -10751248.05421
  22934515.928    -5526648.451 6  -4306469.23721
  23253511.5144   -6184565.87845  -4819154.68761
  20995938.1704     274666.91146    214021.42762
  20457264.607   -17130432.741 7 -13348364.34724
 91  5  1 21  7 44.9980000  0  6G18G 6G11G16G19G 2
  23305093.607    12589899.302 5   9757310.44521
  21829999.4984  -14054283.95346 -10780604.03161
  22937607.607    -5510396.720 6  -4293805.58921
  23255491.717    -6174179.188 5  -4811061.25121
  20998217.5924     286653.15346    223361.32362
  20452347.232   -17156279.679 7 -13368504.79424
 91  5  1 21  7 59.9980000  0  6G18G 6G11G16G19G 2
  23313625.193    12634736.057 5   9792247.93921
  21822831.8114  -14091941.69346 -10809947.68161
  22940724.951    -5494009.991 6  -4281036.74221
  23257485.7254   -6163689.81945  -4802887.80461
  21000509.9514     298698.27346    232747.10262
  20447444.178   -17182046.161 7 -13388582.54924
 91  5  1 21  8 14.9980000  0  6G18G 6G11G16G19G 2
  23322161.7254   12679602.69545   9827208.71061
  21815670.842   -14129586.150 6 -10839280.98121
  22943869.764    -5477490.988 6  -4268164.84721
  23259501.7484   -6153100.87545  -4794636.78161
  21002812.3344     310799.90846    242176.92062
  20442556.772   -17207734.645 7 -13408599.52724
 91  5  1 21  8 29.9980000  0  6G18G 6G11G16G19G 2
  23330709.092    12724492.721 5   9862187.72921
  21808508.334   -14167223.363 6 -10868608.63921
  22947036.803    -5460846.008 6  -4255194.77921
  23261537.6624   -6142418.90445  -4786313.24861
  21005127.0064     322951.73946    251645.84562
  20437682.600   -17233351.390 7 -13428560.60024
 91  5  1 21  8 44.9980000  0  6G18G 6G11G16G19G 2
  23339255.756    12769418.054 5   9897194.23321
  21801349.5844  -14204841.06946 -10897921.10061
  22950230.3114   -5444063.04346  -4242117.18261
  23263591.592    -6131631.621 5  -4777907.66821
  21007450.3344     335166.18646    261163.56962
  20432822.326   -17258884.224 7 -13448456.29124
 91  5  1 21  8 59.9980000  0  6G18G 6G11G16G19G 2
  23347809.975    12814374.430 5   9932224.93621
  21794193.7954  -14242443.39546 -10927221.57661
  22953447.1234   -5427146.52246  -4228935.52061
  23265663.0534   -6120743.37145  -4769423.41661
  21009785.4984     347439.16846    270726.89362
  20427979.967   -17284337.387 7 -13468289.90224
 91  5  1 21  9 14.9980000  0  6G18G 6G11G16G19G 2
  23356370.568    12859359.523 5   9967278.02921
  21787040.1234  -14280032.21946 -10956511.53161
  22956694.3344   -5410098.56446  -4215651.43261
  23267752.4824   -6109756.57245  -4760862.37261
  21012130.5614     359768.70146    280334.29762
  20423150.498   -17309712.800 7 -13488062.92624
 91  5  1 21  9 29.9980000  0  6G18G 6G11G16G19G 2
  23364936.3264   12904372.57545  10002352.89761
  21779889.9124  -14317607.75246 -10985791.13361
  22959963.904    -5392919.736 6  -4202265.38121
  23269861.1234   -6098671.78045  -4752224.96461
  21014488.8184     372154.43646    289985.48462
  20418334.475   -17335010.959 7 -13507775.74924
 91  5  1 21  9 44.9980000  0  6G18G 6G11G16G19G 2
  23373508.7254   12949409.22545  10037446.13261
  21772742.936   -14355174.030 6 -11015063.51821
  22963255.9904   -5375614.28546  -4188780.65561
  23271992.2794   -6087493.19245  -4743514.46561
  21016852.6004     384592.37046    299677.34362
  20413536.732   -17360235.853 7 -13527431.48724
 91  5  1 21  9 59.9980000  0  6G18G 6G11G16G19G 2
  23382088.1934   12994476.24945  10072563.06361
  21765594.0224  -14392724.13246 -11044323.29861
  22966574.740    -5358175.597 6  -4175192.10921
  23274131.662    -6076214.383 5  -4734725.89221
  21019234.5374     397089.49146    309415.32062
  20408752.287   -17385380.673 7 -13547024.82524
 91  5  1 21 10 14.9980000  0  6G18G 6G11G16G19G 2
  23390667.2794   13039576.68545  10107706.00661
  21758454.9434  -14430254.71846 -11073567.86761
  22969920.639    -5340600.628 6  -4161497.37821
  23276298.7174   -6064832.11845  -4725856.68361
  21021621.4984     409649.13146    319202.02162
  20403980.967   -17410442.186 7 -13566553.25024
 91  5  1 21 10 29.9980000  0  6G18G 6G11G16G19G 2
  23399249.951    13084702.221 5  10142868.52721
  21751315.990   -14467773.761 6 -11102803.43721
  22973289.014    -5322897.745 6  -4147702.97021
  23278487.482    -6053355.026 5  -4716913.59421
  21024024.8504     422263.27046    329031.19062
  20399226.725   -17435428.456 7 -13586023.04924
 91  5  1 21 10 44.9980000  0  6G18G 6G11G16G19G 2
  23407847.7174   13129860.31645  10178056.39461
  21744176.357   -14505273.332 6 -11132023.84221
  22976680.928    -5305059.344 6  -4133802.96721
  23280688.475    -6041775.713 5  -4707890.86821
  21026435.7094     434939.67846    338908.87762
  20394488.7254  -17460331.47247 -13605427.97464
 91  5  1 21 10 59.9980000  0  6G18G 6G11G16G19G 2
  23416447.7014   13175045.63345  10213265.48161
  21737043.5534  -14542758.65846 -11161233.14761
  22980102.693    -5287090.708 6  -4119801.48621
  23282908.5374   -6030099.38445  -4698792.52261
  21028858.1394     447673.32846    348831.17062
  20389762.982   -17485156.885 7 -13624772.42824
 91  5  1 21 11 14.9980000  0  6G18G 6G11G16G19G 2
  23425047.2404   13220258.14645  10248495.76661
  21729913.7404  -14580229.18846 -11190430.92961
  22983544.904    -5268991.705 6  -4105698.41121
  23285150.459    -6018325.946 5  -4689618.52221
  21031294.4044     460464.78946    358798.50962
  20385056.084   -17509904.186 7 -13644056.01624
 91  5  1 21 11 29.9980000  0  6G18G 6G11G16G19G 2
  23433657.389    13265497.971 5  10283747.33921
  21722787.248   -14617684.725 6 -11219617.01721
  22987015.6784   -5250762.45546  -4091493.83061
  23287415.4284   -6006455.40745  -4680368.84361
  21033737.6394     473314.17346    368810.98262
  20380361.647   -17534573.245 7 -13663278.63424
 91  5  1 21 11 44.9980000  0  6G18G 6G11G16G19G 2
  23442275.506    13310765.620 5  10319020.58221
  21715663.404   -14655124.221 6 -11248790.61621
  22990509.092    -5232402.194 6  -4077187.18721
  23289686.6624   -5994487.38445  -4671043.20361
  21036195.5294     486222.47646    378869.36762
  20375681.693   -17559163.091 7 -13682439.53024
 91  5  1 21 11 59.9980000  0  6G18G 6G11G16G19G 2
  23450888.498    13356055.967 5  10354311.50221
  21708539.3424  -14692552.44046 -11277955.42861
  22994026.9364   -5213915.93146  -4062782.34161
  23291978.240    -5982426.933 5  -4661645.55321
  21038660.7794     499184.86046    388969.89562
  20371015.865   -17583678.579 7 -13701542.48424
 91  5  1 21 12 14.9980000  0  6G18G 6G11G16G19G 2
  23459514.647    13401367.594 5  10389619.02621
  21701419.1474  -14729970.42146 -11307112.26061
  22997569.029    -5195305.092 6  -4048280.42421
  23294295.5454   -5970275.09445  -4652176.69961
  21041138.1234     512200.32746    399111.78662
  20366365.115   -17608120.946 8 -13720588.46324
 91  5  1 21 12 29.9980000  0  6G18G 6G11G16G19G 2
  23468139.951    13446707.569 5  10424948.61621
  21694302.7094  -14767370.77246 -11336255.35461
  23001135.428    -5176562.692 6  -4033675.99321
  23296628.326    -5958025.312 5  -4642631.47521
  21043626.4434     525276.17446    409300.72262
  20361727.717   -17632482.756 8 -13739571.66924
 91  5  1 21 12 44.9980000  0  6G18G 6G11G16G19G 2
  23476772.3974   13492072.04845  10460297.29161
  21687189.6624  -14804757.04546 -11365387.48261
  23004725.365    -5157692.601 6  -4018972.05921
  23298975.365    -5945681.321 5  -4633012.89421
  21046125.4284     538408.89346    419533.98062
  20357109.139   -17656767.692 7 -13758494.97424
 91  5  1 21 12 59.9980000  0  6G18G 6G11G16G19G 2
  23485414.0144   13537463.87045  10495667.31061
  21680077.8654  -14842126.16946 -11394506.24061
  23008342.725    -5138691.936 6  -4004166.39821
  23301348.4674   -5933240.47945  -4623318.82561
  21048638.4674     551601.68246    429814.03862
  20352502.037   -17680972.872 8 -13777356.12824
 91  5  1 21 13 14.9980000  0  6G18G 6G11G16G19G 2
  23494061.4284   13582884.10945  10531059.44661
  21672969.0614  -14879476.75446 -11423610.55761
  23011983.7794   -5119559.64946  -3989258.15161
  23303731.6704   -5920701.53945  -4613548.28061
  21051158.0844     564855.83346    440141.91362
  20347911.451   -17705096.905 8 -13796154.05424
 91  5  1 21 13 29.9980000  0  6G18G 6G11G16G19G 2
  23502704.2874   13628332.76245  10566473.69561
  21665867.0684  -14916808.16446 -11452699.92761
  23015647.811    -5100295.452 6  -3974247.13221
  23306137.764    -5908064.627 5  -4603701.41621
  21053694.1074     578171.73446    450517.90962
  20343336.576   -17729139.342 8 -13814888.39824
 91  5  1 21 13 44.9980000  0  6G18G 6G11G16G19G 2
  23511358.600    13673804.147 5  10601905.69921
  21658763.5844  -14954126.02646 -11481778.75161
  23019336.803    -5080905.279 6  -3959137.93121
  23308559.0764   -5895335.71945  -4593782.88561
  21056236.2644     591543.90346    460937.74962
  20338774.998   -17753105.868 8 -13833563.59424
 91  5  1 21 13 59.9980000  0  6G18G 6G11G16G19G 2
  23520019.287    13719297.978 5  10637355.16121
  21651666.6314  -14991430.26146 -11510846.95161
  23023051.725    -5061389.468 6  -3943930.84821
  23310998.623    -5882514.728 5  -4583792.56821
  21058793.2484     604972.34046    471401.43362
  20334228.639   -17776996.562 8 -13852179.69224
 91  5  1 21 14 14.9980000  0  6G18G 6G11G16G19G 2
  23528678.9364   13764823.36845  10672829.24761
  21644571.9594  -15028711.03946 -11539896.87061
  23026790.5684   -5041738.32546  -3928618.29361
  23313455.514    -5869592.278 5  -4573723.22721
  21061361.1154     618466.98546    481916.70562
  20329698.850   -17800801.651 8 -13870729.09424
 91  5  1 21 14 29.9980000  0  6G18G 6G11G16G19G 2
  23537349.647    13810369.786 4  10708319.69021
  21637480.2254  -15065978.93546 -11568936.75461
  23030552.561    -5021962.930 6  -3913208.94021
  23315928.975    -5856579.516 5  -4563583.49021
  21063941.865      632017.222 6    492475.30522
  20325183.623   -17824532.047 8 -13889220.28724
 91  5  1 21 14 44.9980000  0  6G18G 6G11G16G19G 2
  23546017.4434   13855944.35744  10743832.04861
  21630393.0224  -15103226.57946 -11597960.86061
  23034342.225    -5002056.186 6  -3897697.21021
  23318426.514    -5843469.348 5  -4553367.85021
  21066530.2954     645630.43346    503082.97262
  20320682.967   -17848180.311 8 -13907647.48424
 91  5  1 21 14 59.9980000  0  6G18G 6G11G16G19G 2
  23554694.4284   13901539.93344  10779360.81661
  21623305.7174  -15140460.52646 -11626974.29461
  23038153.2484   -4982024.81046  -3882088.38361
  23320939.787    -5830268.520 5  -4543081.61421
  21069132.1784     659299.68646    513734.30262
  20316198.654   -17871753.125 8 -13926015.89124
 91  5  1 21 15 14.9980000  0  6G18G 6G11G16G19G 2
  23563375.8974   13947154.49444  10814904.34561
  21616220.8574  -15177682.41946 -11655978.32861
  23041989.639    -4961870.754 6  -3866383.95721
  23323469.8184   -5816979.19245  -4532726.34661
  21071741.5684     673023.55946    524428.20262
  20311723.686   -17895252.328 8 -13944326.93424
 91  5  1 21 15 29.9980000  0  6G18G 6G11G16G19G 2
  23572061.6704   13992795.39744  10850468.40661
  21609141.537   -15214884.585 6 -11684966.98421
  23045849.4754   -4941586.82046  -3850578.31761
  23326016.7014   -5803594.30345  -4522296.67761
  21074369.4904     686809.74046    535170.64462
  20307270.303   -17918670.396 8 -13962574.76024
 91  5  1 21 15 44.9980000  0  6G18G 6G11G16G19G 2
  23580745.975    14038455.036 4  10886047.11421
  21602065.9044  -15252074.43346 -11713946.04961
  23049731.904    -4921180.792 6  -3834677.55621
  23328579.787    -5790121.457 5  -4511798.44421
  21076998.9364     700650.57546    545955.67762
  20302827.459   -17942014.822 8 -13980765.20224
 91  5  1 21 15 59.9980000  0  6G18G 6G11G16G19G 2
  23589442.764    14084139.166 4  10921644.82821
  21594992.943   -15289245.848 6 -11742910.74621
  23053640.5224   -4900646.87746  -3818677.13161
  23331163.342    -5776554.588 5  -4501226.95021
  21079645.201      714552.177 6    556788.06722
  20298401.272   -17965279.471 8 -13998893.47624
 91  5  1 21 16 14.9980000  0  6G18G 6G11G16G19G 2
  23598137.5924   14129848.61344  10957262.31961
  21587922.5454  -15326397.30446 -11771859.89461
  23057571.0374   -4879983.77846  -3802576.05261
  23333758.850    -5762893.167 5  -4490581.77821
  21082302.1314     728516.07546    567668.99562
  20293988.576   -17988463.007 8 -14016958.54724
 91  5  1 21 16 29.9980000  0  6G18G 6G11G16G19G 2
  23606840.0374   14175567.80544  10992887.37061
  21580853.9594  -15363544.21746 -11800805.50161
  23061523.9984   -4859207.36646  -3786386.68361
  23336371.107    -5749152.779 5  -4479875.09021
  21084968.9124     742526.72846    578586.35562
  20289588.420   -18011581.093 8 -14034972.62024
 91  5  1 21 16 44.9980000  0  6G18G 6G11G16G19G 2
  23615545.8264   14221314.87144  11028534.16661
  21573788.4284  -15400668.17546 -11829733.22961
  23065504.7644   -4838299.57546  -3770094.93161
  23339001.451    -5735315.495 5  -4469092.88321
  21087646.4984     756602.60046    589554.53562
  20285203.287   -18034615.320 8 -14052921.34824
 91  5  1 21 16 59.9980000  0  6G18G 6G11G16G19G 2
  23624262.7644   14267086.86344  11064200.38961
  21566730.0844  -15437771.66746 -11858645.00462
  23069508.0614   -4817263.05746  -3753702.87061
  23341658.3574   -5721383.84045  -4458237.12761
  21090341.0924     770741.33046    600571.69462
  20280837.889   -18057568.350 8 -14070806.80424
 91  5  1 21 17 14.9980000  0  6G18G 6G11G16G19G 2
  23632966.873    14312878.494 4  11099881.91321
  21559671.3814  -15474859.68546 -11887544.72461
  23073536.2794   -4796103.21646  -3737214.73061
  23344330.920    -5707363.410 5  -4447312.25221
  21093040.1394     784937.86846    611633.89762
  20276485.084   -18080445.364 8 -14088633.02824
 91  5  1 21 17 29.9980000  0  6G18G 6G11G16G19G 2
  23641692.1474   14358691.50244  11135580.05461
  21552618.5224  -15511930.45246 -11916431.00061
  23077582.506    -4774818.601 6  -3720629.35921
  23347007.3344   -5693252.94345  -4436317.17661
  21095752.8424     799193.87146    622742.43062
  20272146.568   -18103244.580 8 -14106398.62824
 91  5  1 21 17 44.9980000  0  6G18G 6G11G16G19G 2
  23650417.178    14404526.508 4  11171295.36521
  21545565.6704  -15548982.75046 -11945302.88661
  23081659.967    -4753408.482 6  -3703946.20421
  23349717.5454   -5679051.77145  -4425251.43161
  21098475.0294     813510.57646    633898.27462
  20267821.217   -18125965.049 8 -14124102.86824
 91  5  1 21 17 59.9980000  0  6G18G 6G11G16G19G 2
  23659136.3574   14450384.27943  11207028.42761
  21538518.7724  -15586015.38646 -11974159.44362
  23085757.7644   -4731871.94046  -3687164.51961
  23352432.186    -5664758.623 5
  21101211.0924     827889.09546
  20263514.647   -18148605.694 8 -14141744.90824
 91  5  1 21 18 14.9980000  0  6G18G 6G11G16G19G 2
  23667866.6474   14496264.19144  11242778.70861
  21531476.8034  -15623028.60346 -12003000.87861
  23089877.6074   -4710209.57846  -3670284.79661
  23355164.2794   -5650374.39645
  21103959.8574     842329.05246
  20259221.943   -18171166.884 8 -14159325.03624
 91  5  1 21 18 29.9980000  0  6G18G 6G11G16G19G 2
  23676605.7014   14542163.65044  11278544.24861
  21524436.0924  -15660024.54446 -12031828.84661
  23094027.482    -4688423.883 6  -3653308.96321
  23357922.834    -5635901.483 5
  21106718.9514     856828.51446
  20254942.600   -18193650.739 8 -14176844.90124
 91  5  1 21 18 44.9980000  0  6G18G 6G11G16G19G 2
  23685337.5454   14588080.23443  11314323.10961
  21517397.6544  -15697005.27446 -12060644.96761
  23098195.342    -4666517.199 6  -3636238.87121
  23360693.225    -5621342.227 5
  21109489.1624     871385.29746    678995.33962
  20250675.373   -18216059.505 8 -14194306.25424
 91  5  1 21 18 59.9980000  0  6G18G 6G11G16G19G 2
  23694085.678    14634013.235 4  11350114.76921
  21510365.7014  -15733971.50346 -12089449.78561
  23102386.600    -4644490.630 6  -3619075.36221
  23363478.100    -5606698.158 5
  21112270.1314     885998.63546
  20246426.397   -18238394.001 8 -14211709.73324
 91  5  1 21 19 14.9980000  0  6G18G 6G11G16G19G 2
  23702833.287    14679964.060 4  11385920.32621
  21503330.8504  -15770921.28146 -12118241.78261
  23106599.5924   -4622342.70246  -3601817.29061
  23366282.404    -5591967.440 5
  21115061.9674     900670.24646
  20242190.436   -18260652.589 8 -14229054.06524
 91  5  1 21 19 29.9980000  0  6G18G 6G11G16G19G 2
  23711576.318    14725931.336 4  11421738.74321
  21496304.3034  -15807855.46146 -12147021.62561
  23110836.5924   -4600074.54046  -3584465.51461
  23369109.545    -5577151.231 5        -0.05931
  21117865.9284     915399.33346    713291.89362
  20237969.068   -18282835.941 8 -14246339.77024
 91  5  1 21 19 44.9980000  0  6G18G 6G11G16G19G 2
  23720326.178    14771915.337 4  11457570.13821
  21489279.8574  -15844773.63646 -12175788.99961
  23115097.482    -4577686.061 6  -3567019.98121
  23371943.4824   -5562249.61445     11611.47261
  21120678.8034     930186.32646    724814.19062
  20233762.732   -18304943.877 8 -14263566.71324
 91  5  1 21 19 59.9970000  0  5G 6G11G16G19G 2
  21482257.8454  -15881668.81746 -12204538.45661
  23119380.118    -4555174.645 6  -3549478.65221
  23374794.3924   -5547259.58045     23291.91661
  21123505.0324     945034.52646    736384.18562
  20229570.235   -18326970.578 8 -14280730.35624
 91  5  1 21 20 14.9970000  0  5G 6G11G16G19G 2
  21475238.5644  -15918552.04646 -12233278.60261
  23123688.610    -4532543.673 6  -3531844.17621
  23377666.1034   -5532185.61145     35037.75961
  21126339.1494     959940.01246    747998.81962
  20225396.243   -18348925.350 8 -14297837.94724
 91  5  1 21 20 29.9970000  0  5G 6G11G16G19G 2
  21468225.2044  -15955416.40146 -12262004.04261
  23128017.064    -4509790.579 6  -3514114.54021
  23380547.673    -5517024.657 5     46851.38621
  21129189.4934     974905.98446    759660.57662
  20221231.110   -18370802.501 8 -14314885.05224
 91  5  1 21 20 44.9970000  0  5G 6G11G16G19G 2
  21461211.5174  -15992262.31146 -12290715.10561
  23132370.782    -4486916.155 6  -3496290.36721
  23383445.1424   -5501777.46345     58732.21361
  21132048.376      989932.013 6    771369.14822
  20217082.353   -18392602.373 8 -14331871.94424
 91  5  1 21 20 59.9970000  0  5G 6G11G16G19G 2
  21454204.5794  -16029090.38346 -12319412.26761
  23136745.735    -4463921.396 6  -3478372.42721
  23386366.454    -5486445.114 5     70679.39521
  21134922.8684    1005017.55846    783124.08362
  20212947.360   -18414325.881 8 -14348799.32824
 91  5  1 21 21 14.9970000  0  5G 6G11G16G19G 2
  21447199.7674  -16065901.63946 -12348096.32661
  23141147.5014   -4440807.68946  -3460361.78361
  23389302.548    -5471029.155 5     82691.70721
  21137800.4394    1020161.56346    794924.58062
  20208827.939   -18435974.271 8 -14365668.18024
 91  5  1 21 21 29.9970000  0  5G 6G11G16G19G 2
  21440196.6654  -16102695.97946 -12376767.20962
  23145567.892    -4417575.279 6  -3442258.65521
  23392251.2594   -5455529.85245     94768.97761
  21140696.0094    1035363.95346    806770.56762
  20204724.712   -18457547.291 8 -14382478.30324
 91  5  1 21 21 44.9970000  0  5G 6G11G16G19G 2
  21433196.3454  -16139484.18846 -12405433.31161
  23150008.064    -4394235.280 6  -3424071.68521
  23395215.767    -5439958.374 5    106902.48621
  21143595.1034    1050613.94946    818653.64962
  20200631.173   -18479055.828 8 -14399238.17824
 91  5  1 21 21 59.9970000  0  5G 6G11G16G19G 2
  21426200.1344  -16176255.97546 -12434086.61162
  23154472.6104   -4370777.91546  -3405793.26761
  23398191.673    -5424304.874 5    119099.87821
  21146508.3064    1065921.76546    830581.78562
  20196552.5954  -18500489.85948 -14415939.99364
 91  5  1 21 22 14.9970000  0  5G 6G11G16G19G 2
  21419205.9464  -16213006.51346 -12462723.36461
  23158957.1034   -4347198.72246  -3387419.90661
  23401182.962    -5408564.933 4    131364.66421
  21149432.1034    1081292.09046    842558.62762
  20192489.298   -18521844.737 8 -14432580.13624
 91  5  1 21 22 29.9970000  0  5G 6G11G16G19G 2
  21412213.9784  -16249740.70446 -12491347.37462
  23163468.5484   -4323503.02246  -3368955.77061
  23404191.6894   -5392743.95644    143692.56961
  21152371.5714    1096720.06746    854580.39262
  20188438.407   -18543125.756 8 -14449162.72324
 91  5  1 21 22 44.9970000  0  5G 6G11G16G19G 2
  21405229.2744  -16286459.97246 -12519959.75262
  23167997.5564   -4299692.44146  -3350402.13261
  23407220.5014   -5376843.55244    156082.37461
  21155313.3534    1112204.09446    866645.83562
  20184402.837   -18564334.175 8 -14465688.74424
 91  5  1 21 22 59.9970000  0  5G 6G11G16G19G 2
  21398247.2674  -16323162.77146 -12548559.30362
  23172554.2904   -4275765.89046  -3331758.09161
  23410266.610    -5360862.802 4    168534.77721
  21158273.1734    1127745.71646    878756.15062
  20180380.642   -18585468.607 8 -14482157.10624
 91  5  1 21 23 14.9970000  0  5G 6G11G16G19G 2
  21391261.1574  -16359856.60246 -12577151.87061
  23177126.3684   -4251731.27546  -3313029.84561
  23413327.595    -5344809.474 4    181043.76421
  21161238.8374    1143337.48246    890905.54262
  20176371.556   -18606536.741 8 -14498573.81124
 91  5  1 21 23 29.9970000  0  5G 6G11G16G19G 2
  21384280.9394  -16396533.45046 -12605731.20462
  23181722.3844   -4227580.92546  -3294211.42861
  23416395.1424   -5328676.37444    193614.87961
  21164219.6894    1158987.18846    903100.08362
  20172376.462   -18627530.902 8 -14514932.87724
 91  5  1 21 23 44.9970000  0  5G 6G11G16G19G 2
  21377308.1814  -16433189.48946 -12634294.31362
  23186340.1494   -4203311.49646  -3275300.25361
  23419480.4154   -5312459.76244    206251.08861
  21167207.5014    1174698.65246    915342.74362
  20168399.235   -18648447.319 8 -14531231.35924
 91  5  1 21 23 59.9970000  0  5G 6G11G16G19G 2
  21370336.3994  -16469828.03446 -12662843.79661
  23190981.556    -4178926.569 6  -3256299.03621
  23422575.7284   -5296163.05944    218949.70561
  21170210.282     1190468.677 6    927631.02922
  20164431.743   -18669289.191 8 -14547471.75824
 91  5  1 21 24 14.9970000  0  5G 6G11G16G19G 2
  21363365.6814  -16506449.44546 -12691379.91862
  23195641.228    -4154426.901 6  -3237208.39421
  23425701.1574   -5279787.34744    231709.92061
  21173220.8374    1206296.77746    939964.58262
  20160478.657   -18690057.270 8 -14563654.65224
 91  5  1 21 24 29.9970000  0  5G 6G11G16G19G 2
  21356398.7824  -16543053.88846 -12719902.81762
  23200326.5014   -4129813.11346  -3218028.87661
  23428823.3454   -5263333.17145    244531.23161
  21176245.212     1222182.568 6    952343.07722
  20156540.634   -18710751.919 8 -14579780.33324
 91  5  1 21 24 44.9970000  0  5G 6G11G16G19G 2
  21349439.735   -16579634.272 6 -12748406.97722
  23205033.782    -4105078.391 6  -3198755.12321
  23431972.899    -5246794.080 4    257418.73621
  21179278.7904    1238133.11846    964772.03762
  20152615.282   -18731366.140 7 -14595843.34124
 91  5  1 21 24 59.9970000  0  5G 6G11G16G19G 2
  21342481.2434  -16616197.83046 -12776898.02762
  23209761.4314   -4080230.43346  -3179393.10761
  23435143.1424   -5230177.39645    270366.67661
  21182324.6894    1254141.42846    977246.00462
  20148707.571   -18751907.099 8 -14611849.26024
 91  5  1 21 25 14.9970000  0  5G 6G11G16G19G 2
  21335527.5564  -16652738.22346 -12805371.02362
  23214512.4234   -4055263.21946  -3159938.18061
  23438313.4394   -5213477.48744    283379.46861
  21185383.524     1270213.545 6    989769.69322
  20144814.962   -18772368.810 8 -14627793.42924
 91  5  1 21 25 29.9970000  0  5G 6G11G16G19G 2
  21328577.0244  -16689262.74046 -12833831.65262
  23219286.5014   -4030184.49146  -3140396.35961
  23441507.384    -5196701.888 4    296451.26621
  21188455.954     1286342.107 6   1002337.36022
  20140934.845   -18792758.723 8 -14643681.65624
 91  5  1 21 25 44.9970000  0  5G 6G11G16G19G 2
  21321630.5484  -16725766.04846 -12862275.74862
  23224079.5484   -4004989.29546  -3120763.76861
  23444711.985    -5179845.896 5    309585.70321
  21191536.6814    1302532.40446   1014953.13562
  20137070.868   -18813071.733 8 -14659509.95724
 91  5  1 21 25 59.9970000  0  5G 6G11G16G19G 2
  21314691.0094  -16762244.08846 -12890700.16362
  23228898.3294   -3979673.95646  -3101037.55961
  23447938.704    -5162905.732 5    322785.75321
  21194627.782     1318788.582 6   1027620.24422
  20133219.509   -18833303.891 8 -14675275.25024
 91  5  1 21 26 14.9970000  0  5G 6G11G16G19G 2
  21307751.8844  -16798703.70546 -12919110.21962
  23233735.4074   -3954245.86346  -3081223.50261
  23451172.2744   -5145888.60545    336045.75061
  21197733.032     1335103.358 6   1040333.01422
  20129383.196   -18853462.143 8 -14690982.96024
 91  5  1 21 26 29.9970000  0  5G 6G11G16G19G 2
  21300815.4234  -16835145.15546 -12947506.11862
  23238596.681    -3928705.496 6  -3061321.93421
  23454427.3604   -5128795.39345    349364.99661
  21200849.3294    1351476.54746   1053091.30262
  20125561.540   -18873546.865 8 -14706633.37324
 91  5  1 21 26 44.9970000  0  5G 6G11G16G19G 2
  21293887.3534  -16871564.87946 -12975885.08462
  23243475.829    -3903049.655 6  -3041330.43221
  23457695.3144   -5111623.06545    362745.93261
  21203977.1104    1367911.70346   1065897.87862
  20121754.243   -18893554.588 8 -14722223.79124
 91  5  1 21 26 59.9970000  0  5G 6G11G16G19G 2
  21286957.7674  -16907967.69346 -13004250.87662
  23248381.579    -3877283.738 6  -3021253.14821
  23460972.157    -5094376.782 5    376184.47621
  21207117.5954    1384403.89446   1078748.89862
  20117962.274   -18913490.446 8 -14737758.20724
 91  5  1 21 27 14.9970000  0  5G 6G11G16G19G 2
  21280035.7984  -16944351.18546 -13032601.60562
  23253304.024    -3851405.703 6  -3001088.45721
  23464268.9624   -5077054.52145    389682.26661
  21210263.399     1400955.648 6   1091646.32722
  20114182.751   -18933352.212 8 -14753234.88924
 91  5  1 21 27 29.9970000  0  5G 6G11G16G19G 2
  21273114.1894  -16980715.40146 -13060937.32362
  23258249.610    -3825415.872 6  -2980836.70021
  23467585.5244   -5059656.85945    403238.74961
  21213428.6184    1417566.75846   1104590.01362
  20110415.579   -18953140.068 8 -14768653.97924
 91  5  1 21 27 44.9970000  0  5G 6G11G16G19G 2
  21266201.9544  -17017053.73946 -13089252.87462
  23263218.7904   -3799308.10746  -2960493.02561
  23470907.782    -5042177.478 4    416858.89121
  21216598.056     1434243.731 6   1117585.01922
  20106665.939   -18972847.622 8 -14784010.49824
 91  5  1 21 27 59.9970000  0  5G 6G11G16G19G 2
  21259290.2744  -17053374.36946 -13117554.63062
  23268208.8684   -3773091.09646  -2940064.23161
  23474251.978    -5024625.243 4    430535.84521
  21219787.5714    1450978.28446   1130624.89462
  20102926.782   -18992483.266 8 -14799310.98224
 91  5  1 21 28 14.9970000  0  5G 6G11G16G19G 2
  21252380.7744  -17089676.48946 -13145841.96062
  23273219.360    -3746764.314 6  -2919549.92421
  23477603.1814   -5006999.38244    444270.16461
  21222979.4624    1467771.15146   1143710.21062
  20099204.876   -19012046.261 8 -14814554.85823
 91  5  1 21 28 29.9970000  0  5G 6G11G16G19G 2
  21245476.5794  -17125959.88146 -13174114.69962
  23278252.6344   -3720328.04246  -2898950.26261
  23480966.306    -4989300.575 3    458061.32221
  21226188.3604    1484622.39346   1156841.00962
  20095497.610   -19031536.576 8 -14829742.10024
 91  5  1 21 28 44.9970000  0  5G 6G11G16G19G 2
  21238577.7044  -17162213.49146 -13202364.23162
  23283303.314    -3693771.531 6  -2878256.91921
  23484361.9394   -4971517.92843    471917.81861
  21229403.774     1501543.064 6   1170025.90322
  20091804.298   -19050943.331 8 -14844864.22823
 91  5  1 21 28 59.9970000  0  4G 6G11G19G 2
  21231683.6734  -17198445.75346 -13230597.12862
  23288378.6574   -3667103.60946  -2857476.79561
  21232637.7594    1518524.60346   1183258.24062
  20088125.032   -19070274.880 8 -14859927.75824
 91  5  1 21 29 14.9970000  0  4G 6G11G19G 2
  21224791.1574  -17234658.81846 -13258815.07162
  23293472.0404   -3640326.92046  -2836611.89961
  21235879.751     1535564.803 6   1196536.27322
  20084461.329   -19089533.789 8 -14874934.68223
 91  5  1 21 29 29.9970000  0  4G 6G11G19G 2
  21217905.9394  -17270847.07946 -13287013.68362
  23298590.462    -3613436.422 6  -2815658.32121
  21239138.7514    1552669.21546   1209864.35462
  20080811.993   -19108714.542 8 -14889880.70624
 91  5  1 21 29 44.9970000  0  4G 6G11G19G 2
  21211021.1034  -17307015.70646 -13315196.99662
  23303726.212    -3586437.579 6  -2794620.27521
  21242401.5794    1569832.71346   1223238.46462
  20077176.884   -19127822.503 8 -14904770.01123
 91  5  1 21 29 59.9970000  0  4G 6G11G19G 2
  21204144.274   -17343162.574 6 -13343363.36222
  23308886.485    -3559328.603 6  -2773496.44121
  21245678.3764    1587057.22146   1236660.12462
  20073553.595   -19146855.772 8 -14919601.11124
 91  5  1 21 30 14.9970000  0  4G 6G11G19G 2
  21197271.5094  -17379287.73446 -13371512.80562
  23314065.5484   -3532109.98246  -2752287.19961
  21248967.204     1604342.595 6   1250129.20322
  20069944.306   -19165814.616 8 -14934374.22124
 91  5  1 21 30 29.9970000  0  4G 6G11G19G 2
  21190400.9394  -17415384.29146 -13399639.96662
  23319266.2824   -3504775.28146  -2730987.47561
  21252269.4074    1621695.70246   1263651.06662
  20066352.314   -19184692.344 8 -14949084.12123
 91  5  1 21 30 44.9970000  0  4G 6G11G19G 2
  21183535.7044  -17451458.02146 -13427749.33862
  23324489.634    -3477330.702 6  -2709602.13321
  21255585.0874    1639110.74746   1277221.19662
  20062775.782   -19203494.895 8 -14963735.44623
 91  5  1 21 30 59.9970000  0  4G 6G11G19G 2
  21176675.626   -17487505.784 6 -13455838.47322
  23329732.7984   -3449773.51846  -2688129.03761
  21258911.3534    1656590.71846   1290841.91562
  20059210.962   -19222219.193 8 -14978325.78824
 91  5  1 21 31 14.9970000  0  4G 6G11G19G 2
  21169819.0564  -17523536.35146 -13483914.20962
  23334997.009    -3422112.933 6  -2666575.37721
  21262246.751     1674126.664 6   1304506.24822
  20055661.493   -19240874.242 8 -14992862.17323
 91  5  1 21 31 29.9970000  0  4G 6G11G19G 2
  21162968.8214  -17559538.24546 -13511967.60462
  23340281.8294   -3394337.96346  -2644932.61461
  21265596.978     1691729.910 6   1318223.02122
  20052127.814   -19259448.704 8 -15007335.76323
 91  5  1 21 31 44.9970000  0  4G 6G11G19G 2
  21156122.5484  -17595516.89746 -13540002.88762
  23345588.0644   -3366454.36846  -2623205.20361
  21268958.923     1709395.005 6   1331987.99422
  20048605.532   -19277948.198 8 -15021750.93323
 91  5  1 21 31 59.9970000  0  4G 6G11G19G 2
  21149281.8214  -17631480.49847 -13568026.44062
  23350913.681    -3338470.785 6  -2601399.84321
  21272332.6264    1727113.80046   1345794.80862
  20045096.962   -19296381.185 8 -15036114.28724
 91  5  1 21 32 14.9970000  0  4G 6G11G19G 2
  21142439.2594  -17667423.10346 -13596033.63462
  23356261.321    -3310381.888 6  -2579512.44321
  21275712.103     1744892.144 6   1359648.02622
  20041605.149   -19314741.880 8 -15050421.30323
 91  5  1 21 32 29.9970000  0  4G 6G11G19G 2
  21135603.3374  -17703341.27046 -13624021.78962
  23361625.6034   -3282184.42046  -2557540.43761
  21279110.509     1762733.265 6   1373550.15522
  20038125.985   -19333026.926 8 -15064669.37623
 91  5  1 21 32 44.9970000  0  4G 6G11G19G 2
  21128774.1494  -17739232.06046 -13651988.60762
  23367011.7514   -3253875.87046  -2535481.84961
  21282518.8684    1780640.04246   1387503.45362
  20034659.439   -19351233.582 8 -15078856.36423
 91  5  1 21 32 59.9970000  0  4G 6G11G19G 2
  21121947.8294  -17775104.04446 -13679940.76362
  23372418.712    -3225465.359 5  -2513343.80521
  21285935.3294    1798603.82446   1401501.16662
  20031208.337   -19369370.518 8 -15092989.03023
 91  5  1 21 33 14.9970000  0  4G 6G11G19G 2
  21115125.1734  -17810957.70346 -13707878.64862
  23377842.165    -3196953.776 5  -2491127.06821
  21289365.360     1816624.075 6   1415542.87322
  20027770.0174  -19387438.51848 -15107067.97963
 91  5  1 21 33 29.9970000  0  4G 6G11G19G 2
  21108306.1894  -17846786.04546 -13735796.80062
  23383288.048    -3168334.584 6  -2468826.44221
  21292808.235     1834707.611 6   1429633.89722
  20024347.767   -19405430.806 8 -15121087.92824
 91  5  1 21 33 44.9970000  0  4G 6G11G19G 2
  21101494.8994  -17882591.79946 -13763697.34962
  23388756.6424   -3139610.89246  -2446444.39161
  21296258.376     1852851.602 6   1443772.02722
  20020937.970   -19423350.374 8 -15135051.21323
 91  5  1 21 33 59.9970000  0  4G 6G11G19G 2
  21094685.3374  -17918370.99946 -13791577.20962
  23394243.8924   -3110779.15446  -2423978.12961
  21299728.235     1871059.999 6   1457960.34222
  20017541.993   -19441193.224 8 -15148954.72223
 91  5  1 21 34 14.9970000  0  4G 6G11G19G 2
  21087883.2204  -17954123.81646 -13819436.51462
  23399751.759    -3081840.094 6  -2401428.23321
  21303198.790     1889332.540 6   1472198.64022
  20014160.251   -19458959.840 8 -15162798.82523
 91  5  1 21 34 29.9970000  0  4G 6G11G19G 2
  21081084.3294  -17989844.19346 -13847270.54062
  23405277.228    -3052788.020 6  -2378790.29821
  21306689.368     1907675.234 6   1486491.60022
  20010795.720   -19476644.359 8 -15176578.95623
 91  5  1 21 34 44.9970000  0  4G 6G11G19G 2
  21074290.5714  -18025546.49346 -13875090.47362
  23410826.228    -3023637.775 6  -2356075.85921
  21310193.0714    1926073.55746   1500827.91662
  20007442.837   -19494261.290 8 -15190306.41924
 91  5  1 21 34 59.9970000  0  4G 6G11G19G 2
  21067500.6654  -18061225.37946 -13902892.16862
  23416391.290    -2994384.542 5  -2333281.16521
  21313704.603     1944532.878 6   1515211.75321
  20004104.2674  -19511805.38148 -15203977.13763
 91  5  1 21 35 14.9970000  0  4G 6G11G19G 2
  21060716.4934  -18096874.50246 -13930670.67362
  23421978.696    -2965022.440 6  -2310401.64821
  21317231.071     1963059.276 6   1529647.85821
  20000781.431   -19529270.604 8 -15217586.38323
 91  5  1 21 35 29.9970000  0  4G 6G11G19G 2
  21053938.7354  -18132492.84546 -13958425.19162
  23427589.181    -2935550.731 6  -2287436.71421
  21320769.274     1981653.730 6   1544136.99822
  19997474.0564  -19546656.17248 -15231133.56863
 91  5  1 21 35 44.9970000  0  4G 6G11G19G 2
  21047165.1654  -18168086.94446 -13986160.82362
  23433213.642    -2905976.357 6  -2264391.79921
  21324317.0014    2000309.45046   1558673.88562
  19994178.3454  -19563968.83348 -15244623.94363
 91  5  1 21 35 59.9970000  0  4G 6G11G19G 2
  21040395.3214  -18203658.28246 -14013878.71262
  23438863.4854   -2876301.26746  -2241268.37261
  21327881.009     2019025.062 6   1573257.43822
  19990897.1734  -19581210.15248 -15258058.72863
 91  5  1 21 36 14.9970000  0  4G 6G11G19G 2
  21033632.3924  -18239197.89146 -14041571.88062
  23444530.2904   -2846517.14345  -2218059.94661
  21331454.665     2037809.253 6   1587894.41922
  19987631.321   -19598371.455 8 -15271431.16123
 91  5  1 21 36 29.9970000  0  4G 6G11G19G 2
  21026875.2124  -18274711.14546 -14069244.50962
  23450218.3924   -2816629.66245  -2194771.07861
  21335042.524     2056656.705 6   1602580.69722
  19984381.0794  -19615458.31148 -15284745.58363
 91  5  1 21 36 44.9970000  0  4G 6G11G19G 2
  21020123.7984  -18310195.11247 -14096894.31662
  23455926.4544   -2786636.50546  -2171399.82961
  21338640.165     2075570.159 6   1617318.40121
  19981143.4234  -19632468.02348 -15297999.89563
 91  5  1 21 36 59.9970000  0  4G 6G11G19G 2
  21013373.8294  -18345660.32946 -14124529.51762
  23461650.821    -2756548.555 5  -2147954.70821
  21342250.665     2094538.878 6   1632099.17521
  19977920.3064  -19649411.19348 -15311202.35663
 91  5  1 21 37 14.9970000  0  4G 6G11G19G 2
  21006629.5714  -18381098.78546 -14152143.86762
  23467396.509    -2726358.201 6  -2124429.78521
  21345870.837     2113570.745 6   1646929.15321
  19974710.6104  -19666279.94148 -15324346.82763
 91  5  1 21 37 29.9970000  0  4G 6G11G19G 2
  20999891.8994  -18416506.91746 -14179734.58562
  23473161.3604   -2696062.25946  -2100822.59361
  21349505.814     2132669.359 6   1661811.14321
  19971513.0324  -19683071.04948 -15337430.79663
 91  5  1 21 37 44.9970000  0  4G 6G11G19G 2
  20993159.6184  -18451887.31046 -14207303.68762
  23478944.790    -2665663.881 5  -2077135.59221
  21353151.181     2151832.177 6   1676743.16522
  19968334.5014  -19699787.27248 -15350456.41863
 91  5  1 21 37 59.9970000  0  4G 6G11G19G 2
  20986432.1814  -18487241.94746 -14234852.72062
  23484749.7744   -2635165.45845  -2053370.62861
  21356812.845     2171057.032 6   1691723.52022
  19965164.1184  -19716430.77048 -15363425.36863
 91  5  1 21 38 14.9970000  0  4G 6G11G19G 2
  20979709.1814  -18522573.34546 -14262383.64162
  23490570.821    -2604570.159 6  -2029530.16721
  21360482.892     2190341.121 6   1706750.03921
  19962011.3844  -19733004.38848 -15376339.86763
 91  5  1 21 38 29.9970000  0  4G 6G11G19G 2
  20972990.2904  -18557876.85346 -14289892.83362
  23496412.064    -2573873.561 5  -2005610.80621
  21364161.048     2209689.128 6   1721826.36122
  19958871.5644  -19749503.44948 -15389196.27063
 91  5  1 21 38 44.9970000  0  4G 6G11G19G 2
  20966274.9154  -18593158.63946 -14317385.09862
  23502271.064    -2543082.516 5  -1981617.80721
  21367855.829     2229094.384 6   1736947.29421
  19955746.8064  -19765934.58248 -15401999.74363
 91  5  1 21 38 59.9970000  0  4G 6G11G19G 2
  20959568.1104  -18628409.86446 -14344853.55462
  23508149.8604   -2512188.38145  -1957544.52661
  21371561.189     2248565.880 6   1752119.84322
  19952635.0484  -19782288.86148 -15414743.33063
 91  5  1 21 39 14.9970000  0  4G 6G11G19G 2
  20952866.5874  -18663637.29046 -14372303.45962
  23514047.1034   -2481198.41645  -1933396.54061
  21375275.689     2268096.834 6   1767338.71121
  19949535.2674  -19798573.30648 -15427432.49663
 91  5  1 21 39 29.9970000  0  4G 6G11G19G 2
  20946166.4074  -18698837.62646 -14399732.25262
  23519964.3534   -2450109.91845  -1909171.77161
  21379007.5244    2287690.38546   1782606.37361
  19946449.6734  -19814784.99048 -15440064.97063
 91  5  1 21 39 44.9970000  0  4G 6G11G19G 2
  20939471.2904  -18734013.26546 -14427141.81362
  23525896.314    -2418925.755 5  -1884872.47821
  21382747.454     2307344.090 6   1797920.90321
  19943378.9394  -19830926.49648 -15452642.76064
 91  5  1 21 39 59.9970000  0  4G 6G11G19G 2
  20932784.9314  -18769164.98646 -14454532.73062
  23531851.2354   -2387647.18246  -1860499.59561
  21386500.4314    2327057.02246   1813281.58461
  19940319.7124  -19846998.78648 -15465166.61164
 91  5  1 21 40 14.9970000  0  4G 6G11G19G 2
  20926098.6894  -18804292.66146 -14481904.91362
  23537820.774    -2356274.520 5  -1836053.40321
  21390258.454     2346829.113 6   1828688.35821
  19937274.6264  -19863001.92148 -15477636.57964
 91  5  1 21 40 29.9970000  0  4G 6G11G19G 2
  20919419.9314  -18839392.92246 -14509255.73762
  23543810.251    -2324804.773 5  -1811531.56621
  21394037.5174    2366663.69546   1844143.83561
  19934244.181   -19878932.563 8 -15490050.05324
 91  5  1 21 40 44.9970000  0  4G 6G11G19G 2
  20912746.3994  -18874468.39447 -14536587.24662
  23549818.118    -2293241.190 5  -1786936.61521
  21397818.103     2386557.894 6   1859645.76821
  19931224.6814  -19894793.79548 -15502409.44864
 91  5  1 21 40 59.9970000  0  4G 6G11G19G 2
  20906076.9074  -18909522.41747 -14563902.03562
  23555838.728    -2261587.527 5  -1762271.45421
  21401618.204     2406508.275 6   1875191.46421
  19928218.5244  -19910589.11548 -15514717.47564
 91  5  1 21 41 14.9970000  0  4G 6G11G19G 2
  20899409.0094  -18944550.10247 -14591196.30962
  23561881.6654   -2229839.30445  -1737532.63161
  21405423.532     2426519.655 6   1890784.70321
  19925224.7284  -19926313.71348 -15526970.40064
 91  5  1 21 41 29.9970000  0  4G 6G11G19G 2
  20892748.5644  -18979553.33347 -14618471.52062
  23567940.8214   -2197998.94645  -1712721.98861
  21409245.493     2446589.882 6   1906423.79821
  19922246.6184  -19941969.80848 -15539169.94764
 91  5  1 21 41 44.9970000  0  4G 6G11G19G 2
  20886091.0014  -19014537.23947 -14645731.67862
  23574015.423    -2166072.022 5  -1687843.94021
  21413074.704     2466713.883 6   1922104.79021
  19919279.345   -19957562.735 8 -15551320.26923
 91  5  1 21 41 59.9970000  0  4G 6G11G19G 2
  20879440.4464  -19049490.02047 -14672967.59062
  23580110.4394   -2134047.37246  -1662889.69961
  21416918.829     2486903.228 6   1937836.69921
  19916327.1034  -19973080.87648 -15563412.31964
 91  5  1 21 42 14.9970000  0  4G 6G11G19G 2
  20872793.3294  -19084417.90847 -14700184.09562
  23586220.712    -2101931.526 5  -1637864.40521
  21420768.376     2507151.541 6   1953614.55821
  19913386.1494  -19988530.65648 -15575451.10164
 91  5  1 21 42 29.9970000  0  4G 6G11G19G 2
  20866151.509   -19119316.931 7 -14727378.11522
  23592350.6964   -2069721.01445  -1612765.38261
  21424634.4074    2527462.72246   1969441.39361
  19910462.4314  -20003908.41348 -15587433.75364
 91  5  1 21 42 44.9970000  0  4G 6G11G19G 2
  20859516.087   -19154184.630 6 -14754547.72522
  23598499.6184   -2037413.71645  -1587590.90061
  21428513.376     2547839.209 6   1985319.12821
  19907547.7204  -20019211.82248 -15599358.48264
 91  5  1 21 42 59.9970000  0  4G 6G11G19G 2
  20852887.774   -19189027.512 7 -14781698.00022
  23604662.790    -2005016.905 5  -1562346.64621
  21432398.8294    2568274.20446   2001242.44661
  19904648.5954  -20034447.86448 -15611230.71864
 91  5  1 21 43 14.9970000  0  4G 6G11G19G 2
  20846263.017   -19223848.123 7 -14808830.91822
  23610846.2204   -1972533.48545  -1537034.94461
  21436300.743     2588765.022 6   2017209.26521
  19901762.0404  -20049619.08048 -15623052.43364
 91  5  1 21 43 29.9970000  0  4G 6G11G19G 2
  20839638.345   -19258639.583 6 -14835941.11922
  23617044.767    -1939957.048 6  -1511650.80121
  21440210.767     2609318.563 6   2033224.95621
  19898887.2514  -20064718.66348 -15634818.33463
 91  5  1 21 43 44.9970000  0  4G 6G11G19G 2
  20833023.9624  -19293405.38247 -14863031.32862
  23623261.9624   -1907291.67646  -1486197.29761
  21444132.3374    2629931.05546   2049286.58561
  19896027.2674  -20079750.30248 -15646531.29564
 91  5  1 21 43 59.9970000  0  4G 6G11G19G 2
  20826412.696   -19328144.493 6 -14890100.74222
  23629489.7744   -1874536.73545  -1460674.02861
  21448066.1894    2650603.46846   2065394.90461
  19893181.7674  -20094713.39848 -15658190.83964
 91  5  1 21 44 14.9970000  0  4G 6G11G19G 2
  20819808.4464  -19362855.14947 -14917147.97262
  23635744.157    -1841690.897 5  -1435079.88821
  21452011.6104    2671337.51446   2081551.24261
  19890347.2594  -20109606.32048 -15669795.70563
 91  5  1 21 44 29.9970000  0  4G 6G11G19G 2
  20813207.4784  -19397545.21446 -14944179.16962
  23642012.9234   -1808762.58346  -1409421.51561
  21455967.290     2692124.884 6   2097749.13821
  19887523.8994  -20124437.15348 -15681352.18864
 91  5  1 21 44 44.9970000  0  4G 6G11G19G 2
  20806610.673   -19432200.976 7 -14971183.63322
  23648292.5564   -1775738.61245  -1383688.59661
  21459937.392     2712979.351 6   2113999.32421
  19884717.3144  -20139192.51948 -15692849.87063
 91  5  1 21 44 59.9970000  0  4G 6G11G19G 2
  20800021.5794  -19466834.61947 -14998170.86562
  23654593.899    -1742631.510 5  -1357890.86421
  21463915.9704    2733888.51046   2130292.11461
  19881920.6494  -20153884.62448 -15704298.25464
 91  5  1 21 45 14.9970000  0  3G 6G19G 2
  20793436.9704  -19501436.88647 -15025133.64062
  21467905.540     2754861.560 6   2146634.69921
  19879139.696   -20168504.423 8 -15715690.29524
 91  5  1 21 45 29.9970000  0  3G 6G19G 2
  20786857.4854  -19536011.19747 -15052074.63562
  21471908.0014    2775894.82746   2163024.20461
  19876370.7744  -20183055.82248 -15727029.03764
 91  5  1 21 45 44.9970000  0  3G 6G19G 2
  20780284.1964  -19570556.39347 -15078992.94562
  21475923.603     2796989.463 6   2179461.52421
  19873614.1034  -20197537.79448 -15738313.68064
 91  5  1 21 45 59.9970000  0  3G 6G19G 2
  20773714.4074  -19605077.80847 -15105892.72162
  21479949.399     2818139.969 6   2195942.38721
  19870869.6734  -20211955.96048 -15749548.61164
 91  5  1 21 46 14.9970000  0  3G 6G19G 2
  20767150.071   -19639568.922 7 -15132768.88422
  21483983.6654    2839353.02046   2212471.97161
  19868138.9314  -20226303.69748 -15760728.65664
 91  5  1 21 46 29.9970000  0  3G 6G19G 2
  20760593.6264  -19674032.32347 -15159623.45662
  21488034.5324    2860625.47346   2229047.84661
  19865422.0244  -20240584.00148 -15771856.15764
 91  5  1 21 46 44.9970000  0  3G 6G19G 2
  20754040.3294  -19708472.52247 -15186459.94662
  21492090.298     2881952.739 6   2245666.44221
  19862718.142   -20254801.693 8 -15782934.86924
 91  5  1 21 46 59.9970000  0  3G 6G19G 2
  20747491.7674  -19742879.63847 -15213270.65162
  21496161.3144    2903344.57846   2262335.34461
  19860026.1424  -20268947.07848 -15793957.23464
 91  5  1 21 47 14.9970000  0  3G 6G19G 2
  20740948.6104  -19777259.11547 -15240059.82362
  21500244.509     2924795.365 6   2279050.18821
  19857346.0014  -20283025.76148 -15804927.62563
 91  5  1 21 47 29.9970000  0  3G 6G19G 2
  20734412.571   -19811605.201 7 -15266822.98322
  21504337.7204    2946310.70546   2295815.31761
  19854681.564   -20297032.167 8 -15815841.69824
 91  5  1 21 47 44.9970000  0  3G 6G19G 2
  20727882.2744  -19845923.44047 -15293564.43262
  21508445.6034    2967884.86446   2312626.29461
  19852027.9784  -20310972.25048 -15826704.08664
 91  5  1 21 47 59.9970000  0  3G 6G19G 2
  20721356.7744  -19880214.67547 -15320284.84762
  21512560.7044    2989517.01246   2329482.44861
  19849388.5714  -20324847.12948 -15837515.67664
 91  5  1 21 48 14.9970000  0  3G 6G19G 2
  20714839.0874  -19914469.41347 -15346976.81662
  21516689.2514    3011216.30046   2346390.91961
  19846762.0644  -20338647.43448 -15848269.14964
 91  5  1 21 48 29.9970000  0  3G 6G19G 2
  20708327.0874  -19948695.71547 -15373646.63162
  21520831.8844    3032974.71646   2363345.47161
  19844147.4394  -20352381.30448 -15858970.85864
 91  5  1 21 48 44.9970000  0  3G 6G19G 2
  20701821.540   -19982886.122 7 -15400288.48422
  21524985.4934    3054799.34546   2380351.61761
  19841548.9074  -20366041.68148 -15869615.29764
 91  5  1 21 48 59.9970000  0  3G 6G19G 2
  20695319.4394  -20017043.55147 -15426904.63062
  21529147.9934    3076687.24546   2397407.05361
  19838962.6494  -20379631.67148 -15880204.89163
 91  5  1 21 49 14.9970000  0  3G 6G19G 2
  20688824.196   -20051177.542 7 -15453502.51922
  21533322.2744    3098628.70646   2414504.23161
  19836387.7984  -20393161.16948 -15890747.35363
 91  5  1 21 49 29.9970000  0  3G 6G19G 2
  20682334.3374  -20085278.51047 -15480074.67062
  21537509.6264    3120633.23246   2431650.55561
  19833826.9544  -20406620.70148 -15901235.29063
 91  5  1 21 49 44.9970000  0  3G 6G19G 2
  20675853.165   -20119350.239 7 -15506624.04822
  21541708.4314    3142696.72846   2448842.83361
  19831279.2984  -20420014.33248 -15911671.87664
 91  5  1 21 49 59.9970000  0  3G 6G19G 2
  20669374.8604  -20153387.59747 -15533146.63562
  21545921.5174    3164824.44246   2466085.14461
  19828742.9784  -20433337.04548 -15922053.20664
 91  5  1 21 50 14.9970000  0  3G 6G19G 2
  20662902.3374  -20187397.07747 -15559647.50262
  21550139.9464    3187009.65546   2483372.26161
  19826220.0954  -20446595.83148 -15932384.72064
 91  5  1 21 50 29.9970000  0  3G 6G19G 2
  20656438.157   -20221372.686 7 -15586121.97623
  21554377.7514    3209258.02446   2500708.58861
  19823710.6344  -20459784.74548 -15942661.78863
 91  5  1 21 50 44.9970000  0  3G 6G19G 2
  20649978.3764  -20255316.48347 -15612571.66162
  21558622.4784    3231567.35946   2518092.43161
  19821213.1104  -20472906.14648 -15952886.24863
 91  5  1 21 50 59.9970000  0  3G 6G19G 2
  20643522.946   -20289229.625 7 -15638997.46223
  21562877.9234    3253936.46046   2535522.83661
  19818729.0094  -20485961.23148 -15963059.03663
 91  5  1 21 51 14.9970000  0  3G 6G19G 2
  20637075.548   -20323113.882 7 -15665400.75623
  21567144.9154    3276363.32446   2552998.24361
  19816256.2044  -20498952.04648 -15973181.74364
 91  5  1 21 51 29.9970000  0  3G 6G19G 2
  20630634.720   -20356963.638 7 -15691777.16623
  21571426.7354    3298853.43046   2570522.93361
  19813796.5404  -20511873.32548 -15983250.26563
 91  5  1 21 51 44.9970000  0  3G 6G19G 2
  20624200.4074  -20390780.97947 -15718128.31763
  21575718.5324    3321404.52946   2588095.15361
  19811351.3764  -20524727.44348 -15993266.45263
 91  5  1 21 51 59.9970000  0  3G 6G19G 2
  20617769.0244  -20424564.98147 -15744453.48463
  21580024.2594    3344017.23646   2605715.37761
  19808918.892   -20537513.873 8 -16003229.89323
 91  5  1 21 52 14.9970000  0  3G 6G19G 2
  20611348.446   -20458312.818 7 -15770750.47823
  21584334.6734    3366694.28146   2623385.73861
  19806498.0174  -20550229.76848 -16013138.37863
 91  5  1 21 52 29.9970000  0  3G 6G19G 2
  20604933.454   -20492026.916 7 -15797021.18323
  21588664.6424    3389433.02946   2641104.17862
  19804091.454   -20562877.773 8 -16022993.95623
 91  5  1 21 52 44.9970000  0  3G 6G19G 2
  20598524.540   -20525712.904 7 -15823269.97522
  21593000.0644    3412227.76346   2658866.24361
  19801697.9704  -20575463.82948 -16032801.26063
 91  5  1 21 52 59.9970000  0  3G 6G19G 2
  20592117.165   -20559366.774 7 -15849493.74722
  21597354.2434    3435082.32246   2676674.92561
  19799314.3214  -20587984.13048 -16042557.33263
 91  5  1 21 53 14.9970000  0  3G 6G19G 2
  20585722.353   -20592986.864 7 -15875691.19822
  21601710.774     3457998.159 6   2694531.34521
  19796943.9234  -20600437.35948 -16052261.13863
 91  5  1 21 53 29.9970000  0  3G 6G19G 2
  20579329.642   -20626574.141 7 -15901863.07722
  21606085.892     3480974.040 6   2712434.55322
  19794587.7824  -20612824.56448 -16061913.49763
 91  5  1 21 53 44.9970000  0  3G 6G19G 2
  20572945.009   -20660126.831 7 -15928008.00822
  21610465.5404    3504011.66546   2730385.89561
  19792242.4854  -20625144.40448 -16071513.36163
 91  5  1 21 53 59.9970000  0  3G 6G19G 2
  20566567.173   -20693639.868 7 -15954122.04422
  21614864.8294    3527115.87346   2748389.11061
  19789913.5484  -20637392.08848 -16081057.00363
 91  5  1 21 54 14.9970000  0  3G 6G19G 2
  20560194.665   -20727119.771 7 -15980210.25022
  21619272.5484    3550280.08146   2766439.07561
  19787593.4314  -20649574.41548 -16090549.71264
 91  5  1 21 54 29.9970000  0  3G 6G19G 2
  20553829.618   -20760565.450 7 -16006271.79822
  21623694.2674    3573505.19846   2784536.49561
  19785288.009   -20661690.455 8 -16099990.77323
 91  5  1 21 54 44.9970000  0  3G 6G19G 2
  20547474.337   -20793978.535 7 -16032307.94822
  21628122.2354    3596789.39446   2802679.96061
  19782994.4704  -20673742.00448 -16109381.58264
 91  5  1 21 54 59.9970000  0  3G 6G19G 2
  20541123.431   -20827350.995 7 -16058312.43623
  21632565.3994    3620140.45846   2820875.52661
  19780715.3994  -20685721.18348 -16118715.99463
 91  5  1 21 55 14.9970000  0  3G 6G19G 2
  20534780.446   -20860690.633 7 -16084291.34723
  21637020.470     3643550.487 6   2839117.03521
  19778448.4784  -20697636.19348 -16128000.41263
 91  5  1 21 55 29.9970000  0  3G 6G19G 2
  20528440.884   -20893996.129 7 -16110243.66223
  21641486.6894    3667020.49146   2857405.28361
  19776192.8994  -20709486.00348 -16137234.02163
 91  5  1 21 55 44.9970000  0  3G 6G19G 2
  20522109.610   -20927268.531 7 -16136170.18823
  21645964.7824    3690549.31446   2875739.36961
  19773950.0954  -20721271.81948 -16146417.76563
 91  5  1 21 55 59.9970000  0  3G 6G19G 2
  20515784.774   -20960500.484 7 -16162065.19623
  21650455.1814    3714144.05846   2894124.81761
  19771721.9154  -20732986.51348 -16155546.09063
 91  5  1 21 56 14.9970000  0  3G 6G19G 2
  20509466.079   -20993698.984 7 -16187934.13323
  21654955.8144    3737797.47646   2912555.98461
  19769505.1184  -20744637.34648 -16164624.65064
 91  5  1 21 56 29.9970000  0  3G 6G19G 2
  20503154.978   -21026865.511 7 -16213778.15923
  21659466.665     3761508.169 6   2931031.76821
  19767298.9704  -20756225.94048 -16173654.71563
 91  5  1 21 56 44.9970000  0  3G 6G19G 2
  20496852.743   -21059988.975 7 -16239588.62523
  21663989.782     3785286.852 6   2949560.54521
  19765106.7744  -20767741.69648 -16182628.02763
 91  5  1 21 56 59.9970000  0  3G 6G19G 2
  20490555.665   -21093077.419 7 -16265371.80823
  21668528.782     3809125.343 6   2968135.92421
  19762928.4784  -20779192.82248 -16191550.97263
 91  5  1 21 57 14.9970000  0  3G 6G19G 2
  20484266.829   -21126129.958 7 -16291127.01023
  21673077.2354    3833024.36346   2986758.47061
  19760761.9464  -20790578.71248 -16200423.08864
 91  5  1 21 57 29.9970000  0  3G 6G19G 2
  20477985.337   -21159147.766 7 -16316855.14823
  21677636.3604    3856982.46246   3005427.04461
  19758607.6034  -20801901.01648 -16209245.65264
 91  5  1 21 57 44.9970000  0  3G 6G19G 2
  20471707.696   -21192131.155 7 -16342556.46623
  21682203.7124    3880999.33546   3024141.42061
  19756464.4624  -20813160.10948 -16218018.96663
 91  5  1 21 57 59.9970000  0  3G 6G19G 2
  20465437.603   -21225075.720 7 -16368227.53323
  21686786.462     3905079.141 6   3042904.84121
  19754334.7284  -20824351.67348 -16226739.65664
 91  5  1 21 58 14.9970000  0  3G 6G19G 2
  20459175.595   -21257983.392 7 -16393869.85223
  21691381.9154    3929219.68946   3061715.58962
  19752218.3604  -20835477.93548 -16235409.46764
 91  5  1 21 58 29.9970000  0  3G 6G19G 2
  20452920.595   -21290851.784 7 -16419481.55923
  21695990.8064    3953423.10546   3080575.32161
  19750113.1494  -20846536.84848 -16244026.79564
 91  5  1 21 58 44.9970000  0  3G 6G19G 2
  20446674.048   -21323682.062 7 -16445063.57023
  21700606.884     3977688.084 6   3099483.03221
  19748021.7434  -20857530.03048 -16252592.90863
 91  5  1 21 58 59.9970000  0  3G 6G19G 2
  20440434.071   -21356474.551 7 -16470616.13623
  21705236.3604    4002014.20446   3118438.38361
  19745941.4704  -20868457.83248 -16261108.07464
 91  5  1 21 59 14.9970000  0  3G 6G19G 2
  20434201.134   -21389230.619 7 -16496140.32123
  21709874.5564    4026399.78846   3137440.07361
  19743874.1814  -20879321.86948 -16269573.54863
 91  5  1 21 59 29.9970000  0  3G 6G19G 2
  20427971.626   -21421956.486 7 -16521640.97223
  21714526.126     4050838.496 6   3156483.14421
  19741818.8534  -20890128.62648 -16277994.39863
 91  5  1 21 59 44.9970000  0  3G 6G19G 2
  20421752.548   -21454644.317 7 -16547111.98523
  21719186.6654    4075337.97146   3175573.57461
  19739774.5014  -20900870.49448 -16286364.68063
 91  5  1 21 59 59.9970000  0  3G 6G19G 2
  20415538.649   -21487296.857 7 -16572555.49623
  21723861.407     4099895.121 6   3194708.94721
  19737742.2674  -20911550.66148 -16294686.88864
 91  5  1 22  0 14.9970000  0  3G 6G19G 2
  20409333.618   -21519913.890 7 -16597971.34323
  21728545.665     4124510.097 6   3213889.37121
  19735722.3844  -20922169.00448 -16302960.91764
 91  5  1 22  0 29.9960000  0  3G 6G19G 2
  20403132.160   -21552489.924 7 -16623355.24123
  21733243.4734    4149184.35246   3233115.99361
  19733712.1764  -20932721.78148 -16311183.86264
 91  5  1 22  0 44.9960000  0  3G 6G19G 2
  20396941.223   -21585032.519 7 -16648713.08223
  21737945.2624    4173917.58946   3252388.57761
  19731716.2314  -20943214.03348 -16319359.64164
 91  5  1 22  0 59.9960000  0  3G 6G19G 2
  20390754.7624  -21617535.48447 -16674040.04263
  21742664.6214    4198712.12546   3271708.92961
  19729731.8014  -20953640.99448 -16327484.54364
 91  5  1 22  1 14.9960000  0  3G 6G19G 2
  20384578.106   -21650000.771 7 -16699337.64423
  21747392.7704    4223565.67746   3291075.26361
  19727761.2624  -20964005.11448 -16335560.48064
 91  5  1 22  1 29.9960000  0  4G13G 6G19G 2
  23072644.9814         -0.10154
  20378409.801   -21682424.179 7 -16724602.60723
  21752137.7704    4248482.33346   3310490.77361
  19725800.7544  -20974302.46948 -16343584.39064
 91  5  1 22  1 44.9960000  0  4G13G 6G19G 2
  23059333.0744     -69952.29344
  20372245.5744  -21714808.87547 -16749837.40563
  21756886.6134    4273458.76046   3329952.85761
  19723853.0354  -20984536.38248 -16351558.86564
 91  5  1 22  1 59.9960000  0  4G13G 6G19G 2
  23046024.3244    -139885.33343
  20366089.965   -21747159.192 7 -16775045.42523
  21761653.137     4298490.399 6   3349457.96121
  19721915.7774  -20994711.66048 -16359487.65264
 91  5  1 22  2 14.9960000  0  4G13G 6G19G 2
  23032721.606     -209792.853 4
  20359941.465   -21779469.202 7 -16800222.03023
  21766426.277     4323583.160 6   3369010.68321
  19719992.4574  -21004822.35348 -16367366.11464
 91  5  1 22  2 29.9960000  0  4G13G 6G19G 2
  23019425.4814    -279681.84144
  20353796.348   -21811745.986 7 -16825372.74823
  21771211.926     4348729.594 6   3388605.23321
  19718080.5664  -21014875.98048 -16375200.10664
 91  5  1 22  2 44.9960000  0  4G13G 6G19G 2
  23006130.395     -349543.737 3        -0.49831
  20347664.754   -21843980.981 7 -16850490.90123
  21776007.957     4373937.949 6   3408248.03221
  19716178.0744  -21024864.18048 -16382983.11764
 91  5  1 22  2 59.9960000  0  4G13G 6G19G 2
  22992840.137     -419382.073 4    -54419.61521
  20341536.473   -21876177.933 7 -16875579.41323
  21780818.356     4399204.277 6   3427936.01121
  19714288.6844  -21034790.89948 -16390718.22463
 91  5  1 22  3 14.9960000  0  4G13G 6G19G 2
  22979555.145     -489198.556 4   -108821.73421
  20335417.176   -21908338.995 7 -16900639.96023
  21785634.598     4424526.358 6   3447667.41821
  19712410.9814  -21044658.67848 -16398407.39864
 91  5  1 22  3 29.9960000  0  4G13G 6G19G 2
  22966263.988     -558985.586 4   -163200.92021
  20329304.981   -21940456.601 7 -16925666.65323
  21790468.4024    4449911.52246   3467447.98361
  19710546.8324  -21054460.16348 -16406044.92163
 91  5  1 22  3 44.9960000  0  4G13G 6G19G 2
  22952995.598     -628751.122 4   -217563.29821
  20323199.191   -21972539.085 7 -16950665.96323
  21795307.949     4475351.252 6   3487271.07621
  19708691.2854  -21064203.85248 -16413637.40564
 91  5  1 22  3 59.9960000  0  4G13G 6G19G 2
  22939725.1914    -698488.05044   -271903.43661
  20317103.051   -22004579.530 7 -16975632.52923
  21800158.8014    4500852.11145   3507141.80661
  19706850.6374  -21073883.39948 -16421179.90964
 91  5  1 22  4 14.9960000  0  4G13G 6G19G 2
  22926462.676     -768203.202 4   -326226.57521
  20311013.902   -22036584.877 7 -17000571.73923
  21805021.293     4526406.901 6   3527054.54721
  19705020.4414  -21083505.80748 -16428677.88664
 91  5  1 22  4 29.9960000  0  4G13G 6G19G 2
  22913200.957     -837892.998 4   -380529.97821
  20304928.613   -22068551.908 7 -17025481.09523
  21809903.121     4552018.680 5   3547011.70621
  19703200.9494  -21093068.03548 -16436128.97463
 91  5  1 22  4 44.9960000  0  4G13G 6G19G 2
  22899940.4414    -907555.51744   -434812.16461
  20298854.410   -22100478.524 7 -17050358.95923
  21814779.520     4577689.472 6   3567014.84421
  19701392.2384  -21102568.36448 -16443531.82364
 91  5  1 22  4 59.9960000  0  4G13G 6G19G 2
  22886683.457     -977199.470 4   -489079.84221
  20292783.668   -22132373.981 7 -17075212.53923
  21819676.574     4603409.641 5   3587056.45121
  19699594.2704  -21112016.45048 -16450893.96763
 91  5  1 22  5 14.9960000  0  4G13G 6G19G 2
  22873440.801    -1046815.460 5   -543325.73221
  20286724.660   -22164229.213 7 -17100034.77923
  21824581.473     4629188.085 6   3607143.46921
  19697807.8324  -21121403.27848 -16458208.37464
 91  5  1 22  5 29.9960000  0  4G13G 6G19G 2
  22860200.512    -1116400.660 5   -597547.57721
  20280670.207   -22196041.379 7 -17124823.46023
  21829501.949     4655027.359 5   3627277.88621
  19696033.4654  -21130726.38448 -16465473.12864
 91  5  1 22  5 44.9960000  0  4G13G 6G19G 2
  22846961.051    -1185962.385 4   -651751.25821
  20274621.723   -22227817.812 7 -17149584.30123
  21834427.207     4680919.991 6   3647453.87721
  19694270.5204  -21139993.49648 -16472694.25364
 91  5  1 22  5 59.9960000  0  4G13G 6G19G 2
  22833729.2314   -1255497.17144   -705933.83061
  20268581.887   -22259555.536 7 -17174314.98023
  21839366.223     4706869.025 5   3667673.82421
  19692517.5744  -21149201.56348 -16479869.36564
 91  5  1 22  6 14.9960000  0  4G13G 6G19G 2
  22820501.7854   -1325005.38745   -760095.74761
  20262549.738   -22291254.879 7 -17199015.75023
  21844313.559     4732873.555 6   3687937.01721
  19690777.5044  -21158351.28948 -16486999.01864
 91  5  1 22  6 29.9960000  0  4G13G 6G19G 2
  22807280.7934   -1394481.75444   -814232.87561
  20256525.965   -22322910.659 7 -17223682.57923
  21849273.8324    4758938.47246   3708247.25461
  19689048.9654  -21167437.81748 -16494079.42264
 91  5  1 22  6 44.9960000  0  4G13G 6G19G 2
  22794060.1844   -1463934.35543   -868351.46461
  20250510.129   -22354531.478 7 -17248322.16023
  21854243.723     4785055.262 6   3728597.92321
  19687330.4654  -21176470.05248 -16501117.51964
 91  5  1 22  6 59.9960000  0  4G13G 6G19G 2
  22780854.2854   -1533358.33344   -922447.75261
  20244498.309   -22386112.546 7 -17272930.77123
  21859227.395     4811228.309 5   3748992.43121
  19685622.9184  -21185443.53848 -16508109.84764
 91  5  1 22  7 14.9960000  0  4G13G 6G19G 2
  22767651.356    -1602752.158 5   -976520.53921
  20238498.0904  -22417652.61247 -17297507.43463
  21864214.1294    4837458.56246   3769431.50861
  19683924.7624  -21194357.27648 -16515055.61364
 91  5  1 22  7 29.9960000  0  4G13G 6G19G 2
  22754452.824    -1672113.650 4  -1030568.14121
  20232504.824   -22449149.680 7 -17322050.58323
  21869217.8014    4863747.82645   3789916.56361
  19682241.7704  -21203209.57148 -16521953.49864
 91  5  1 22  7 44.9960000  0  4G13G 6G19G 2
  22741247.629    -1741445.534 3  -1084592.73321
  20226517.488   -22480606.626 7 -17346562.47923
  21874230.3324    4890093.03346   3810445.20961
  19680566.3244  -21212003.46748 -16528805.88064
 91  5  1 22  7 59.9960000  0  4G13G 6G19G 2
  22728066.7774   -1810745.35644  -1138592.26961
  20220538.379   -22512021.277 7 -17371041.41123
  21879257.168     4916495.971 6   3831018.84221
  19678904.6524  -21220737.10848 -16535611.31164
 91  5  1 22  8 14.9960000  0  4G13G 6G19G 2
  22714888.0594   -1880007.10245  -1192562.19861
  20214569.840   -22543387.756 7 -17395482.80923
  21884292.691     4942962.430 6   3851641.97321
  19677254.7774  -21229405.00348 -16542365.50764
 91  5  1 22  8 29.9960000  0  4G13G 6G19G 2
  22701712.957    -1949237.573 5  -1246507.73621
  20208608.957   -22574712.862 7 -17419891.96623
  21889340.410     4969485.499 5   3872309.21921
  19675617.4494  -21238014.23248 -16549073.99364
 91  5  1 22  8 44.9960000  0  4G13G 6G19G 2
  22688544.051    -2018441.500 4  -1300432.63121
  20202654.957   -22606001.770 7 -17444272.91423
  21894394.441     4996059.580 6   3893016.20921
  19673988.6914  -21246570.19848 -16555740.97664
 91  5  1 22  8 59.9960000  0  4G13G 6G19G 2
  22675377.707    -2087614.546 5  -1354333.42521
  20196707.832   -22637250.609 7 -17468622.63923
  21899464.3164    5022688.37645   3913765.83361
  19672371.1844  -21255069.24448 -16562363.60664
 91  5  1 22  9 14.9960000  0  4G13G 6G19G 2
  22662223.7934   -2156755.43145  -1408209.16961
  20190770.691   -22668458.081 7 -17492940.13223
  21904540.246     5049372.950 5   3934558.93721
  19670765.6294  -21263510.42048 -16568941.14364
 91  5  1 22  9 29.9960000  0  4G13G 6G19G 2
  22649076.5124   -2225862.36945  -1462058.46461
  20184840.637   -22699622.665 7 -17517224.20323
  21909631.316     5076114.668 5   3955396.55021
  19669169.6764  -21271892.27948 -16575472.45564
 91  5  1 22  9 44.9960000  0  4G13G 6G19G 2
  22635931.582    -2294926.184 5  -1515874.18221
  20178920.699   -22730735.031 7 -17541467.58323
  21914732.0124    5102922.45445   3976285.64661
  19667587.7074  -21280205.98348 -16581950.66364
 91  5  1 22  9 59.9960000  0  4G13G 6G19G 2
  22622788.5514   -2363960.11444  -1569666.56661
  20173006.113   -22761808.760 7 -17565680.86423
  21919844.582     5129782.462 5   3997215.44221
  19666016.1684  -21288465.33448 -16588386.51864
 91  5  1 22 10 14.9960000  0  4G13G 6G19G 2
  22609664.582    -2432955.981 4  -1623429.33921
  20167100.590   -22792835.967 7 -17589857.88923
  21924966.2934    5156702.51145   4018192.01461
  19664457.6914  -21296662.69048 -16594774.06564
 91  5  1 22 10 29.9960000  0  4G13G 6G19G 2
  22596536.3714   -2501922.59245  -1677169.27361
  20161205.152   -22823825.510 7 -17614005.56623
  21930100.9414    5183673.56345   4039208.33761
  19662906.9814  -21304807.23348 -16601120.46264
 91  5  1 22 10 44.9960000  0  4G13G 6G19G 2
  22583423.5664   -2570848.40545  -1730877.44961
  20155318.496   -22854766.010 7 -17638115.03023
  21935242.613     5210706.694 6   4060273.03021
  19661369.4734  -21312887.75748 -16607416.97164
 91  5  1 22 10 59.9960000  0  4G13G 6G19G 2
  22570311.5744   -2639738.75645  -1784557.97961
  20149438.379   -22885662.910 7 -17662190.51823
  21940400.3244    5237796.17945   4081381.62961
  19659841.9494  -21320910.13248 -16613668.17264
 91  5  1 22 11 14.9960000  0  4G13G 6G19G 2
  22557210.3244   -2708595.54545  -1838212.33161
  20143567.152   -22916518.380 7 -17686233.72423
  21945561.7074    5264939.51145   4102532.18461
  19658327.1524  -21328876.83148 -16619875.98764
 91  5  1 22 11 29.9960000  0  4G13G 6G19G 2
  22544115.660    -2777418.021 5  -1891839.98621
  20137703.395   -22947332.022 7 -17710244.32823
  21950741.324     5292136.822 5   4123724.81021
  19656820.3094  -21336787.61548 -16626040.23264
 91  5  1 22 11 44.9960000  0  4G13G 6G19G 2
  22531021.590    -2846207.855 5  -1945442.20721
  20131847.004   -22978105.816 7 -17734223.89223
  21955925.184     5319386.012 6   4144957.86421
  19655326.0434  -21344644.72748 -16632162.65864
 91  5  1 22 11 59.9960000  0  4G13G 6G19G 2
  22517938.6524   -2914956.56645  -1999012.33661
  20125998.215   -23008831.319 7 -17758165.81823
  21961121.2384    5346695.14145   4166237.61361
  19653843.1214  -21352440.08548 -16638236.96264
 91  5  1 22 12 14.9960000  0  4G13G 6G19G 2
  22504867.551    -2983666.194 5  -2052552.03821
  20120160.027   -23039510.788 7 -17782071.87823
  21966327.6064    5374061.90445   4187562.27561
  19652371.4264  -21360176.17348 -16644265.07964
 91  5  1 22 12 29.9960000  0  4G13G 6G19G 2
  22491795.051    -3052342.223 5  -2106065.56121
  20114329.606   -23070150.161 7 -17805946.69123
  21971547.254     5401480.071 5   4208926.99521
  19650908.3794  -21367859.24448 -16650251.88764
 91  5  1 22 12 44.9960000  0  4G13G 6G19G 2
  22478736.059    -3120982.340 5  -2159551.10921
  20108508.621   -23100747.006 7 -17829788.37023
  21976772.418     5428951.685 5   4230333.35321
  19649456.9654  -21375487.32448 -16656195.84464
 91  5  1 22 12 59.9960000  0  4G13G 6G19G 2
  22465679.371    -3189584.095 5  -2213006.74321
  20102695.027   -23131299.051 7 -17853595.13723
  21982014.5434    5456478.95245   4251783.08761
  19648015.8324  -21383058.29748 -16662095.30164
 91  5  1 22 13 14.9960000  0  4G13G 6G19G 2
  22452637.699    -3258138.261 5  -2266425.31521
  20096891.332   -23161797.307 7 -17877359.99323
  21987260.5904    5484070.62645   4273283.00261
  19646588.2464  -21390563.24748 -16667943.31764
 91  5  1 22 13 29.9960000  0  4G13G 6G19G 2
  22439595.402    -3326653.862 5  -2319813.80721
  20091094.824   -23192250.943 7 -17901090.08223
  21992524.051     5511717.163 5   4294825.65721
  19645169.8324  -21398011.81648 -16673747.39264
 91  5  1 22 13 44.9960000  0  4G13G 6G19G 2
  22426569.762    -3395122.579 5  -2373165.78121
  20085310.231   -23222651.872 7 -17924779.09923
  21997796.9344    5539426.27145   4316417.08161
  19643765.2234  -21405396.27748 -16679501.51864
 91  5  1 22 13 59.9960000  0  4G13G 6G19G 2
  22413545.6064   -3463549.47645  -2426485.18461
  20079535.887   -23253005.415 7 -17948431.19923
  22003082.402     5567192.528 5   4338053.04221
  19642371.6524  -21412721.86248 -16685209.76564
 91  5  1 22 14 14.9960000  0  4G13G 6G19G 2
  22400527.2704   -3531934.83645  -2479772.20961
  20073768.223   -23283311.936 7 -17972046.64623
  22008374.645     5595015.181 5   4359732.92621
  19640989.3874  -21419989.65048 -16690872.97664
 91  5  1 22 14 29.9960000  0  4G13G 6G19G 2
  22387524.9344   -3600277.20245  -2533025.71661
  20068010.684   -23313570.082 7 -17995624.40223
  22013683.3794    5622895.47245   4381457.72961
  19639616.0664  -21427198.46548 -16696490.23464
 91  5  1 22 14 44.9960000  0  4G13G 6G19G 2
  22374528.840    -3668573.612 5  -2586243.45021
  20062261.793   -23343777.137 7
  22018995.1134    5650835.88845   4403229.38761
  19638256.5274  -21434345.82748 -16702059.60764
 91  5  1 22 14 59.9960000  0  5G13G 6G15G19G 2
  22361539.6214   -3736828.76545  -2639429.00761
  20056524.020   -23373938.095 7
  23124911.3014     -30165.64545
  22024325.4814    5678831.23345   4425043.85361
  19636907.2774  -21441436.87348 -16707585.09964
 91  5  1 22 15 14.9960000  0  5G13G 6G15G19G 2
  22348560.824    -3805050.275 5  -2692588.34721
  20050788.090   -23404060.521 7
  23119192.3404     -60239.54445
  22029659.9184    5706873.52845   4446894.89661
  19635566.2854  -21448479.85248 -16713073.13264
 91  5  1 22 15 29.9960000  0  5G13G 6G15G19G 2
  22335584.7074   -3873224.60445  -2745710.91861
  20045068.020   -23434131.264 7 -18089568.11723
  23113484.934      -90209.164 5
  22035011.2154    5734975.71745   4468792.61461
  19634237.2624  -21455461.67648 -16718513.51364
 91  5  1 22 15 44.9960000  0  5G13G 6G15G19G 2
  22322620.816    -3941355.693 5  -2798799.81121
  20039355.309   -23464154.419 7 -18112962.76623
  23107800.6294    -120078.57745
  22040368.293     5763133.457 5   4490733.60821
  19632920.2854  -21462386.69748 -16723909.63664
 91  5  1 22 15 59.9960000  0  5G13G 6G15G19G 2
  22309664.340    -4009446.453 5  -2851857.28821
  20033649.488   -23494133.207 7 -18136322.84723
  23102137.4414    -149850.67645        -0.44171
  22045735.4344    5791343.29345   4512715.19461
  19631611.9104  -21469258.45748 -16729264.25364
 91  5  1 22 16 14.9960000  0  5G13G 6G15G19G 2
  22296715.199    -4077491.101 5  -2904878.79621
  20027955.121   -23524061.856 7 -18159643.85623
  23096493.8794    -179519.63645    -23119.05261
  22051110.6524    5819610.58645   4534741.55761
  19630314.6294  -21476071.37148 -16734573.02064
 91  5  1 22 16 29.9960000  0  5G13G 6G15G19G 2
  22283773.934    -4145488.005 5  -2957863.13021
  20022268.6684  -23553938.93147 -18182924.67763
  23090866.410     -209083.664 5    -46155.90721
  22056507.7624    5847936.77945   4556813.81161
  19629031.4814  -21482824.15348 -16739834.92664
 91  5  1 22 16 44.9960000  0  5G13G 6G15G19G 2
  22270845.5434   -4213441.10445  -3010813.35461
  20016592.731   -23583768.508 7 -18206168.49223
  23085256.387     -238547.299 5    -69114.54721
  22061907.316     5876317.199 5   4578928.33221
  19627756.5594  -21489521.54048 -16745053.67364
 91  5  1 22 16 59.9960000  0  5G13G 6G15G19G 2
  22257920.184    -4281348.995 5  -3063728.33221
  20010924.6454  -23613549.46447 -18229374.42163
  23079669.496     -267909.378 5    -91994.04521
  22067320.621     5904752.941 5   4601085.95221
  19626493.2074  -21496162.49948 -16750228.44964
 91  5  1 22 17 14.9960000  0  5G13G 6G15G19G 2
  22245002.5124   -4349210.72645  -3116607.36461
  20005267.129   -23643280.862 7 -18252541.73123
  23074098.324     -297168.617 5   -114793.38021
  22072739.3874    5933244.55045   4623287.10261
  19625239.4884  -21502746.38648 -16755358.75064
 91  5  1 22 17 29.9960000  0  5G13G 6G15G19G 2
  22232104.0744   -4417023.55845  -3169448.26761
  19999618.7314  -23672960.13447 -18275668.42963
  23068557.8324    -326322.24645   -137510.44761
  22078173.551     5961794.334 5   4645533.58421
  19623997.9814  -21509271.00548 -16760442.87164
 91  5  1 22 17 44.9960000  0  5G13G 6G15G19G 2
  22219207.340    -4484792.917 5  -3222255.30821
  19993979.988   -23702593.130 7 -18298759.06323
  23063024.348     -355375.802 5   -160149.52721
  22083612.926     5990396.346 5   4667820.76621
  19622765.9104  -21515742.31748 -16765485.45464
 91  5  1 22 17 59.9960000  0  5G13G 6G15G19G 2
  22206323.082    -4552512.416 5  -3275023.52521
  19988351.8164  -23732173.35647 -18321808.58063
  23057519.7464    -384322.96945   -182705.69361
  22089074.4884    6019056.80145   4690153.49561
  19621545.5984  -21522154.24948 -16770481.77164
 91  5  1 22 18 14.9960000  0  5G13G 6G15G19G 2
  22193442.9104   -4620179.20045  -3327750.63361
  19982734.488   -23761698.387 7 -18344815.08423
  23052031.262     -413161.254 5   -205177.02721
  22094530.996     6047777.760 5   4712533.35721
  19620338.1684  -21528504.53848 -16775430.05264
 91  5  1 22 18 29.9960000  0  5G13G 6G15G19G 2
  22180572.7234   -4687801.93645  -3380443.47361
  19977123.332   -23791177.179 7 -18367785.55623
  23046563.7774    -441899.85045   -227570.68061
  22100013.1764    6076549.85745   4734953.07261
  19619139.6604  -21534802.48848 -16780337.55464
 91  5  1 22 18 44.9960000  0  5G13G 6G15G19G 2
  22167712.8324   -4755374.36545  -3433097.07261
  19971524.949   -23820603.558 7 -18390715.18823
  23041112.8794    -470532.18145   -249881.52161
  22105493.6374    6105379.13645   4757417.34761
  19617952.1454  -21541042.38448 -16785199.81064
 91  5  1 22 18 59.9960000  0  5G13G 6G15G19G 2
  22154866.5664   -4822897.77945  -3485712.50661
  19965934.3324  -23849978.86047 -18413605.02563
  23035685.793     -499059.724 5   -272110.71821
  22110993.9024    6134264.09645   4779925.01661
  19616776.7234  -21547225.73748 -16790018.01464
 91  5  1 22 19 14.9960000  0  5G13G 6G15G19G 2
  22142027.4654   -4890365.36245  -3538284.41661
  19960355.363   -23879296.365 7 -18436449.81923
  23030277.4964    -527475.62245   -294252.93161
  22116499.715     6163210.973 5   4802480.91021
  19615613.9024  -21553346.19248 -16794787.20164
 91  5  1 22 19 29.9960000  0  5G13G 6G15G19G 2
  22129200.2704   -4957782.44445  -3590816.98561
  19954784.949   -23908561.846 7 -18459254.07423
  23024890.9964    -555785.14345   -316312.22461
  22122021.324     6192213.965 5   4825080.54421
  19614457.5664  -21559409.61948 -16799511.95664
 91  5  1 22 19 44.9960000  0  5G13G 6G15G19G 2
  22116376.949    -5025150.439 5  -3643311.30621
  19949226.395   -23937776.556 7 -18482018.76723
  23019517.6064    -583990.09045   -338290.04361
  22127549.660     6221271.235 5   4847722.47321
  19613313.0594  -21565417.63348 -16804193.52764
 91  5  1 22 19 59.9960000  0  5G13G 6G15G19G 2
  22103568.348    -5092471.225 5  -3695768.85321
  19943675.5824  -23966942.88347 -18504745.76963
  23014171.9414    -612092.59345   -360188.04261
  22133091.418     6250380.225 5   4870404.69821
  19612181.3564  -21571372.89348 -16808833.99664
 91  5  1 22 20 14.9960000  0  5G13G 6G15G19G 2
  22090765.4024   -5159739.88545  -3748185.78661
  19938135.949   -23996055.898 7 -18527431.21923
  23008848.777     -640087.618 5   -382002.28321
  22138637.9494    6279545.64445   4893130.90661
  19611059.1214  -21577271.08248 -16813429.99364
 91  5  1 22 20 29.9960000  0  5G13G 6G15G19G 2
  22077972.801    -5226961.088 5  -3800565.72221
  19932605.9264  -24025120.48547 -18550078.93663
  23003541.9884    -667980.03945   -403736.58061
  22144198.434     6308762.330 5   4915897.04121
  19609946.0744  -21583116.97648 -16817985.23964
 91  5  1 22 20 44.9960000  0  5G13G 6G15G19G 2
  22065193.2934   -5294131.46545  -3852906.07061
  19927084.074   -24054133.236 7 -18572686.26123
  22998251.0824    -695766.23445   -425388.12561
  22149768.1684    6338033.36645   4938705.55061
  19608844.4414  -21588907.52848 -16822497.36564
 91  5  1 22 20 59.9960000  0  5G13G 6G15G19G 2
  22052420.324    -5361246.712 5  -3905203.46521
  19921576.152   -24083090.352 7 -18595250.23524
  22992983.801     -723442.298 5   -446953.82521
  22155351.340     6367362.500 5   4961559.31021
  19607751.8324  -21594639.26648 -16826963.65364
 91  5  1 22 21 14.9960000  0  5G13G 6G15G19G 2
  22039659.996    -5428304.096 5  -3957455.79421
  19916076.434   -24111988.922 7 -18617768.58823
  22987740.215     -751005.351 5   -468431.48421
  22160943.676     6396751.987 5   4984460.11121
  19606674.5274  -21600309.82048 -16831382.26964
 91  5  1 22 21 29.9960000  0  5G13G 6G15G19G 2
  22026909.8484   -5495310.42945  -4009668.30961
  19910585.715   -24140836.136 7 -18640246.92023
  22982516.543     -778462.375 5   -489826.51821
  22166546.566     6426194.485 5   5007402.21921
  19605605.3404  -21605926.35148 -16835758.79364
 91  5  1 22 21 44.9960000  0  5G13G 6G15G19G 2
  22014168.4884   -5562262.52945  -4061838.58761
  19905106.887   -24169629.166 7 -18662683.03523
  22977312.0274    -805810.54445   -511136.72561
  22172159.0984    6455692.81445   5030387.82761
  19604547.7314  -21611486.30748 -16840091.22864
 91  5  1 22 21 59.9960000  0  5G13G 6G15G19G 2
  22001436.2074   -5629162.38745  -4113968.17361
  19899637.957   -24198370.075 7 -18685078.53623
  22972128.6764    -833052.08945   -532363.86061
  22177781.7154    6485244.37645   5053414.91161
  19603499.2934  -21616992.20748 -16844381.54664
 91  5  1 22 22 14.9960000  0  5G13G 6G15G19G 2
  21988717.645    -5696007.811 5  -4166055.32121
  19894179.215   -24227056.669 7 -18707431.70223
  22966965.9964    -860184.82045   -553506.21261
  22183416.004     6514851.013 5   5076484.92421
  19602464.0904  -21622442.20548 -16848628.30264
 91  5  1 22 22 29.9960000  0  5G13G 6G15G19G 2
  21976007.6524   -5762805.88745  -4218105.58561
  19888727.895   -24255696.160 7 -18729748.18123
  22961821.7464    -887215.81845   -574569.27561
  22189062.856     6544505.397 5   5099592.13821
  19601436.4814  -21627843.79048 -16852837.32764
 91  5  1 22 22 44.9960000  0  5G13G 6G15G19G 2
  21963305.2934   -5829552.91145  -4270116.08461
  19883288.262   -24284285.338 7 -18752025.44623
  22956696.8014    -914141.59845   -595550.36161
  22194713.9574    6574210.56945   5122738.92461
  19600416.8714  -21633193.89248 -16857006.24164
 91  5  1 22 22 59.9960000  0  5G13G 6G15G19G 2
  21950614.2314   -5896242.13745  -4322081.56061
  19877859.191   -24312817.415 7 -18774258.22023
  22951593.2624    -940955.35045   -616444.12361
  22200376.746     6603972.694 5   5145930.08721
  19599409.1134  -21638486.09448 -16861130.03664
 91  5  1 22 23 14.9960000  0  5G13G 6G15G19G 2
  21937934.738    -5962877.070 5  -4374004.70221
  19872439.949   -24341295.949 7 -18796449.26923
  22946511.418     -967660.670 5   -637253.39721
  22206051.2544    6633788.16445   5169162.83461
  19598413.3714  -21643724.29448 -16865211.75164
 91  5  1 22 23 29.9960000  0  5G13G 6G15G19G 2
  21925262.6994   -6029455.27945  -4425883.65261
  19867030.559   -24369718.689 7 -18818596.84423
  22941452.191     -994254.984 5   -657976.20021
  22211739.191     6663658.857 5   5192438.58921
  19597426.9414  -21648906.43048 -16869249.78264
 91  5  1 22 23 44.9960000  0  5G13G 6G15G19G 2
  21912607.027    -6095968.698 5  -4477712.11821
  19861634.684   -24398077.578 7 -18840694.66124
  22936412.0824   -1020730.51545   -678606.41061
  22217431.9264    6693592.48345   5215763.39361
  19596452.0274  -21654024.81948 -16873238.13764
 91  5  1 22 23 59.9960000  0  5G13G 6G15G19G 2
  21899958.020    -6162426.872 5  -4529497.51721
  19856248.770   -24426382.819 7 -18862750.67724
  22931396.0514   -1047097.31145   -699151.93661
  22223141.426     6723578.767 5   5239129.22621
  19595489.1064  -21659089.76348 -16877184.84664
 91  5  1 22 24 14.9960000  0  5G13G 6G15G19G 2
  21887323.5824   -6228832.49245  -4581241.98961
  19850870.793   -24454637.349 7 -18884767.17824
  22926397.332    -1073358.248 5   -719614.95621
  22228854.5824    6753614.48145   5262533.58061
  19594534.6214  -21664104.61348 -16881092.52464
 91  5  1 22 24 29.9960000  0  5G13G 6G15G19G 2
  21874698.754    -6295171.088 5  -4632934.23721
  19845507.043   -24482826.700 7 -18906732.89223
  22921423.4494   -1099498.92245   -739984.24161
  22234581.270     6783713.799 5   5285987.49421
  19593591.5824  -21669055.18748 -16884950.11464
 91  5  1 22 24 44.9960000  0  5G13G 6G15G19G 2
  21862088.3094   -6361450.42245  -4684580.29461
  19840154.168   -24510958.475 7 -18928653.74123
  22916471.2854   -1125527.00545   -760265.82561
  22240317.145     6813868.606 5   5309484.64921
  19592662.1994  -21673949.62948 -16888763.96564
 91  5  1 22 24 59.9960000  0  5G13G 6G15G19G 2
  21849483.285    -6427673.983 5  -4736182.89821
  19834810.535   -24539036.526 7 -18950532.72523
  22911536.7074   -1151445.91245   -780462.32961
  22246068.410     6844074.952 5   5333021.95421
  19591738.1914  -21678792.01348 -16892537.25064
 91  5  1 22 25 14.9960000  0  5G13G 6G15G19G 2
  21836891.5434   -6493844.14745  -4787743.89061
  19829476.207   -24567063.184 7 -18972371.66823
  22906628.5204   -1177258.34245   -800575.86961
  22251825.606     6874329.978 5   5356597.19821
  19590828.4884  -21683585.03448 -16896272.07764
 91  5  1 22 25 29.9960000  0  5G13G 6G15G19G 2
  21824310.4964   -6559949.08545  -4839254.03761
  19824155.348   -24595027.455 7 -18994161.99123
  22901736.3634   -1202952.93445   -820597.56661
  22257595.832     6904644.657 5   5380218.92121
  19589928.1914  -21688317.51048 -16899959.72064
 91  5  1 22 25 44.9960000  0  5G13G 6G15G19G 2
  21811743.809    -6625992.548 5  -4890716.29721
  19818844.348   -24622932.843 7 -19015906.43623
  22896871.051    -1228533.363 5   -840530.30821
  22263370.277     6935015.051 5   5403884.05821
  19589038.8014  -21692993.51448 -16903603.36264
 91  5  1 22 25 59.9960000  0  5G13G 6G15G19G 2
  21799189.8404   -6691970.44445  -4942127.46861
  19813547.793   -24650775.019 7 -19037601.62624
  22892022.871    -1253995.315 5   -860370.74921
  22269161.6064    6965445.00745   5427595.61361
  19588158.5434  -21697609.15548 -16907199.96864
 91  5  1 22 26 14.9960000  0  5G13G 6G15G19G 2
  21786643.9344   -6757894.83745  -4993496.95561
  19808258.762   -24678566.451 7 -19059257.27123
  22887203.5664   -1279351.12545   -880128.48561
  22274960.4414    6995921.93145   5451343.76361
  19587290.5824  -21702177.26348 -16910759.53564
 91  5  1 22 26 29.9960000  0  5G13G 6G15G19G 2
  21774109.746    -6823758.623 5  -5044819.20921
  19802981.793   -24706300.434 7 -19080868.15124
  22882392.1524   -1304593.89945   -899798.13561
  22280771.324     7026452.286 5   5475133.55621
  19586430.4494  -21706690.98548 -16914276.71964
 91  5  1 22 26 44.9960000  0  5G13G 6G15G19G 2
  21761589.8324   -6889557.81745  -5096091.11561
  19797716.770   -24733972.922 7 -19102431.11523
  22877612.1064   -1329719.70345   -919376.64461
  22286593.137     7057039.777 5   5498967.85421
  19585582.5274  -21711146.97948 -16917748.92564
 91  5  1 22 26 59.9960000  0  5G13G 6G15G19G 2
  21749082.4104   -6955296.51245  -5147315.90461
  19792461.3564  -24761588.24147 -19123949.53464
  22872855.4024   -1354732.68045   -938867.24061
  22292423.2854    7087679.82945   5522843.10161
  19584746.0904  -21715549.68248 -16921179.60664
 91  5  1 22 27 14.9960000  0  5G13G 6G15G19G 2
  21736583.0514   -7020966.44645  -5198487.10461
  19787219.465   -24789138.392 7 -19145417.16824
  22868120.5514   -1379624.80345   -958263.65861
  22298264.965     7118380.174 5   5546765.34721
  19583919.6134  -21719891.33648 -16924562.71364
 91  5  1 22 27 29.9960000  0  5G13G 6G15G19G 2
  21724098.535    -7086572.467 5  -5249608.52421
  19781986.879   -24816628.079 7 -19166837.69324
  22863402.231    -1404401.487 5   -977570.13321
  22304119.504     7149135.387 5   5570730.34521
  19583103.2234  -21724177.30948 -16927902.43764
 91  5  1 22 27 44.9960000  0  5G13G 6G15G19G 2
  21711622.535    -7152122.145 5  -5300686.01421
  19776765.934   -24844065.231 7 -19188217.27324
  22858707.426    -1429069.716 5   -996792.08421
  22309979.473     7179937.691 5   5594732.03821
  19582297.4574  -21728415.45248 -16931204.88864
 91  5  1 22 27 59.9960000  0  5G13G 6G15G19G 2
  21699165.2234   -7217605.14245  -5351711.55661
  19771556.1604  -24871439.78347 -19209548.08264
  22854036.6374   -1453619.40245  -1015921.68761
  22315856.5274    7210796.86645   5618778.03161
  19581501.9414  -21732596.04048 -16934462.48964
 91  5  1 22 28 14.9960000  0  5G13G 6G15G19G 2
  21686714.1844   -7283025.02045  -5402687.90461
  19766358.434   -24898755.492 7 -19230833.03624
  22849386.832    -1478054.681 5  -1034962.10921
  22321734.5744    7241708.86045   5642865.17561
  19580715.6684  -21736723.09648 -16937678.37664
 91  5  1 22 28 29.9960000  0  5G13G 6G15G19G 2
  21674281.5904   -7348374.23345  -5453609.19461
  19761172.6764  -24926004.89647 -19252066.32364
  22844759.3324   -1502367.83945  -1053907.36961
  22327630.7774    7272680.68845   5666998.95261
  19579942.1454  -21740789.55148 -16940847.04364
 91  5  1 22 28 44.9960000  0  5G13G 6G15G19G 2
  21661855.020    -7413663.948 6  -5504484.11721
  19755998.106   -24953199.244 7 -19273256.71124
  22840155.0664   -1526570.25345  -1072766.34761
  22333532.934     7303700.836 5   5691170.38521
  19579179.0204  -21744806.87748 -16943977.42964
 91  5  1 22 28 59.9960000  0  5G13G 6G15G19G 2
  21649445.543    -7478881.017 6  -5555302.45321
  19750837.223   -24980325.674 7 -19294394.17624
  22835575.7384   -1550648.96345  -1091528.95361
  22339447.2314    7334781.97645   5715389.34861
  19578425.5354  -21748762.40248 -16947059.66064
 91  5  1 22 29 14.9960000  0  5G13G 6G15G19G 2
  21637050.668    -7544025.183 5  -5606063.95521
  19745687.2624  -25007383.91147 -19315478.50764
  22831017.043    -1574603.879 5  -1110195.08721
  22345372.9884    7365923.96745   5739655.71561
  19577685.1524  -21752656.58648 -16950094.09164
 91  5  1 22 29 29.9960000  0  5G13G 6G15G19G 2
  21624664.8564   -7609094.02845  -5656766.78161
  19740552.176   -25034371.719 7 -19336507.95724
  22826485.7234   -1598432.76045  -1128763.00261
  22351313.9494    7397128.83145   5763971.07961
  19576956.4184  -21756487.26848 -16953079.03564
 91  5  1 22 29 44.9960000  0  5G13G 6G15G19G 2
  21612298.9734   -7674088.22346  -5707411.43161
  19735428.387   -25061289.904 7 -19357483.15124
  22821970.6214   -1622136.25345  -1147233.22461
  22357258.6994    7428395.32645   5788334.46561
  19576238.9104  -21760255.49548 -16956015.32164
 91  5  1 22 29 59.9960000  0  5G13G 6G15G19G 2
  21599943.5044   -7739011.19346  -5758000.58261
  19730319.223   -25088142.084 7 -19378406.91324
  22817482.3874   -1645717.80245  -1165608.39461
  22363224.598     7459719.511 5   5812742.80921
  19575532.8164  -21763965.10948 -16958905.93064
 91  5  1 22 30 14.9960000  0  5G13G 6G15G19G 2
  21587602.731    -7803858.674 6  -5808530.90921
  19725223.2774  -25114923.95647 -19399275.89464
  22813015.746    -1669173.424 5  -1183885.47121
  22369192.004     7491105.215 5   5837199.09121
  19574839.4184  -21767612.34248 -16961747.93364
 91  5  1 22 30 29.9960000  0  5G13G 6G15G19G 2
  21575277.4814   -7868628.55346  -5859000.78161
  19720139.856   -25141633.831 7 -19420088.77124
  22808580.6134   -1692501.05645  -1202062.82861
  22375182.848     7522554.184 5   5861704.67221
  19574157.0124  -21771195.50648 -16964540.00964
 91  5  1 22 30 44.9960000  0  5G13G 6G15G19G 2
  21562965.8164   -7933321.98646  -5909411.06561
  19715071.121   -25168273.026 7 -19440846.56824
  22804163.723    -1715702.051 5  -1220141.45621
  22381175.8244    7554064.69045   5886258.19261
  19573487.4814  -21774716.24148 -16967283.44564
 91  5  1 22 30 59.9960000  0  5G13G 6G15G19G 2
  21550671.0904   -7997942.89446  -5959764.85561
  19710015.059   -25194845.245 7 -19461552.18024
  22799776.941    -1738780.458 5  -1238124.60021
  22387183.988     7585632.519 5   5910856.38321
  19572828.5204  -21778178.84348 -16969981.57864
 91  5  1 22 31 14.9960000  0  5G13G 6G15G19G 2
  21538385.910    -8062484.791 5  -6010057.07721
  19704970.957   -25221344.352 7 -19482200.81924
  22795402.3794   -1761729.96645  -1256007.31761
  22393202.902     7617263.525 5   5935503.81221
  19572180.4964  -21781577.34748 -16972629.76864
 91  5  1 22 31 29.9960000  0  5G13G 6G15G19G 2
  21526119.8484   -8126954.84446  -6060293.31161
  19699942.027   -25247777.767 7 -19502798.27224
  22791059.418    -1784557.744 5  -1273795.15021
  22399231.6684    7648950.17345   5960194.59861
  19571545.1134  -21784919.24648 -16975233.84964
 91  5  1 22 31 44.9960000  0  5G13G 6G15G19G 2
  21513865.332    -8191349.399 6  -6110470.71221
  19694925.184   -25274142.114 7 -19523341.90124
  22786742.441    -1807260.575 5  -1291485.61921
  22405271.1844    7680695.57745   5984931.15561
  19570921.6764  -21788201.54448 -16977791.48564
 91  5  1 22 31 59.9960000  0  5G13G 6G15G19G 2
  21501623.6604   -8255668.36746  -6160589.22261
  19689920.957   -25300437.137 7 -19543831.51624
  22782444.871    -1829838.251 5  -1309078.55921
  22411329.5204    7712499.37645   6009713.22361
  19570307.3244  -21791424.41048 -16980302.81464
 91  5  1 22 32 14.9960000  0  5G13G 6G15G19G 2
  21489399.1294   -8319909.42546  -6210647.01561
  19684929.559   -25326660.889 7 -19564265.59224
  22778172.4734   -1852288.73145  -1326572.39461
  22417388.027     7744363.319 5   6034542.15221
  19569705.0664  -21794586.13848 -16982766.49964
 91  5  1 22 32 29.9960000  0  5G13G 6G15G19G 2
  21477188.5594   -8384073.79546  -6260645.04861
  19679955.191   -25352814.557 7 -19584645.05924
  22773922.309    -1874613.200 5  -1343968.04421
  22423464.520     7776285.875 5   6059416.76021
  19569115.4344  -21797688.32148 -16985183.78764
 91  5  1 22 32 44.9960000  0  5G13G 6G15G19G 2
  21464993.9884   -8448163.05246  -6310584.55061
  19674989.699   -25378900.077 7 -19604971.42424
  22769699.668    -1896813.594 5  -1361267.00521
  22429547.481     7808265.011 5   6084335.45421
  19568536.3094  -21800732.84748 -16987556.14664
 91  5  1 22 32 59.9960000  0  5G13G 6G15G19G 2
  21452811.481    -8512180.532 6  -6360468.13321
  19670040.652   -25404920.909 7 -19625247.38224
  22765492.332    -1918893.526 5  -1378472.09421
  22435645.8794    7840296.64145   6109295.05561
  19567966.4104  -21803723.72148 -16989886.70064
 91  5  1 22 33 14.9960000  0  5G13G 6G15G19G 2
  21440643.2774   -8576125.76846  -6410295.40561
  19665098.176   -25430876.633 7 -19645472.60724
  22761320.582    -1940852.610 5  -1395583.02421
  22441749.738     7872381.083 5   6134295.80821
  19567408.1214  -21806660.77348 -16992175.31864
 91  5  1 22 33 29.9960000  0  5G13G 6G15G19G 2
  21428487.879    -8639995.979 6  -6460064.23621
  19660172.621   -25456764.676 7 -19665645.09124
  22757166.043    -1962688.254 5  -1412597.76521
  22447863.2704    7904520.51045   6159339.39061
  19566859.3404  -21809541.72348 -16994420.21764
 91  5  1 22 33 44.9960000  0  5G13G 6G15G19G 2
  21416348.9104   -8703794.28846  -6509777.02361
  19655258.684   -25482588.362 7 -19685767.42924
  22753030.4964   -1984403.69645  -1429518.83461
  22453989.543     7936711.247 5   6184422.98421
  19566320.5434  -21812370.26048 -16996624.27664
 91  5  1 22 33 59.9960000  0  5G13G 6G15G19G 2
  21404219.6064   -8767513.09946  -6559427.86661
  19650357.504   -25508339.940 7 -19705833.57524
  22748925.387    -2005991.326 5  -1446340.31121
  22460128.2384    7968960.89345   6209552.45661
  19565795.0044  -21815138.88948 -16998781.65264
 91  5  1 22 34 14.9960000  0  5G13G 6G15G19G 2
  21392109.160    -8831160.885 6  -6609023.37421
  19645470.996   -25534027.853 7 -19725850.11524
  22744844.121    -2027459.735 6  -1463068.87821
  22466275.309     8001260.512 5   6234720.87821
  19565277.0434  -21817856.53748 -17000899.29964
 91  5  1 22 34 29.9960000  0  5G13G 6G15G19G 2
  21380014.2624   -8894732.90646  -6658559.83361
  19640594.387   -25559647.977 7 -19745813.83124
  22740775.4964   -2048804.60345  -1479701.20761
  22472431.762     8033614.196 5   6259931.42521
  19564771.0354  -21820519.07448 -17002974.00664
 91  5  1 22 34 44.9960000  0  5G13G 6G15G19G 2
  21367930.277    -8958233.560 6  -6708040.69521
  19635732.637   -25585204.676 7 -19765728.11924
  22736736.0044   -2070030.34045  -1496240.69961
  22478597.7624    8066017.16645   6285180.37361
  19564273.0744  -21823131.49048 -17005009.65764
 91  5  1 22 34 59.9960000  0  5G13G 6G15G19G 2
  21355861.2544   -9021658.79246  -6757462.76661
  19630882.504   -25610694.092 7 -19785589.98724
  22732720.5514   -2091132.82045  -1512684.14561
  22484778.0514    8098472.94345   6310470.46861
  19563786.7934  -21825689.99148 -17007003.29564
 91  5  1 22 35 14.9960000  0  5G13G 6G15G19G 2
  21343805.465    -9085008.888 6  -6806826.31321
  19626043.090   -25636116.551 7 -19805399.67824
  22728726.066    -2112112.664 5  -1529032.01821
  22490959.1604    8130980.69745   6335801.05961
  19563310.0124  -21828195.20948 -17008955.41564
 91  5  1 22 35 29.9960000  0  5G13G 6G15G19G 2
  21331766.2234   -9148283.97546  -6856131.39461
  19621218.512   -25661472.618 7 -19825157.63624
  22724762.254    -2132970.359 5  -1545284.73521
  22497156.582     8163539.667 5   6361171.56921
  19562842.9884  -21830648.10648 -17010866.76764
 91  5  1 22 35 44.9960000  0  5G13G 6G15G19G 2
  21319737.777    -9211483.221 6  -6905377.40021
  19616404.410   -25686761.487 7 -19844863.22924
  22720816.863    -2153705.086 5  -1561441.61221
  22503360.7314    8196150.23645   6386582.28461
  19562386.5664  -21833048.12848 -17012736.91764
 91  5  1 22 35 59.9960000  0  5G13G 6G15G19G 2
  21307726.2544   -9274608.98246  -6954566.13461
  19611603.668   -25711985.457 7 -19864518.25724
  22716891.566    -2174319.308 5  -1577504.60321
  22509580.004     8228809.801 5   6412031.18721
  19561938.7154  -21835397.84848 -17014567.87164
 91  5  1 22 36 14.9960000  0  5G13G 6G15G19G 2
  21295724.4184   -9337659.06546  -7003695.88961
  19606817.809   -25737142.556 7 -19884121.17124
  22712994.473    -2194810.948 5  -1593472.07321
  22515797.965     8261519.955 5   6437519.50121
  19561501.6764  -21837695.39248 -17016358.16664
 91  5  1 22 36 29.9960000  0  5G13G 6G15G19G 2
  21283738.981    -9400640.909 6  -7052772.47921
  19602042.707   -25762240.430 7 -19903677.94524
  22709115.9494   -2215187.85246  -1609350.13661
  22522033.754     8294272.733 5   6463041.03821
  19561072.2074  -21839948.95748 -17018114.19464
 91  5  1 22 36 44.9960000  0  5G13G 6G15G19G 2
  21271770.1294   -9463549.49146  -7101791.98661
  19597278.629   -25787274.281 7 -19923184.82524
  22705260.246    -2235444.937 6  -1625134.84121
  22528275.4654    8327072.80045   6488599.41561
  19560653.0664  -21842153.89648 -17019832.33464
 91  5  1 22 36 59.9960000  0  5G13G 6G15G19G 2
  21259812.363    -9526381.644 6  -7150751.93721
  19592528.066   -25812240.654 7 -19942639.12024
  22701425.5274   -2255578.95945  -1640823.64661
  22534527.3484    8359923.09145   6514196.94061
  19560243.8404  -21844307.24548 -17021510.26864
 91  5  1 22 37 14.9960000  0  5G13G 6G15G19G 2
  21247869.7074   -9589140.72046  -7199654.93861
  19587788.887   -25837143.192 7 -19962043.68124
  22697614.981    -2275593.817 5  -1656419.61421
  22540788.949     8392819.670 5   6539830.53121
  19559843.1684  -21846412.85148 -17023150.99964
 91  5  1 22 37 29.9960000  0  5G13G 6G15G19G 2
  21235941.535    -9651820.742 6  -7248496.34121
  19583062.121   -25861976.200 7 -19981394.05924
  22693834.2234   -2295483.64245  -1671918.10661
  22547057.1134    8425768.03145   6565504.46061
  19559451.9264  -21848465.21248 -17024750.24164
 91  5  1 22 37 44.9960000  0  5G13G 6G15G19G 2
  21224029.449    -9714427.615 6  -7297280.75121
  19578350.379   -25886745.665 7 -20000694.92324
  22690069.8564   -2315254.32045  -1687323.77261
  22553336.106     8458761.849 5   6591213.79121
  19559071.5744  -21850470.54348 -17026312.84164
 91  5  1 22 37 59.9960000  0  5G13G 6G15G19G 2
  21212128.176    -9776960.344 6  -7346007.37721
  19573648.512   -25911450.683 7 -20019945.56924
  22686334.3874   -2334905.30845  -1702636.16661
  22559625.2074    8491801.56645   6616958.90161
  19558699.5124  -21852428.34548 -17027838.40464
 91  5  1 22 38 14.9960000  0  5G13G 6G15G19G 2
  21200244.559    -9839412.402 6  -7394671.14921
  19568960.6374  -25936085.10247 -20039141.20864
  22682614.8404   -2354430.29245  -1717850.36461
  22565915.535     8524893.108 5   6642744.39621
  19558335.8634  -21854332.79148 -17029322.38864
 91  5  1 22 38 29.9960000  0  5G13G 6G15G19G 2
  21188375.6294   -9901783.11346  -7443271.52761
  19564285.301   -25960648.230 7 -20058281.29424
  22678926.2154   -2373828.62445  -1732965.88961
  22572228.5664    8558036.74345   6668570.48561
  19557984.5664  -21856183.47648 -17030764.47964
 91  5  1 22 38 44.9960000  0  5G13G 6G15G19G 2
  21176523.613    -9964074.578 6  -7491810.16121
  19559626.145   -25985142.310 7 -20077367.57624
  22675253.113    -2393102.288 5  -1747984.25721
  22578539.816     8591230.023 5   6694435.24421
  19557642.5664  -21857983.02948 -17032166.73064
 91  5  1 22 38 59.9960000  0  5G13G 6G15G19G 2
  21164683.137   -10026287.432 6  -7540287.54121
  19554977.4414  -26009568.09947 -20096400.64764
  22671610.3564   -2412252.20945  -1762906.20661
  22584870.7704    8624471.96945   6720337.94461
  19557310.3404  -21859732.38048 -17033529.86464
 91  5  1 22 39 14.9960000  0  5G13G 6G15G19G 2
  21152860.238   -10088421.987 6  -7588703.91521
  19550342.395   -26033926.111 7 -20115380.89824
  22667993.5204   -2431279.23345  -1777732.40861
  22591203.4654    8657761.53045   6746277.73961
  19556985.8164  -21861432.36148 -17034854.52764
 91  5  1 22 39 29.9960000  0  5G13G 6G15G19G 2
  21141049.738   -10150479.299 6  -7637060.10721
  19545719.832   -26058217.524 7 -20134309.25624
  22664395.871    -2450184.241 5  -1792463.52421
  22597550.5274    8691097.20645   6772253.48461
  19556670.8094  -21863084.34048 -17036141.78064
 91  5  1 22 39 44.9960000  0  5G13G 6G15G19G 2
  21129257.707   -10212455.864 6  -7685353.36821
  19541110.684   -26082438.661 7 -20153182.85424
  22660821.270    -2468964.053 5  -1807097.09021
  22603902.4654    8724482.22545   6798267.66761
  19556365.8164  -21864685.25148 -17037389.24664
 91  5  1 22 39 59.9960000  0  5G13G 6G15G19G 2
  21117479.301   -10274347.931 6  -7733580.79021
  19536514.926   -26106586.132 7 -20171999.05124
  22657271.6844   -2487614.97645  -1821630.23061
  22610264.9344    8757919.78744   6824322.79961
  19556072.7624  -21866231.85148 -17038594.38964
 91  5  1 22 40 14.9960000  0  5G13G 6G15G19G 2
  21105713.3954  -10336166.81246  -7781751.18761
  19531932.887   -26130671.148 7 -20190766.58124
  22653744.2074   -2506148.33945  -1836071.77561
  22616635.863     8791398.123 5   6850409.71221
  19555784.7934  -21867735.70348 -17039766.22364
 91  5  1 22 40 29.9960000  0  5G13G 6G15G19G 2
  21093966.9964  -10397902.74246  -7829856.94761
  19527362.699   -26154684.499 7 -20209478.26624
  22650246.074    -2524554.930 5  -1850414.53121
  22623016.6914    8824926.36944   6876535.49861
  19555509.4964  -21869187.56848 -17040897.54564
 91  5  1 22 40 44.9960000  0  5G13G 6G15G19G 2
  21082231.2704  -10459562.39946  -7877903.27061
  19522803.9574  -26178632.79247 -20228139.26264
  22646764.3244   -2542841.63045  -1864663.85761
  22629405.684     8858497.696 5   6902694.85921
  19555241.8014  -21870594.59348 -17041993.92764
 91  5  1 22 40 59.9950000  0  5G13G 6G15G19G 2
  21070515.1324  -10521137.54346  -7925883.74761
  19518263.116   -26202510.351 7 -20246745.13924
  22643309.3584   -2561003.04145  -1878815.56461
  22635805.335     8892113.512 5   6928888.88821
  19554982.8744  -21871952.95248 -17043052.39364
 91  5  1 22 41 14.9950000  0  5G13G 6G15G19G 2
  21058814.476   -10582638.081 6  -7973806.07721
  19513730.499   -26226321.991 7 -20265299.64824
  22639873.5074   -2579043.24245  -1892872.80361
  22642206.5234    8925776.17544   6955119.41061
  19554733.0154  -21873264.69048 -17044074.52464
 91  5  1 22 41 29.9950000  0  5G13G 6G15G19G 2
  21047126.2414  -10644054.89146  -8021663.18161
  19509213.038   -26250061.497 7 -20283797.95024
  22636469.890    -2596956.517 5  -1906831.14021
  22648624.0234    8959487.94244   6981388.20261
  19554493.8664  -21874525.23848 -17045056.77064
 91  5  1 22 41 44.9950000  0  5G13G 6G15G19G 2
  21035456.4914  -10705386.10446  -8069453.58461
  19504709.015   -26273727.135 7 -20302238.69024
  22633079.843    -2614741.187 5  -1920689.25821
  22655044.890     8993250.058 4   7007696.23021
  19554261.6944  -21875733.49348 -17045998.26464
 91  5  1 22 41 59.9950000  0  5G13G 6G15G19G 2
  21023801.921   -10766636.725 6  -8117181.18121
  19500218.624   -26297324.025 7 -20320625.86424
  22629720.4684   -2632402.30245  -1934451.11661
  22661482.5854    9027057.06944   7034039.23061
  19554042.0934  -21876894.61848 -17046903.03664
 91  5  1 22 42 14.9950000  0  5G13G 6G15G19G 2
  21012158.4914  -10827803.52246  -8164843.47261
  19495743.288   -26320849.017 7 -20338957.01024
  22626384.780    -2649936.923 6  -1948114.41121
  22667917.9994    9060911.90044   7060419.49761
  19553831.2804  -21878005.75248 -17047768.85364
 91  5  1 22 42 29.9950000  0  5G13G 6G15G19G 2
  21000535.8664  -10888888.84846  -8212442.26361
  19491277.640   -26344304.532 7 -20357234.02024
  22623067.226    -2667347.518 5  -1961681.06221
  22674379.0234    9094811.67944   7086834.78661
  19553627.9134  -21879069.66248 -17048597.87564
 91  5  1 22 42 44.9950000  0  5G13G 6G15G19G 2
  20988926.7334  -10949886.72846  -8259972.93161
  19486829.593   -26367684.755 7 -20375452.36024
  22619782.3744   -2684628.40546  -1975146.62161
  22680831.5694    9128761.86244   7113289.34961
  19553436.0624  -21880080.90648 -17049385.86064
 91  5  1 22 42 59.9950000  0  5G13G 6G15G19G 2
  20977335.1714  -11010798.31246  -8307436.34861
  19482394.6794  -26390991.03347 -20393613.08664
  22616517.5624   -2701780.61146  -1988511.93061
  22687305.530     9162760.737 4   7139781.86621
  19553255.0934  -21881041.08248 -17050134.05164
 91  5  1 22 43 14.9950000  0  5G13G 6G15G19G 2
  20965759.7964  -11071620.48846  -8354830.09761
  19477974.812   -26414220.503 7 -20411713.95724
  22613279.8824   -2718801.45946  -2001774.87561
  22693785.9054    9196810.92744   7166314.37161
  19553080.6484  -21881947.57948 -17050840.41564
 91  5  1 22 43 29.9950000  0  5G13G 6G15G19G 2
  20954202.7574  -11132360.28746  -8402159.66861
  19473568.366   -26437380.146 7 -20429760.42124
  22610063.710    -2735698.348 6  -2014941.22721
  22700272.390     9230905.163 4   7192881.18921
  19552919.1244  -21882807.46948 -17051510.46464
 91  5  1 22 43 44.9950000  0  5G13G 6G15G19G 2
  20942663.687   -11193016.338 6  -8449423.96921
  19469173.8744  -26460468.60847 -20447751.41864
  22606871.7654   -2752469.79446  -2028009.85961
  22706767.2804    9265044.33244   7219483.02561
  19552762.2024  -21883619.95348 -17052143.57164
 91  5  1 22 43 59.9950000  0  5G13G 6G15G19G 2
  20931131.7264  -11253585.67146  -8496620.70761
  19464793.5464  -26483483.11347 -20465684.78464
  22603705.0694   -2769113.06845  -2040978.60661
  22713275.0624    9299230.69544   7246121.62961
  19552617.5464  -21884382.58848 -17052737.83864
 91  5  1 22 44 14.9950000  0  5G13G 6G15G19G 2
  20919624.9684  -11314064.89846  -8543747.23061
  19460428.882   -26506420.477 7 -20483558.04324
  22600565.4374   -2785624.91145  -2053844.93461
  22719788.5694    9333467.46244   7272799.51361
  19552483.2334  -21885092.17448 -17053290.76864
 91  5  1 22 44 29.9950000  0  5G13G 6G15G19G 2
  20908132.2884  -11374459.84546  -8590808.07061
  19456078.788   -26529286.498 7 -20501375.70724
  22597446.9294   -2802011.24546  -2066613.47361
  22726318.4214    9367748.32043   7299511.73761
  19552353.6404  -21885754.99048 -17053807.25364
 91  5  1 22 44 44.9950000  0  5G13G 6G15G19G 2
  20896657.687   -11434765.631 6  -8637799.44821
  19451741.944   -26552076.375 7 -20519134.04124
  22594349.4374   -2818267.37845  -2079280.53861
  22732842.413     9402077.688 4   7326261.77721
  19552238.5234  -21886366.51848 -17054283.77364
 91  5  1 22 44 59.9950000  0  5G13G 6G15G19G 2
  20885197.929   -11494985.208 6  -8684723.63521
  19447418.562   -26574793.367 7 -20536835.58323
  22591283.9294   -2834396.85246  -2091848.93361
  22739387.515     9436451.943 3   7353046.81421
  19552130.8044  -21886930.40048 -17054723.16764
 91  5  1 22 45 14.9950000  0  5G13G 6G15G19G 2
  20873753.5694  -11555121.18646  -8731582.68661
  19443109.023   -26597439.940 7 -20554482.24624
  22588235.515    -2850402.108 6  -2104320.50121
  22745933.913     9470868.346 4   7379864.65921
  19552035.4294  -21887449.35848 -17055127.55464
 91  5  1 22 45 29.9950000  0  5G13G 6G15G19G 2
  20862326.6874  -11615171.37946  -8778374.88761
  19438813.4994  -26620014.27747 -20572072.63264
  22585214.6554   -2866281.34245  -2116693.90461
  22752490.2574    9505328.60243   7406716.70061
  19551943.6164  -21887921.67548 -17055495.59764
 91  5  1 22 45 44.9950000  0  5G13G 6G15G19G 2
  20850916.2884  -11675132.18846  -8825097.45161
  19434532.3584  -26642512.80547 -20589603.93763
  22582218.007    -2882031.104 5  -2128966.39021
  22759057.507     9539835.590 3   7433605.13821
  19551865.1164  -21888344.28748 -17055824.91164
 91  5  1 22 45 59.9950000  0  5G13G 6G15G19G 2
  20839522.4524  -11735007.28146  -8871753.21661
  19430264.273   -26664939.371 7 -20607079.17224
  22579242.8744   -2897655.34345  -2141141.04961
  22765632.241     9574385.181 3   7460526.77621
  19551793.3274  -21888721.19848 -17056118.61264
 91  5  1 22 46 14.9950000  0  5G13G 6G15G19G 2
  20828146.2334  -11794790.40946  -8918337.32661
  19426011.7414  -26687287.58747 -20624493.35464
  22576294.0774   -2913147.73545  -2153213.02861
  22772217.6634    9608983.51743   7487486.38761
  19551728.4374  -21889046.39248 -17056372.01464
 91  5  1 22 46 29.9950000  0  5G13G 6G15G19G 2
  20816784.2574  -11854484.10746  -8964851.74061
  19421774.187   -26709560.262 7 -20641848.67124
  22573369.608    -2928511.054 5  -2165184.38721
  22778809.4994    9643627.59443   7514481.65761
  19551678.3274  -21889322.95248 -17056587.51864
 91  5  1 22 46 44.9950000  0  5G13G 6G15G19G 2
  20805443.3434  -11914092.54846  -9011299.72161
  19417548.046   -26731761.926 7 -20659148.65524
  22570471.108    -2943749.947 5  -2177058.80121
  22785410.7024    9678312.29743   7541508.59561
  19551633.7334  -21889555.80348 -17056768.96764
 91  5  1 22 46 59.9950000  0  5G13G 6G15G19G 2
  20794118.3044  -11973607.42346  -9057674.80361
  19413338.6944  -26753884.20147 -20676386.78264
  22567598.694    -2958856.067 5  -2188829.75421
  22792022.3124    9713045.67843   7568573.43361
  19551599.3354  -21889736.64848 -17056909.88864
 91  5  1 22 47 14.9950000  0  5G13G 6G15G19G 2
  20782811.5384  -12033026.16746  -9103974.96161
  19409143.687   -26775924.490 7 -20693561.00624
  22564748.6714   -2973827.03846  -2200495.40861
  22798641.8274    9747829.81743   7595677.84861
  19551575.0304  -21889863.40948
 91  5  1 22 47 29.9950000  0  5G13G 6G15G19G 2
  20771519.6404  -12092357.59346  -9150207.09961
  19404964.999   -26797891.778 7 -20710678.37424
  22561924.882    -2988671.931 6  -2212062.80221
  22805268.780     9782655.689 3   7622814.76121
  19551559.7574  -21889945.25048
 91  5  1 22 47 44.9950000  0  5G13G 6G15G19G 2
  20760247.8584  -12151598.72346  -9196368.86361
  19400798.8194  -26819783.25747 -20727736.65764
  22559125.3824   -3003388.04946  -2223529.86961
  22811900.8274    9817525.68543   7649986.07661
  19551551.4444  -21889979.68548
 91  5  1 22 47 59.9950000  0  5G13G 6G15G19G 2
  20748992.3194  -12210744.40546  -9242456.25661
  19396647.2334  -26841593.94047 -20744731.99064
  22556349.179    -3017970.350 6  -2234892.64721
  22818552.960     9852444.285 3   7677195.24121
  19551555.7734  -21889961.90548
 91  5  1 22 48 14.9950000  0  5G13G 6G15G19G 2
  20737753.7964  -12269802.77246  -9288475.61561
  19392511.1244  -26863332.16747 -20761670.86164
  22553597.7104   -3032427.25346  -2246157.73561
  22825190.163     9887402.878 2   7704435.59221
  19551569.0694  -21889900.52148
 91  5  1 22 48 29.9950000  0  5G13G 6G15G19G 2
  20726531.9374  -12328769.89146  -9334423.87261
  19388389.6404  -26884993.76647 -20778550.02163
  22550869.913    -3046754.872 6  -2257322.05121
  22831860.374     9922405.276 2   7731710.08921
  19551586.2494  -21889791.87248
 91  5  1 22 48 44.9950000  0  5G13G 6G15G19G 2
  20715328.9054  -12387641.69646  -9380297.85761
  19384282.7884  -26906574.99047 -20795366.55564
  22548172.0384   -3060949.44646  -2268382.70061
  22838531.0234    9957455.08343   7759021.51561
  19551617.6244  -21889632.09548
 91  5  1 22 48 59.9950000  0  5G13G 6G15G19G 2
  20704140.5384  -12446414.98746  -9426095.08261
  19380191.4834  -26928072.62047 -20812117.94664
  22545496.5154   -3075007.96946  -2279337.35461
  22845210.4134    9992554.77442   7786371.76761
  19551659.0074  -21889418.64048
 91  5  1 22 49 14.9950000  0  5G13G 6G15G19G 2
  20692978.2964  -12505102.22146  -9471825.25061
  19376113.9604  -26949499.28747 -20828814.04164
  22542843.5544   -3088943.06646  -2290195.80661
  22851889.038    10027691.604 2   7813750.97321
  19551706.9914  -21889164.23048 -17056463.89064
 91  5  1 22 49 29.9950000  0  5G13G 6G15G19G 2
  20681825.515   -12563696.289 6  -9517482.82321
  19372053.4444  -26970847.98347 -20845449.38064
  22540215.9374   -3102747.79246  -2300952.71361
  22858595.4134   10062872.21842   7841164.35661
  19551763.4764  -21888862.23448 -17056228.57664
 91  5  1 22 49 44.9950000  0  5G13G 6G15G19G 2
  20670693.9134  -12622196.83246  -9563067.52161
  19368004.4994  -26992118.44747 -20862023.76363
  22537615.226    -3116421.968 6  -2311607.86321
  22865294.187    10098096.498 3   7868611.70321
  19551832.7964  -21888512.76048 -17055956.26064
 91  5  1 22 49 59.9950000  0  5G13G 6G15G19G 2
  20659580.952   -12680602.178 6  -9608578.03921
  19363971.6874  -27013309.31747 -20878536.12164
  22535037.0154   -3129964.18746  -2322160.21961
  22872005.5934   10133365.61942   7896094.01361
  19551907.1554  -21888114.41948 -17055645.87164
 91  5  1 22 50 14.9950000  0  5G13G 6G15G19G 2
  20648484.374   -12738913.837 6  -9654015.55121
  19359955.1634  -27034421.91147 -20894987.48264
  22532480.179    -3143376.279 5  -2332611.14221
  22878724.632    10168677.759 3   7923609.85621
  19551990.6404  -21887669.13048 -17055298.89764
 91  5  1 22 50 29.9950000  0  5G13G 6G15G19G 2
  20637404.429   -12797132.677 6  -9699380.74721
  19355952.7964  -27055457.17447 -20911378.59164
  22529955.2654   -3156658.98045  -2342961.26161
  22885453.976    10204031.607 2   7951158.19521
  19552086.5774  -21887177.86948 -17054916.10164
 91  5  1 22 50 44.9950000  0  5G13G 6G15G19G 2
  20626344.749   -12855251.353 6  -9744667.89021
  19351967.0624  -27076408.00447 -20927703.90364
  22527451.991    -3169805.411 5  -2353205.17821
  22892188.991    10239433.821 2   7978744.21421
  19552189.8744  -21886633.99548 -17054492.30964
 91  5  1 22 50 59.9950000  0  5G13G 6G15G19G 2
  20615303.483   -12913275.644 6  -9789881.48021
  19347992.8274  -27097280.21447 -20943967.95164
  22524977.898    -3182821.576 5  -2363347.60121
  22898934.0234   10274878.26242   8006363.10161
  19552302.6404  -21886043.58948 -17054032.25664
 91  5  1 22 51 14.9950000  0  5G13G 6G15G19G 2
  20604279.241   -12971205.785 6  -9835021.71221
  19344034.9134  -27118074.35247 -20960171.16964
  22522524.257    -3195708.122 5  -2373389.01821
  22905688.8664   10310364.22443   8034014.39361
  19552421.4914  -21885407.12348 -17053536.31464
 91  5  1 22 51 29.9950000  0  5G13G 6G15G19G 2
  20593275.616   -13029035.336 6  -9880083.56521
  19340094.3824  -27138783.90147 -20976308.47163
  22520098.944    -3208458.641 5  -2383324.43221
  22912455.491    10345897.705 2   8061702.72621
  19552554.9214  -21884718.78448 -17052999.94964
 91  5  1 22 51 44.9950000  0  5G13G 6G15G19G 2
  20582290.601   -13086769.160 6  -9925070.82721
  19336168.1404  -27159413.86547 -20992383.75964
  22517697.523    -3221078.068 5  -2393157.71221
  22919220.5624   10381473.52243   8089424.02061
  19552694.3744  -21883983.76648 -17052427.21364
 91  5  1 22 51 59.9950000  0  5G13G 6G15G19G 2
  20571320.030   -13144401.192 6  -9969978.77721
  19332259.4294  -27179958.12047 -21008392.25964
  22515322.249    -3233560.473 6  -2402884.21221
  22925994.9684   10417097.25542   8117182.63561
  19552844.6634  -21883196.21048 -17051813.53565
 91  5  1 22 52 14.9950000  0  5G13G 6G15G19G 2
  20560370.968   -13201936.846 6 -10014811.61821
  19328364.726   -27200422.551 7 -21024338.55524
  22512970.1014   -3245911.80145  -2412508.58861
  22932787.8194   10452762.65843   8144973.76761
  19553003.0774  -21882362.31348 -17051163.75265
 91  5  1 22 52 29.9950000  0  5G13G 6G15G19G 2
  20549443.702   -13259371.430 6 -10059565.71621
  19324488.4604  -27220802.26947 -21040218.84264
  22510648.858    -3258127.523 5  -2422027.29421
  22939586.812    10488474.350 2   8172800.90421
  19553169.9374  -21881477.64948 -17050474.40565
 91  5  1 22 52 44.9950000  0  5G13G 6G15G19G 2
  20538531.9994  -13316711.93746 -10104246.49761
  19320623.585   -27241104.367 7 -21056038.64524
  22508347.312    -3270214.730 6  -2431445.85221
  22946381.4684   10524224.97042   8200658.43761
  19553344.8824  -21880549.22948 -17049750.96664
 91  5  1 22 52 59.9950000  0  4G13G 6G15G 2
  20527637.5934  -13373953.17546 -10148849.93261
  19316775.405   -27261323.731 7 -21071793.97724
  22506072.9134   -3282168.19346  -2440760.19061
  19553532.9834  -21879572.36748 -17048989.77964
 91  5  1 22 53 14.9950000  0  4G13G 6G15G 2
  20516764.8664  -13431091.37546 -10193373.07561
  19312944.210   -27281456.659 7 -21087481.96024
  22503824.2804   -3293984.42545  -2449967.60161
  19553729.9214  -21878543.70348 -17048188.22765
 91  5  1 22 53 29.9950000  0  4G13G 6G15G 2
  20505910.4834  -13488129.43446 -10237818.19961
  19309129.726   -27301506.097 7 -21103104.88924
  22501601.1084   -3305666.78446  -2459070.68961
  19553932.6944  -21877466.53948 -17047348.88764
 91  5  1 22 53 44.9950000  0  4G13G 6G15G 2
  20495075.1404  -13545065.76046 -10282184.04561
  19305331.413   -27321470.686 7 -21118661.69624
  22499404.062    -3317213.868 6  -2468068.37721
  19554148.3664  -21876339.69248 -17046470.82565
 91  5  1 22 53 59.9950000  0  4G13G 6G15G 2
  20484258.851   -13601903.240 6 -10326472.86821
  19301545.7414  -27341353.43247 -21134154.73463
  22497232.4524   -3328628.76146  -2476963.05461
  19554371.1484  -21875166.51648 -17045556.66765
 91  5  1 22 54 14.9950000  0  4G13G 6G15G 2
  20473465.2804  -13658634.19646 -10370678.68561
  19297781.3824  -27361146.87247 -21149578.18464
  22495085.8664   -3339903.96046  -2485748.89461
  19554606.5854  -21873939.65348 -17044600.68065
 91  5  1 22 54 29.9950000  0  4G13G 6G15G 2
  20462688.7964  -13715266.07146 -10414807.30961
  19294030.155   -27380858.384 7 -21164937.79024
  22492965.671    -3351047.123 6  -2494431.83521
  19554846.3434  -21872666.77548 -17043608.82765
 91  5  1 22 54 44.9950000  0  4G13G 6G15G 2
  20451930.9214  -13771794.32446 -10458855.17261
  19290294.0774  -27400483.51147 -21180230.08763
  22490870.179    -3362054.001 5  -2503008.58421
  19555098.9604  -21871343.68648 -17042577.85664
 91  5  1 22 54 59.9950000  0  4G13G 6G15G 2
  20441191.038   -13828221.970 6 -10502824.65221
  19286575.3194  -27420025.50047 -21195457.60363
  22488802.812    -3372927.985 5  -2511481.77721
  19555359.3044  -21869974.10748 -17041510.65965
 91  5  1 22 55 14.9950000  0  4G13G 6G15G 2
  20430473.023   -13884550.822 6 -10546717.15121
  19282871.7494  -27439486.22547 -21210621.78963
  22486756.2574   -3383670.79645  -2519852.77461
  19555629.7184  -21868559.97148 -17040408.73664
 91  5  1 22 55 29.9950000  0  4G13G 6G15G 2
  20419775.8744  -13940770.19246 -10590524.33861
  19279188.437   -27458855.019 7 -21225714.34524
  22484738.413    -3394272.267 5  -2528113.63021
  19555908.0304  -21867090.94048 -17039264.04464
 91  5  1 22 55 44.9950000  0  4G13G 6G15G 2
  20409097.1484  -13996891.31146 -10634254.96061
  19275515.2334  -27478143.09547 -21240744.00364
  22482746.9054   -3404743.70245  -2536273.13861
  19556195.7964  -21865578.60048 -17038085.60164
 91  5  1 22 55 59.9950000  0  4G13G 6G15G 2
  20398436.015   -14052904.687 6 -10677901.63721
  19271863.413   -27497340.981 7 -21255703.37924
  22480779.7494   -3415075.59745  -2544323.94361
  19556494.2574  -21864013.66848 -17036866.17464
 91  5  1 22 56 14.9950000  0  4G13G 6G15G 2
  20387796.882   -14108814.133 6 -10721467.33021
  19268226.233   -27516452.493 7 -21270595.45924
  22478840.6944   -3425271.95145  -2552269.11961
  19556801.3584  -21862400.50248 -17035609.16564
 91  5  1 22 56 29.9950000  0  4G13G 6G15G 2
  20377179.530   -14164617.884 6 -10764950.65221
  19264606.4764  -27535476.24147 -21285419.14564
  22476925.257    -3435331.562 5  -2560107.74621
  19557116.2334  -21860737.67948 -17034313.46264
 91  5  1 22 56 44.9950000  0  4G13G 6G15G 2
  20366578.983   -14220317.270 6 -10808352.65621
  19261001.991   -27554413.539 7 -21300175.46824
  22475034.616    -3445255.962 5  -2567841.03221
  19557442.5384  -21859026.88548 -17032980.37864
 91  5  1 22 56 59.9950000  0  4G13G 6G15G 2
  20355998.148   -14275914.237 6 -10851674.85921
  19257413.952   -27573266.605 7 -21314866.15624
  22473175.9134   -3455047.10545  -2575470.46661
  19557777.8584  -21857270.44448 -17031611.72564
 91  5  1 22 57 14.9950000  0  4G13G 6G15G 2
  20345441.710   -14331403.631 6 -10894913.23621
  19253845.0464  -27592030.15647 -21329487.09164
  22471337.429    -3464699.878 5  -2582992.07221
  19558120.5074  -21855463.51048 -17030203.73064
 91  5  1 22 57 29.9950000  0  4G13G 6G15G 2
  20334900.335   -14386793.079 6 -10938073.73521
  19250289.108   -27610711.882 7 -21344044.26723
  22469523.952    -3474222.337 5  -2590412.14521
  19558473.0854  -21853613.96548 -17028762.52564
 91  5  1 22 57 44.9950000  0  4G13G 6G15G 2
  20324378.968   -14442084.324 6 -10981157.71221
  19246748.9374  -27629313.83947 -21358539.29363
  22467738.921    -3483616.891 5  -2597732.56221
  19558833.0694  -21851724.20048 -17027289.98364
 91  5  1 22 57 59.9950000  0  4G13G 6G15G 2
  20313878.616   -14497262.983 6 -11024153.96321
  19243228.257   -27647821.679 7 -21372960.97224
  22465977.3664   -3492869.42445  -2604942.30461
  19559202.0624  -21849780.17348 -17025775.16064
 91  5  1 22 58 14.9950000  0  4G13G 6G15G 2
  20303397.460   -14552336.617 6 -11067068.38221
  19239721.4374  -27666242.70947 -21387315.01363
  22464240.0624   -3501987.04745  -2612046.92161
  19559580.4914  -21847789.39748 -17024223.91064
 91  5  1 22 58 29.9950000  0  4G13G 6G15G 2
  20292939.077   -14607304.436 6 -11109900.33821
  19236232.851   -27684576.329 7 -21401600.93423
  22462530.9214   -3510969.27645  -2619046.03361
  19559968.9444  -21845751.56748 -17022635.99264
 91  5  1 22 58 44.9950000  0  4G13G 6G15G 2
  20282498.882   -14662169.071 6 -11152651.89421
  19232760.6244  -27702825.24747 -21415820.85764
  22460849.1324   -3519819.13345  -2625942.01661
  19560365.0384  -21843669.66348 -17021013.72864
 91  5  1 22 58 59.9950000  0  4G13G 6G15G 2
  20272076.991   -14716928.570 6 -11195321.53221
  19229304.179   -27720987.804 7 -21429973.48724
  22459190.405    -3528535.023 5  -2632733.58421
  19560769.6014  -21841542.21848 -17019355.98164
 91  5  1 22 59 14.9950000  0  4G13G 6G15G 2
  20261676.726   -14771578.388 6 -11237905.70421
  19225866.851   -27739059.444 7 -21444055.26824
  22457556.7104   -3537112.63845  -2639417.39961
  19561183.8274  -21839365.12748 -17017659.54564
 91  5  1 22 59 29.9950000  0  4G13G 6G15G 2
  20251296.632   -14826127.197 6 -11280411.16121
  19222442.452   -27757048.890 7 -21458073.00524
  22455950.4524   -3545560.70545  -2646000.30661
  19561605.4054  -21837147.13748 -17015931.24264
 91  5  1 22 59 44.9950000  0  4G13G 6G15G 2
  20240935.155   -14880573.579 6 -11322836.81421
  19219035.171   -27774954.879 7 -21472025.70824
  22454365.4054   -3553878.23745  -2652481.45861
  19562038.1794  -21834887.44948 -17014170.44664
 91  5  1 22 59 59.9950000  0  4G13G 6G15G 2
  20230597.398   -14934908.923 6 -11365175.93521
  19215646.038   -27792768.844 7 -21485906.70324
  22452810.2734   -3562056.78745  -2658854.34361
  19562476.6084  -21832577.61048 -17012370.56964
 91  5  1 23  0 14.9950000  0  4G13G 6G15G 2
  20220277.9054  -14989135.09546 -11407429.99161
  19212272.140   -27810492.600 7 -21499717.40724
  22451279.9214   -3570098.35245  -2665120.50561
  19562925.2654  -21830219.81548 -17010533.32864
 91  5  1 23  0 29.9950000  0  4G13G 6G15G 2
  20209976.890   -15043261.543 6 -11449606.34121
  19208913.921   -27828135.730 7 -21513465.28423
  22449773.6404   -3578012.41445  -2671287.29461
  19563380.0074  -21827823.93448 -17008666.40664
 91  5  1 23  0 44.9950000  0  4G13G 6G15G 2
  20199697.866   -15097281.763 6 -11491699.91321
  19205574.726   -27845691.823 7 -21527145.34124
  22448293.0544   -3585793.10246  -2677350.15561
  19563846.4834  -21825383.86048 -17006765.05464
 91  5  1 23  0 59.9950000  0  4G13G 6G15G 2
  20189437.304   -15151194.911 6 -11533710.05321
  19202250.358   -27863160.309 7 -21540757.13523
  22446838.8044   -3593439.79446  -2683308.57561
  19564318.7574  -21822899.16948 -17004828.93364
 91  5  1 23  1 14.9950000  0  4G13G 6G15G 2
  20179200.921   -15204995.480 6 -11575632.47021
  19198943.663   -27880535.587 7 -21554296.29723
  22445410.273    -3600947.106 6  -2689158.43021
  19564800.3824  -21820364.42548 -17002853.80364
 91  5  1 23  1 29.9950000  0  4G13G 6G15G 2
  20168982.413   -15258687.479 6 -11617470.29421
  19195655.132   -27897821.890 7 -21567766.13323
  22444008.054    -3608319.402 6  -2694903.04221
  19565290.9604  -21817784.20948 -17000843.24564
 91  5  1 23  1 44.9950000  0  4G13G 6G15G 2
  20158787.077   -15312265.336 6 -11659219.17221
  19192384.101   -27915013.637 7 -21581162.28223
  22442631.507    -3615551.127 6  -2700538.12521
  19565792.1164  -21815153.31948 -16998793.20264
 91  5  1 23  1 59.9950000  0  4G13G 6G15G 2
  20148611.460   -15365735.745 6 -11700884.32721
  19189128.858   -27932117.482 7 -21594489.94124
  22441282.077    -3622649.422 6  -2706069.24521
  19566299.7884  -21812478.56548 -16996708.97364
 91  5  1 23  2 14.9950000  0  4G13G 6G15G 2
  20138457.4374  -15419098.30846 -11742465.44661
  19185888.468   -27949133.083 7 -21607748.83724
  22439955.7804   -3629613.84046  -2711496.07061
  19566818.5074  -21809759.91048 -16994590.54464
 91  5  1 23  2 29.9950000  0  4G13G 6G15G 2
  20128324.8124  -15472347.97747 -11783958.60261
  19182669.4054  -27966055.31947 -21620934.98363
  22438657.468    -3636439.740 6  -2716814.94421
  19567344.2884  -21806992.55248 -16992434.15764
 91  5  1 23  2 44.9950000  0  4G13G 6G15G 2
  20118212.1014  -15525483.27646 -11825362.63261
  19179467.4684  -27982882.97947 -21634047.43563
  22437381.4134   -3643125.94046  -2722024.94761
  19567881.4134  -21804175.40448 -16990238.97564
 91  5  1 23  2 59.9950000  0  4G13G 6G15G 2
  20108120.7024  -15578509.61146 -11866681.75861
  19176283.218   -27999621.525 7 -21647090.44124
  22436137.1634   -3649678.03746  -2727130.46761
  19568425.1634  -21801314.21248 -16988009.47064
 91  5  1 23  3 14.9950000  0  4G13G 6G15G 2
  20098051.3194  -15631429.66446 -11907918.07061
  19173112.983   -28016273.707 7 -21660066.15124
  22434915.241    -3656098.893 6  -2732133.72521
  19568978.4054  -21798412.08548 -16985748.07164
 91  5  1 23  3 29.9950000  0  4G13G 6G15G 2
  20088003.233   -15684243.530 7 -11949071.62821
  19169960.069   -28032839.626 7 -21672974.64524
  22433716.7964   -3662388.96445  -2737035.06361
  19569538.1484  -21795469.38348 -16983455.05564
 91  5  1 23  3 44.9950000  0  4G13G 6G15G 2
  20077970.4054  -15736944.63746 -11990137.32561
  19166826.851   -28049312.879 7 -21685810.92924
  22432545.6324   -3668541.86845  -2741829.52761
  19570104.7414  -21792479.93948 -16981125.61764
 91  5  1 23  3 59.9950000  0  4G13G 6G15G 2
  20067963.8744  -15789535.78447 -12031117.34661
  19163708.249   -28065696.140 7 -21698577.09423
  22431399.452    -3674560.547 5  -2746519.39421
  19570684.7334  -21789446.64048 -16978762.00664
 91  5  1 23  4 14.9950000  0  4G13G 6G15G 2
  20057977.4764  -15842016.08047 -12072010.99061
  19160607.7494  -28081988.81547 -21711272.67263
  22430282.671    -3680444.232 5  -2751104.08621
  19571270.0854  -21786369.06048 -16976363.89164
 91  5  1 23  4 29.9950000  0  4G13G 6G15G 2
  20048014.7964  -15894377.89847 -12112812.30661
  19157526.538   -28098183.202 7 -21723891.66123
  22429191.8044   -3686186.07545  -2755578.25461
  19571865.2104  -21783239.92748 -16973925.60564
 91  5  1 23  4 44.9950000  0  4G13G 6G15G 2
  20038073.2494  -15946626.88847 -12153525.70961
  19154463.648   -28114285.199 7 -21736438.65723
  22428124.265    -3691791.775 5  -2759946.30821
  19572468.7574  -21780065.18648 -16971451.77764
 91  5  1 23  4 59.9950000  0  4G13G 6G15G 2
  20028148.8744  -15998764.46847 -12194152.29961
  19151416.171   -28130296.033 7 -21748914.62023
  22427080.8044   -3697262.65145  -2764209.32361
  19573082.3584  -21776846.51048 -16968943.71864
 91  5  1 23  5 14.9950000  0  4G13G 6G15G 2
  20018249.085   -16050787.694 7 -12234689.77721
  19148386.7494  -28146213.01747 -21761317.45363
  22426068.4994   -3702596.04546  -2768365.21461
  19573703.2734  -21773581.46248 -16966399.52164
 91  5  1 23  5 29.9950000  0  4G13G 6G15G 2
  20008372.7734  -16102693.99047 -12275136.14861
  19145376.593   -28162033.663 7 -21773645.21524
  22425078.1554   -3707789.86345  -2772412.34161
  19574333.4834  -21770267.76548 -16963817.41464
 91  5  1 23  5 44.9950000  0  4G13G 6G15G 2
  19998515.0934  -16154485.78146 -12315493.29061
  19142384.0774  -28177760.22147 -21785899.66564
  22424118.9444   -3712846.66045  -2776352.70061
  19574972.4834  -21766907.81948 -16961199.27564
 91  5  1 23  5 59.9950000  0  4G13G 6G15G 2
  19988681.5154  -16206162.75747 -12355760.96661
  19139408.780   -28193392.640 7 -21798080.75823
  22423180.4834   -3717766.31145  -2780186.20061
  19575620.6014  -21763502.08448 -16958545.45964
 91  5  1 23  6 14.9950000  0  4G13G 6G15G 2
  19978871.2184  -16257723.10847 -12395937.77061
  19136452.038   -28208929.353 7 -21810187.27024
  22422271.773    -3722547.716 5  -2783911.94921
  19576278.9374  -21760049.10548 -16955854.82164
 91  5  1 23  6 29.9950000  0  4G13G 6G15G 2
  19969082.1874  -16309170.35047 -12436026.43261
  19133512.968   -28224373.438 7 -21822221.61424
  22421387.4134   -3727193.99445  -2787532.41361
  19576942.7184  -21756552.15948 -16953129.93064
 91  5  1 23  6 44.9950000  0  4G13G 6G15G 2
  19959311.5694  -16360506.02947 -12476028.16661
  19130592.4134  -28239726.54347 -21834185.06464
  22420529.0624   -3731707.04145  -2791049.08061
  19577617.0774  -21753013.08048 -16950372.20764
 91  5  1 23  6 59.9950000  0  4G13G 6G15G 2
  19949563.3984  -16411724.54247 -12515938.60061
  19127688.421   -28254983.241 7 -21846073.38124
  22419691.7184   -3736081.54645  -2794457.78261
  19578299.3354  -21749426.79148 -16947577.69664
 91  5  1 23  7 14.9950000  0  4G13G 6G15G 2
  19939843.8824  -16462818.41247 -12555751.91061
  19124804.7104  -28270136.45947 -21857881.07564
  22418888.413    -3740310.543 5  -2797753.09721
  19578992.7104  -21745786.60748 -16944741.18864
 91  5  1 23  7 29.9950000  0  4G13G 6G15G 2
  19930141.5774  -16513800.37247 -12595478.02061
  19121939.1324  -28285198.92647 -21869618.05264
  22418109.2574   -3744406.91846  -2800945.07161
  19579692.0464  -21742105.38748 -16941872.70864
 91  5  1 23  7 44.9950000  0  4G13G 6G15G 2
  19920461.9604  -16564664.25447 -12635112.11361
  19119091.3044  -28300164.37147 -21881279.42864
  22417357.4214   -3748364.92245  -2804029.24061
  19580401.5624  -21738377.05948 -16938967.52064
 91  5  1 23  7 59.9950000  0  4G13G 6G15G 2
  19910804.7804  -16615414.54147 -12674657.69661
  19116260.4764  -28315037.32547 -21892868.73564
  22416626.0074   -3752189.05345  -2807009.07661
  19581119.1324  -21734606.32148 -16936029.27564
 91  5  1 23  8 14.9950000  0  4G13G 6G15G 2
  19901167.6404  -16666050.36047 -12714114.08661
  19113448.5234  -28329816.76247 -21904385.16864
  22415925.5934   -3755878.53545  -2809884.00361
  19581846.1244  -21730792.70048 -16933057.62264
 91  5  1 23  8 29.9950000  0  4G13G 6G15G 2
  19891556.265   -16716563.664 7 -12753475.00521
  19110654.702   -28344494.901 7 -21915822.66724
  22415252.6324   -3759425.85545  -2812648.14161
  19582578.6324  -21726928.50148 -16930046.56164
 91  5  1 23  8 44.9950000  0  4G13G 6G15G 2
  19881964.9834  -16766959.80247 -12792744.62961
  19107880.1874  -28359077.21147 -21927185.49564
  22414604.9834   -3762836.71145  -2815305.93561
  19583323.6634  -21723019.38648 -16927000.50664
 91  5  1 23  8 59.9950000  0  4G13G 6G15G 2
  19872396.1324  -16817242.56147 -12831925.91061
  19105123.7804  -28373567.57347 -21938476.67764
  22413980.0934   -3766114.99845  -2817860.43261
  19584075.9134  -21719069.38848 -16923922.58864
 91  5  1 23  9 14.9950000  0  4G13G 6G15G 2
  19862849.3984  -16867406.04747 -12871014.24261
  19102383.2494  -28387959.84147 -21949691.41964
  22413383.085    -3769254.869 5  -2820307.07321
  19584836.8354  -21715072.59748 -16920808.21264
 91  5  1 23  9 29.9950000  0  4G13G 6G15G 2
  19853327.2494  -16917455.20447 -12910013.49761
  19099662.6484  -28402258.99247 -21960833.60964
  22412811.077    -3772261.544 6  -2822649.91721
  19585604.4684  -21711034.53148 -16917661.66964
 91  5  1 23  9 44.9950000  0  4G13G 6G15G 2
  19843826.1014  -16967387.56147 -12948921.73561
  19096960.3194  -28416462.75947 -21971901.46964
  22412260.9524   -3775132.96045  -2824887.38961
  19586380.4994  -21706953.02948 -16914481.28764
 91  5  1 23  9 59.9950000  0  4G13G 6G15G 2
  19834344.3434  -17017208.01947 -12987742.77961
  19094274.2184  -28430576.33347 -21982899.04964
  22411744.7574   -3777874.44745  -2827023.61261
  19587167.7964  -21702833.24548 -16911271.07664
 91  5  1 23 10 14.9950000  0  4G13G 6G15G 2
  19824884.1944  -17066914.46847 -13026474.98761
  19091604.9524  -28444597.58847 -21993824.69264
  22411245.483    -3780484.012 5  -2829057.02621
  19587957.1554  -21698673.56648 -16908029.76864
 91  5  1 23 10 29.9950000  0  4G13G 6G15G 2
  19815448.8044  -17116499.00047 -13065112.19661
  19088957.319   -28458518.475 7 -22004672.12524
  22410773.608    -3782953.726 5  -2830981.45821
  19588758.4054  -21694466.21248 -16904751.31864
 91  5  1 23 10 44.9950000  0  4G13G 6G15G 2
  19806036.280   -17165968.329 7 -13103659.64121
  19086326.3354  -28472346.09047 -22015446.88464
  22410328.6484   -3785291.06445  -2832802.74961
  19589564.1484  -21690218.33948 -16901441.29164
 91  5  1 23 10 59.9950000  0  4G13G 6G15G 2
  19796644.335   -17215318.192 7 -13142113.98921
  19083713.569   -28486075.707 7 -22026145.27224
  22409913.2024   -3787491.47945  -2834517.35461
  19590382.6404  -21685925.50648 -16898096.23564
 91  5  1 23 11 14.9950000  0  4G13G 6G15G 2
  19787275.0544  -17264554.25147 -13180479.66061
  19081117.148   -28499713.021 7 -22036771.74224
  22409518.1014   -3789560.98145  -2836129.95461
  19591207.2574  -21681593.62048 -16894720.74664
 91  5  1 23 11 29.9950000  0  4G13G 6G15G 2
  19777929.6634  -17313667.81047 -13218749.87661
  19078542.030   -28513249.493 7 -22047319.63024
  22409150.1084   -3791491.32945  -2837634.11361
  19592039.4444  -21677214.56148 -16891308.49864
 91  5  1 23 11 44.9950000  0  4G13G 6G15G 2
  19768604.054   -17362669.388 7 -13256932.83721
  19075983.1244  -28526695.85747 -22057797.30764
  22408805.226    -3793293.012 5  -2839037.99421
  19592881.2734  -21672799.08648 -16887867.87564
 91  5  1 23 11 59.9950000  0  4G13G 6G15G 2
  19759302.523   -17411551.571 7 -13295022.76721
  19073443.726   -28540044.764 7 -22068199.04023
  22408488.8824   -3794959.21945  -2840336.33061
  19593730.0854  -21668340.24848 -16884393.46364
 91  5  1 23 12 14.9950000  0  4G13G 6G15G 2
  19750021.108   -17460323.371 7 -13333026.68221
  19070918.2884  -28553305.19747 -22078531.83963
  22408197.1944   -3796499.20645  -2841536.32861
  19594584.7414  -21663847.42548 -16880892.57264
 91  5  1 23 12 29.9950000  0  4G13G 6G15G 2
  19740763.3274  -17508970.19847 -13370933.21461
  19068416.015   -28566462.819 7 -22088784.51924
  22407932.7264   -3797898.48445  -2842626.67961
  19595449.0304  -21659306.23248 -16877353.98864
 91  5  1 23 12 44.9950000  0  4G13G 6G15G 2
  19731530.4214  -17557499.34047 -13408748.04261
  19065929.1404  -28579524.83747 -22098962.70464
  22407690.929    -3799164.829 5  -2843613.41721
  19596320.9684  -21654724.09948 -16873783.50064
 91  5  1 23 12 59.9950000  0  4G13G 6G15G 2
  19722317.4294  -17605909.56147 -13446470.20861
  19063463.3124  -28592490.12247 -22109065.51464
  22407473.741    -3800297.187 5  -2844495.74821
  19597201.6084  -21650100.09148 -16870180.38964
 91  5  1 23 13 14.9950000  0  4G13G 6G15G 2
  19713129.0384  -17654199.48947 -13484098.63561
  19061013.4834  -28605356.88047 -22119091.55263
  22407284.210    -3801294.095 5  -2845272.55721
  19598087.9444  -21645432.93448 -16866543.64664
 91  5  1 23 13 29.9950000  0  4G13G 6G15G 2
  19703961.3984  -17702364.65847 -13521629.84961
  19058585.7964  -28618120.93647 -22129037.55964
  22407123.2184   -3802151.83845  -2845940.89961
  19598985.6794  -21640718.46048 -16862870.03964
 91  5  1 23 13 44.9950000  0  4G13G 6G15G 2
  19694821.905   -17750405.109 7 -13559063.88421
  19056176.5304  -28630782.44247 -22138903.65863
  22406981.3274   -3802870.35545  -2846500.78761
  19599892.3274  -21635956.91548 -16859159.75364
 91  5  1 23 13 59.9950000  0  4G13G 6G15G 2
  19685703.608   -17798318.351 7 -13596398.79421
  19053785.7024  -28643339.09047 -22148688.05164
  22406877.944    -3803447.822 5  -2846950.74721
  19600808.194   -21631146.230 8 -16855411.17824
 91  5  1 23 14 14.9950000  0  4G13G 6G15G 2
  19676608.952   -17846109.873 7 -13633638.86521
  19051416.6324  -28655796.22047 -22158394.89764
  22406788.366    -3803889.658 5  -2847295.01821
  19601730.8904  -21626292.30148 -16851628.90664
 91  5  1 23 14 29.9950000  0  4G13G 6G15G 2
  19667536.366   -17893782.650 7 -13670786.39821
  19049064.3904  -28668156.86347 -22168026.56063
  22406733.288    -3804199.030 5  -2847536.07821
  19602662.0384  -21621398.23148 -16847815.35764
 91  5  1 23 14 44.9950000  0  4G13G 6G15G 2
  19658485.882   -17941341.216 7 -13707844.94021
  19046730.8124  -28680425.76147 -22177586.73063
  22406699.429    -3804380.855 5
  19603599.8194  -21616468.99148 -16843974.39864
 91  5  1 23 14 59.9950000  0  4G13G 6G15G 2
  19649459.499   -17988776.690 7 -13744807.57121
  19044414.8984  -28692593.95147 -22187068.42764
  22406690.968    -3804426.552 5
  19604545.5934  -21611495.72448 -16840099.13564
 91  5  1 23 15 14.9950000  0  4G13G 6G15G 2
  19640456.523   -18036088.897 7 -13781674.14821
  19042117.7964  -28704661.22447 -22196471.49163
  22406706.749    -3804336.414 5
  19605501.4914  -21606478.54448 -16836189.65064
 91  5  1 23 15 29.9950000  0  4G13G 6G15G 2
  19631473.593   -18083289.725 7 -13818453.93521
  19039837.7964  -28716639.51547 -22205805.21263
  22406745.2414   -3804122.13745
  19606461.7264  -21601429.65648 -16832255.45664
 91  5  1 23 15 44.9950000  0  4G13G 6G15G 2
  19622516.343   -18130372.206 7 -13855141.50521
  19037575.9524  -28728521.76947 -22215064.10563
  22406813.6324   -3803777.26145
  19607430.4134  -21596342.16748 -16828291.18264
 91  5  1 23 15 59.9950000  0  4G13G 6G15G 2
  19613578.585   -18177329.197 7 -13891731.29121
  19035334.5384  -28740301.15147 -22224242.84263
  22406905.648    -3803295.009 5  -2846831.58421
  19608407.0774  -21591209.39648 -16824291.62564
 91  5  1 23 16 14.9950000  0  4G13G 6G15G 2
  19604666.874   -18224167.058 7 -13928228.24721
  19033111.8124  -28751983.64647 -22233346.07663
  22407018.5624   -3802681.53745  -2846353.54761
  19609391.7654  -21586037.66448 -16820261.70564
 91  5  1 23 16 29.9950000  0  4G13G 6G15G 2
  19595776.171   -18270881.837 7 -13964629.29721
  19030908.1324  -28763565.80747 -22242371.13163
  22407163.3744   -3801933.56645  -2845770.71261
  19610383.2574  -21580823.84948 -16816198.99464
 91  5  1 23 16 44.9950000  0  4G13G 6G15G 2
  19586909.226   -18317479.897 7 -14000939.39821
  19028723.3904  -28775053.82247 -22251322.82763
  22407326.6164   -3801057.64645  -2845088.16961
  19611383.6484  -21575574.30148 -16812108.44064
 91  5  1 23 16 59.9950000  0  4G13G 6G15G 2
  19578065.718   -18363955.066 7 -14037153.73621
  19026554.7574  -28786441.66247 -22260196.46363
  22407519.5304   -3800047.94745  -2844301.37861
  19612390.2334  -21570282.95948 -16807985.32064
 91  5  1 23 17 14.9950000  0  4G13G 6G15G 2
  19569245.773   -18410305.854 7 -14073271.15721
  19024404.9134  -28797727.55047 -22268990.65763
  22407741.3194   -3798902.94345  -2843409.17961
  19613404.8824  -21564948.40848 -16803828.52364
 91  5  1 23 17 29.9950000  0  4G13G 6G15G 2
  19560446.288   -18456546.161 7 -14109302.48722
  19022275.8354  -28808925.49947 -22277716.33163
  22407977.648    -3797636.753 5  -2842422.52921
  19614426.4684  -21559584.88348 -16799649.15964
 91  5  1 23 17 44.9950000  0  4G13G 6G15G 2
  19551670.952   -18502662.433 7 -14145237.16921
  19020164.1714  -28820022.22647 -22286363.12763
  22408247.921    -3796236.483 5  -2841331.42821
  19615453.8044  -21554179.24848 -16795436.98264
 91  5  1 23 17 59.9950000  0  4G13G 6G15G 2
  19542918.327   -18548649.935 7 -14181071.50921
  19018073.6014  -28831013.05047 -22294927.40063
  22408541.655    -3794697.579 5  -2840132.26921
  19616492.3584  -21548727.13648 -16791188.58964
 91  5  1 23 18 14.9950000  0  4G13G 6G15G 2
  19534191.679   -18594512.181 7 -14216808.24822
  19015999.0074  -28841901.63247 -22303412.00363
  22408859.7024   -3793023.94045  -2838828.12761
  19617537.8124  -21543232.28248 -16786906.89164
 91  5  1 23 18 29.9950000  0  4G13G 6G15G 2
  19525487.663   -18640251.944 7 -14252449.54721
  19013948.0774  -28852690.35847 -22311818.80463
  22409203.7654   -3791218.28045  -2837421.11561
  19618589.7414  -21537697.52848 -16782594.10264
 91  5  1 23 18 44.9950000  0  4G13G 6G15G 2
  19516806.523   -18685868.608 7 -14287994.92621
  19011913.9054  -28863378.76447 -22320147.42663
  22409574.1714   -3789280.44145  -2835911.07861
  19619651.5304  -21532122.47548 -16778249.91164
 91  5  1 23 18 59.9950000  0  4G13G 6G15G 2
  19508150.171   -18731359.860 7 -14323442.58421
  19009900.2804  -28873964.59947 -22328396.12363
  22409963.6634   -3787208.37945  -2834296.50061
  19620721.1244  -21526505.16648 -16773872.79164
 91  5  1 23 19 14.9950000  0  4G13G 6G15G 2
  19499515.413   -18776730.329 7 -14358796.12122
  19007903.7654  -28884452.55047 -22336568.54963
  22410383.2334   -3785006.78345  -2832580.95461
  19621796.3824  -21520850.35848 -16769466.45464
 91  5  1 23 19 29.9950000  0  4G13G 6G15G 2
  19490906.5464  -18821975.88447 -14394052.33262
  19005928.1944  -28894838.52747 -22344661.51263
  22410828.991    -3782672.072 5  -2830761.73121
  19622880.4914  -21515154.27148 -16765027.94964
 91  5  1 23 19 44.9950000  0  4G13G 6G15G 2
  19482320.679   -18867095.933 7 -14429210.73821
  19003970.0154  -28905121.87647 -22352674.50863
  22411299.710    -3780203.887 5  -2828838.47321
  19623971.6874  -21509416.32848 -16760556.83364
 91  5  1 23 19 59.9950000  0  4G13G 6G15G 2
  19473758.3434  -18912090.92647 -14464271.70261
  19002033.3124  -28915303.08147 -22360607.90963
  22411796.890    -3777602.517 5  -2826811.44921
  19625072.3664  -21503637.27948 -16756053.68364
 91  5  1 23 20 14.9950000  0  4G13G 6G15G 2
  19465218.804   -18956962.221 7 -14499236.27421
  19000115.0304  -28925383.63747 -22368462.88563
  22412317.0304   -3774869.94145  -2824682.17761
  19626178.5624  -21497818.98548 -16751519.95364
 91  5  1 23 20 29.9950000  0  4G13G 6G15G 2
  19456703.632   -19001710.641 7 -14534105.10222
  18998215.6554  -28935364.47447 -22376240.15863
  22412859.9764   -3772007.38845  -2822451.62261
  19627293.5934  -21491962.46048 -16746956.43464
 91  5  1 23 20 44.9950000  0  4G13G 6G15G 2
  19448211.6404  -19046332.73047 -14568875.49262
  18996335.7104  -28945241.87247 -22383936.83263
  22413428.6404   -3769011.38245  -2820117.07661
  19628416.7414  -21486064.19648 -16742360.38764
 91  5  1 23 20 59.9950000  0  4G13G 6G15G 2
  19439744.1794  -19090832.64447 -14603550.68262
  18994475.1794  -28955020.06747 -22391556.19763
  22414020.585    -3765886.344 5  -2817681.99921
  19629545.3744  -21480128.82748 -16737735.43464
 91  5  1 23 21 14.9950000  0  4G13G 6G15G 2
  19431299.507   -19135213.996 7 -14638133.48522
  18992632.9834  -28964702.66547 -22399101.07663
  22414636.694    -3762636.309 5  -2815149.52421
  19630681.2184  -21474160.07548 -16733084.46264
 91  5  1 23 21 29.9940000  0  4G13G 6G15G 2
  19422876.8774  -19179469.05647 -14672617.87362
  18990809.6744  -28974284.35747 -22406567.32663
  22415287.791    -3759257.169 5  -2812516.41221
  19631823.3614  -21468153.69548 -16728404.16864
 91  5  1 23 21 44.9940000  0  4G13G 6G15G 2
  19414481.5254  -19223592.87947 -14707000.00761
  18989007.6584  -28983755.64647 -22413947.54563
  22415953.572    -3755737.775 5  -2809774.00821
  19632976.5724  -21462098.13948 -16723685.56364
 91  5  1 23 21 59.9940000  0  4G13G 6G15G 2
  19406106.8774  -19267593.03747 -14741285.77262
  18987224.3224  -28993126.33947 -22421249.37963
  22416650.4554   -3752089.00745  -2806930.82561
  19634135.1434  -21456004.64248 -16718937.38564
 91  5  1 23 22 14.9940000  0  4G13G 6G15G 2
  19397758.3774  -19311466.55447 -14775472.86162
  18985461.0024  -29002393.38247 -22428470.44663
  22417373.385    -3748308.102 5  -2803984.64821
  19635305.2604  -21449870.44248 -16714157.48864
 91  5  1 23 22 29.9940000  0  4G13G 6G15G 2
  19389433.502   -19355218.047 7 -14809564.85922
  18983716.4944  -29011561.56347 -22435614.47863
  22418111.6434   -3744399.91545  -2800939.30061
  19636476.4634  -21443700.50448 -16709349.75364
 91  5  1 23 22 44.9940000  0  4G13G 6G15G 2
  19381132.846   -19398840.181 7 -14843556.06622
  18981992.3224  -29020623.50047 -22442675.72463
  22418880.486    -3740357.297 5  -2797789.25421
  19637658.9004  -21437487.61648 -16704508.54764
 91  5  1 23 22 59.9940000  0  4G13G 6G15G 2
  19372856.236   -19442331.604 7 -14877445.41722
  18980288.5254  -29029578.10847 -22449653.33563
  22419678.908    -3736179.697 5  -2794533.95121
  19638849.7054  -21431230.87048 -16699633.16864
 91  5  1 23 23 14.9940000  0  4G13G 6G15G 2
  19364604.4474  -19485694.56947 -14911234.67662
  18978604.0024  -29038427.44347 -22456548.91463
  22420492.1194   -3731869.26245  -2791175.17061
  19640050.0184  -21424932.60248 -16694725.43564
 91  5  1 23 23 29.9940000  0  4G13G 6G15G 2
  19356373.6044  -19528933.79347 -14944927.51062
  18976939.2294  -29047176.23547 -22463366.14463
  22421336.861    -3727431.124 5  -2787716.90721
  19641254.9004  -21418597.69548 -16689789.15164
 91  5  1 23 23 44.9940000  0  4G13G 6G15G 2
  19348173.2834  -19572042.70247 -14978518.80162
  18975292.7754  -29055817.83447 -22470099.84963
  22422213.2914   -3722858.83045  -2784154.09961
  19642469.5884  -21412219.68748 -16684819.28164
 91  5  1 23 23 59.9940000  0  4G13G 6G15G 2
  19339991.854   -19615029.651 7 -15012015.05822
  18973669.1274  -29064360.70847 -22476756.62563
  22423107.1044   -3718161.01045  -2780493.46961
  19643688.8074  -21405807.06348 -16679822.43864
 91  5  1 23 24 14.9940000  0  4G13G 6G15G 2
  19331836.6354  -19657883.70147 -15045407.75962
  18972062.5184  -29072793.99647 -22483328.01063
  22424028.2994   -3713327.15045  -2776726.85061
  19644916.4474  -21399349.37248 -16674790.47864
 91  5  1 23 24 29.9940000  0  4G13G 6G15G 2
  19323707.6114  -19700607.20547 -15078698.73562
  18970478.8614  -29081119.86847 -22489815.69563
  22424970.3074   -3708359.80345  -2772856.17261
  19646153.4864  -21392848.92748 -16669725.20164
 91  5  1 23 24 44.9940000  0  4G13G 6G15G 2
  19315601.4324  -19743201.01747 -15111888.65062
  18968914.9164  -29089339.39047 -22496220.50763
  22425942.424    -3703260.034 5  -2768882.35021
  19647398.3854  -21386306.95548 -16664627.56564
 91  5  1 23 24 59.9940000  0  4G13G 6G15G 2
  19307520.5654  -19785669.74147 -15144981.09962
  18967370.6904  -29097457.20647 -22502546.07163
  22426935.580    -3698033.063 5  -2764809.39921
  19648652.1504  -21379728.39648 -16659501.42064
 91  5  1 23 25 14.9940000  0  4G13G 6G15G 2
  19299464.2754  -19828007.28147 -15177971.32962
  18965846.0334  -29105467.09247 -22508787.53463
  22427951.3074   -3692672.47045  -2760632.30161
  19649911.1744  -21373107.10948 -16654341.97464
 91  5  1 23 25 29.9940000  0  4G13G 6G15G 2
  19291431.9794  -19870215.91447 -15210861.10462
  18964340.9404  -29113371.49747 -22514946.80163
  22429000.0104   -3687181.12145  -2756353.33161
  19651179.9004  -21366445.87648 -16649151.41364
 91  5  1 23 25 44.9940000  0  4G13G 6G15G 2
  19283422.3934  -19912302.17347 -15243655.53162
  18962856.7054  -29121176.89047 -22521028.91963
  22430071.4794   -3681565.93945  -2751977.87661
  19652452.3154  -21359751.24348 -16643934.81664
 91  5  1 23 25 59.9940000  0  4G13G 6G15G 2
  19275438.7754  -19954257.06347 -15276347.58862
  18961392.1824  -29128874.28347 -22527026.87663
  22431163.760    -3675817.956 5  -2747498.92221
  19653736.0964  -21353014.22848 -16638685.19964
 91  5  1 23 26 14.9940000  0  4G13G 6G15G 2
  19267478.5414  -19996084.23847 -15308940.12762
  18959946.900   -29136467.191 7 -22532943.41723
  22432279.565    -3669940.945 5  -2742919.44021
  19655025.3464  -21346238.68448 -16633405.55964
 91  5  1 23 26 29.9940000  0  4G13G 6G15G 2
  19259544.9634  -20037784.67547 -15341433.91262
  18958521.7754  -29143956.59447 -22538779.30463
  22433423.486    -3663936.340 5  -2738240.55921
  19656320.3154  -21339425.77348 -16628096.80564
 91  5  1 23 26 44.9940000  0  4G13G 6G15G 2
  19251633.5964  -20079361.35847 -15373831.26262
  18957115.4404  -29151345.61147 -22544536.97163
  22434588.1744   -3657807.43745  -2733464.79161
  19657622.4634  -21332578.75948 -16622761.48064
 91  5  1 23 26 59.9940000  0  4G13G 6G15G 2
  19243746.1504  -20120802.90247 -15406123.30962
  18955730.760   -29158622.643 7 -22550207.37023
  22435783.416    -3651542.973 5  -2728583.41621
  19658936.3384  -21325686.29248 -16617390.72964
 91  5  1 23 27 14.9940000  0  4G13G 6G15G 2
  19235885.8304  -20162109.36647 -15438310.09562
  18954367.8464  -29165788.08347 -22555790.81763
  22437001.2054   -3645143.60245  -2723596.89561
  19660254.5574  -21318748.85848 -16611984.94164
 91  5  1 23 27 29.9940000  0  4G13G 6G15G 2
  19228049.6274  -20203291.61147 -15470400.09462
  18953021.4554  -29172852.76147 -22561295.75263
  22438242.697    -3638620.473 5  -2718513.94321
  19661581.2994  -21311777.65448 -16606552.83964
 91  5  1 23 27 44.9940000  0  4G13G 6G15G 2
  19220237.8464  -20244343.93047 -15502388.84762
  18951699.0964  -29179810.93847 -22566717.69463
  22439502.822    -3631967.922 5  -2713330.15421
  19662915.6664  -21304766.86548 -16601089.88864
 91  5  1 23 27 59.9940000  0  4G13G 6G15G 2
  19212450.4864  -20285263.89147 -15534274.46962
  18950395.6044  -29186659.95847 -22572054.58363
  22440798.408    -3625183.862 5  -2708043.90521
  19664257.7684  -21297713.94248 -16595594.11364
 91  5  1 23 28 14.9940000  0  4G13G 6G15G 2
  19204688.1904  -20326052.99847 -15566058.12662
  18949113.3384  -29193401.41147 -22577307.65263
  22442113.400    -3618269.928 5  -2702656.43821
  19665608.1504  -21290620.88848 -16590067.06364
 91  5  1 23 28 29.9940000  0  4G13G 6G15G 2
  19196950.0804  -20366714.50647 -15597742.35662
  18947849.3774  -29200038.65147 -22582479.52063
  22443454.830    -3611229.738 5
  19666964.7444  -21283491.27548
 91  5  1 23 28 44.9940000  0  4G13G 6G15G 2
  19189235.8614  -20407249.20947 -15629327.77562
  18946605.4634  -29206572.23547 -22587570.61563
  22444816.643    -3604063.961 5
  19668328.1504  -21276325.76348
 91  5  1 23 28 59.9940000  0  4G13G 6G15G 2
  19181549.2134  -20447653.50847 -15660811.57962
  18945383.080   -29212998.692 7 -22592578.23323
  22446204.908    -3596769.621 5  -2685903.01721
  19669699.2914  -21269121.00548 -16573313.92764
 91  5  1 23 29 14.9940000  0  4G13G 6G15G 2
  19173883.7684  -20487925.27647 -15692192.12562
  18944181.5414  -29219316.15047 -22597500.92363
  22447616.705    -3589345.095 5  -2680117.67921
  19671077.5494  -21261875.17248 -16567667.83064
 91  5  1 23 29 29.9940000  0  3G13G 6G 2
  19166246.0884  -20528067.50047 -15723471.72262
  18942999.346   -29225527.477 7 -22602340.89823
  19672464.3614  -21254591.49848 -16561992.24364
 91  5  1 23 29 44.9940000  0  3G13G 6G 2
  19158632.1744  -20568077.06447 -15754647.94762
  18941838.104   -29231629.586 7 -22607095.77623
  19673858.5254  -21247266.96248 -16556284.82064
 91  5  1 23 29 59.9940000  0  3G13G 6G 2
  19151042.9554  -20607956.52647 -15785722.79362
  18940698.650   -29237625.009 7 -22611767.52323
  19675258.7214  -21239904.37348 -16550547.74464
 91  5  1 23 30 14.9940000  0  3G13G 6G 2
  19143479.7444  -20647704.92547 -15816695.51362
  18939577.2604  -29243512.74347 -22616355.35563
  19676666.8934  -21232502.75648 -16544780.26064
 91  5  1 23 30 29.9940000  0  3G13G 6G 2
  19135941.3224  -20687322.76847 -15847566.50562
  18938476.7214  -29249293.34847 -22620859.71563
  19678082.6354  -21225062.85048 -16538982.93464
 91  5  1 23 30 44.9940000  0  3G13G 6G 2
  19128428.1824  -20726801.87247 -15878329.38662
  18937399.6114  -29254958.34147 -22625273.98963
  19679507.5494  -21217576.33548 -16533149.29364
 91  5  1 23 30 59.9940000  0  3G13G 6G 2
  19120940.2444  -20766151.60247 -15908991.45662
  18936340.7834  -29260517.31447 -22629605.64963
  19680939.9944  -21210052.99048 -16527286.94864
 91  5  1 23 31 14.9940000  0  3G13G 6G 2
  19113479.1354  -20805365.68447 -15939547.82662
  18935304.6744  -29265963.91147 -22633849.74363
  19682379.3384  -21202486.71848 -16521391.15464
 91  5  1 23 31 29.9940000  0  3G13G 6G 2
  19106038.877   -20844448.569 7 -15970001.96322
  18934288.7604  -29271302.56947 -22638009.72663
  19683826.7294  -21194881.95748 -16515465.36964
 91  5  1 23 31 44.9940000  0  3G13G 6G 2
  19098630.041   -20883393.024 7 -16000348.23722
  18933294.5724  -29276526.19047 -22642080.07363
  19685283.1824  -21187231.94648 -16509504.32464
 91  5  1 23 31 59.9940000  0  3G13G 6G 2
  19091244.6584  -20922201.89747 -16030588.86162
  18932322.7994  -29281637.59447 -22646062.97963
  19686746.9474  -21179539.64748 -16503510.32464
 91  5  1 23 32 14.9940000  0  3G13G 6G 2
  19083886.9474  -20960870.06947 -16060719.84362
  18931373.947   -29286631.620 7 -22649954.41623
  19688218.2524  -21171799.89648 -16497479.35564
 91  5  1 23 32 29.9940000  0  3G13G 6G 2
  19076554.596   -20999398.655 7 -16090742.06622
  18930443.2214  -29291509.27947 -22653755.17963
  19689701.6354  -21164013.85248 -16491412.31064
 91  5  1 23 32 44.9940000  0  3G13G 6G 2
  19069249.9944  -21037792.58447 -16120659.35562
  18929536.3544  -29296275.58447 -22657469.17363
  19691189.1044  -21156186.70247 -16485313.23064
 91  5  1 23 32 59.9940000  0  3G13G 6G 2
  19061969.6044  -21076045.81647 -16150467.01462
  18928651.7834  -29300924.32947 -22661091.56363
  19692687.9244  -21148312.44048 -16479177.44063
 91  5  1 23 33 14.9940000  0  3G13G 6G 2
  19054715.9164  -21114170.02347 -16180174.13362
  18927786.5494  -29305467.47047 -22664631.66763
  19694193.4244  -21140403.21447 -16473014.40464
 91  5  1 23 33 29.9940000  0  3G13G 6G 2
  19047485.7524  -21152156.57647 -16209773.98862
  18926943.9084  -29309896.41147 -22668082.78463
  19695707.5334  -21132450.62047 -16466817.57564
 91  5  1 23 33 44.9940000  0  3G13G 6G 2
  19040281.1974  -21190011.44647 -16239271.23162
  18926122.1974  -29314216.89947 -22671449.39163
  19697227.4244  -21124460.57348 -16460591.55963
 91  5  1 23 33 59.9940000  0  3G13G 6G 2
  19033104.580   -21227729.570 7 -16268661.92422
  18925320.5964  -29318423.89447 -22674727.56363
  19698756.2754  -21116428.11848 -16454332.49964
 91  5  1 23 34 14.9940000  0  3G13G 6G 2
  19025953.658   -21265304.628 7 -16297941.13822
  18924544.0724  -29322511.04947 -22677912.34763
  19700293.4864  -21108347.02048 -16448035.52864
 91  5  1 23 34 29.9940000  0  3G13G 6G 2
  19018829.736   -21302745.809 7 -16327116.02822
  18923787.5884  -29326487.44647 -22681010.82863
  19701839.0964  -21100226.43747 -16441707.79464
 91  5  1 23 34 44.9940000  0  3G13G 6G 2
  19011731.932   -21340045.084 7 -16356180.34622
  18923052.5964  -29330345.30447 -22684016.94563
  19703392.1044  -21092058.70148 -16435343.31964
 91  5  1 23 34 59.9940000  0  3G13G 6G 2
  19004658.5254  -21377208.89747 -16385139.10162
  18922339.5574  -29334090.82547 -22686935.52463
  19704955.557   -21083850.398 8 -16428947.23024
 91  5  1 23 35 14.9940000  0  3G13G 6G 2
  18997611.4714  -21414242.36847 -16413996.29462
  18921647.0254  -29337729.32447 -22689770.70663
  19706524.1904  -21075606.87648 -16422523.70463
 91  5  1 23 35 29.9940000  0  3G13G 6G 2
  18990590.322   -21451140.176 7 -16442747.77722
  18920977.5964  -29341255.41847 -22692518.30063
  19708098.9554  -21067322.80048 -16416068.57664
 91  5  1 23 35 44.9940000  0  3G13G 6G 2
  18983594.1354  -21487903.04147 -16471394.10662
  18920327.2994  -29344669.59447 -22695178.69063
  19709684.182   -21058998.887 8 -16409582.39724
 91  5  1 23 35 59.9940000  0  3G13G 6G 2
  18976624.1744  -21524530.31747 -16499934.78562
  18919698.0654  -29347971.30247 -22697751.43963
  19711275.9404  -21050634.63247 -16403064.79164
 91  5  1 23 36 14.9940000  0  3G13G 6G 2
  18969678.8464  -21561023.50847 -16528370.98062
  18919092.5024  -29351162.17847 -22700237.82863
  19712874.8854  -21042231.87047 -16396517.18564
 91  5  1 23 36 29.9940000  0  3G13G 6G 2
  18962761.025   -21597380.377 7 -16556700.95522
  18918505.5574  -29354239.75747 -22702635.93263
  19714481.8304  -21033788.27047 -16389937.75364
 91  5  1 23 36 44.9940000  0  3G13G 6G 2
  18955867.7604  -21633605.58447 -16584928.32862
  18917941.0254  -29357208.83647 -22704949.49163
  19716094.5724  -21025308.83947 -16383330.39563
 91  5  1 23 36 59.9940000  0  3G13G 6G 2
  18949000.143   -21669694.711 7 -16613049.67122
  18917396.752   -29360064.949 7 -22707175.02223
  19717717.0254  -21016789.26347 -16376691.76164
 91  5  1 23 37 14.9940000  0  3G13G 6G 2
  18942158.291   -21705652.712 7 -16641068.83722
  18916873.8154  -29362813.07147 -22709316.40463
  19719343.2994  -21008234.47347 -16370025.68863
 91  5  1 23 37 29.9940000  0  3G13G 6G 2
  18935342.338   -21741469.244 7 -16668977.76722
  18916375.3854  -29365442.55847 -22711365.34563
  19720980.3074  -20999634.10847 -16363324.10364
 91  5  1 23 37 44.9940000  0  3G13G 6G 2
  18928553.877   -21777145.561 7 -16696777.43822
  18915896.760   -29367954.963 7 -22713323.05223
  19722624.1274  -20990989.91747 -16356588.36464
 91  5  1 23 37 59.9940000  0  3G13G 6G 2
  18921788.7214  -21812690.42147 -16724474.67562
  18915439.7444  -29370358.85947 -22715196.20963
  19724277.6974  -20982310.47047 -16349825.15064
 91  5  1 23 38 14.9940000  0  3G13G 6G 2
  18915051.0494  -21848102.11747 -16752068.14562
  18915003.1044  -29372652.60447 -22716983.53863
  19725935.5724  -20973594.35047 -16343033.36264
 91  5  1 23 38 29.9940000  0  3G13G 6G 2
  18908338.744   -21883375.528 7 -16779553.86722
  18914587.1274  -29374830.85347 -22718680.87063
  19727601.6584  -20964836.31547 -16336208.91464
 91  5  1 23 38 44.9940000  0  3G13G 6G 2
  18901652.0724  -21918514.02047 -16806934.45462
  18914194.5254  -29376897.14847 -22720290.96563
  19729276.1114  -20956039.79247 -16329354.48464
 91  5  1 23 38 59.9940000  0  3G13G 6G 2
  18894990.1274  -21953511.70447 -16834205.31962
  18913824.5024  -29378845.60347 -22721809.23363
  19730958.8384  -20947199.19347 -16322465.70264
 91  5  1 23 39 14.9940000  0  3G13G 6G 2
  18888360.0964  -21988365.33947 -16861363.93462
  18913475.3854  -29380672.96747 -22723233.14763
  19732649.7214  -20938311.29047 -16315540.06764
 91  5  1 23 39 29.9940000  0  3G13G 6G 2
  18881752.7834  -22023082.90947 -16888416.52762
  18913148.7214  -29382387.10247 -22724568.82363
  19734348.4164  -20929384.27647 -16308583.96064
 91  5  1 23 39 44.9940000  0  3G13G 6G 2
  18875169.9714  -22057666.76847 -16915364.93362
  18912844.3224  -29383990.21747 -22725817.99263
  19736055.2994  -20920420.46847 -16301599.17264
 91  5  1 23 39 59.9940000  0  3G13G 6G 2
  18868616.9244  -22092113.64247 -16942206.59462
  18912561.502   -29385479.132 7 -22726978.17523
  19737767.8154  -20911416.73547 -16294583.27864
 91  5  1 23 40 14.9940000  0  3G13G 6G 2
  18862088.057   -22126422.773 7 -16968940.93122
  18912300.3224  -29386853.10147 -22728048.79463
  19739489.6974  -20902372.33547 -16287535.69963
 91  5  1 23 40 29.9940000  0  3G13G 6G 2
  18855583.111   -22160597.927 7 -16995570.86822
  18912060.1904  -29388115.83047 -22729032.73363
  19741218.4714  -20893291.20148 -16280459.49064
 91  5  1 23 40 44.9940000  0  3G13G 6G 2
  18849105.049   -22194638.992 7 -17022096.31722
  18911840.8614  -29389267.24647 -22729929.92863
  19742951.8384  -20884173.37747 -16273354.69364
 91  5  1 23 40 59.9940000  0  3G13G 6G 2
  18842654.588   -22228542.581 7 -17048514.64622
  18911645.1114  -29390303.95447 -22730737.74163
  19744695.2524  -20875015.57848 -16266218.74763
 91  5  1 23 41 14.9940000  0  3G13G 6G 2
  18836229.924   -22262311.594 7 -17074828.11222
  18911468.0024  -29391228.94347 -22731458.50463
  19746444.6194  -20865821.07247 -16259054.19463
 91  5  1 23 41 29.9940000  0  3G13G 6G 2
  18829826.119   -22295949.278 7 -17101039.24022
  18911313.4244  -29392045.24247 -22732094.57263
  19748200.0334  -20856592.86448 -16251863.38363
 91  5  1 23 41 44.9940000  0  3G13G 6G 2
  18823452.018   -22329450.974 7 -17127144.40722
  18911178.6434  -29392748.06547 -22732642.21363
  19749964.8074  -20847326.21648 -16244642.62664
 91  5  1 23 41 59.9940000  0  3G13G 6G 2
  18817105.815   -22362808.372 7 -17153137.13422
  18911070.3544  -29393329.08947 -22733094.95163
  19751735.5104  -20838012.86548 -16237385.47663
 91  5  1 23 42 14.9940000  0  3G13G 6G 2
  18810785.143   -22396018.756 7 -17179015.30222
  18910979.7054  -29393785.40447 -22733450.51363
  19753518.3614  -20828650.04848 -16230089.78464
 91  5  1 23 42 29.9940000  0  3G13G 6G 2
  18804489.799   -22429096.313 7 -17204789.97422
  18910915.8464  -29394131.32247 -22733720.04963
  19755306.6824  -20819252.21348 -16222766.79963
 91  5  1 23 42 44.9940000  0  3G13G 6G 2
  18798222.440   -22462033.618 7 -17230455.35622
  18910872.2364  -29394359.66147 -22733897.96863
  19757102.1974  -20809812.18848 -16215410.94363
 91  5  1 23 42 59.9940000  0  3G13G 6G 2
  18791982.330   -22494827.925 7 -17256009.31622
  18910851.0254  -29394467.64047
  19758906.7294  -20800327.39147 -16208020.19363
 91  5  1 23 43 14.9940000  0  3G13G 6G 2
  18785766.674   -22527484.609 7 -17281456.03122
  18910852.2754  -29394460.51547
  19760718.3854  -20790803.27248 -16200598.80163
 91  5  1 23 43 29.9940000  0  3G13G 6G 2
  18779578.916   -22560007.941 7 -17306798.83922
  18910874.3464  -29394342.42147
  19762539.1194  -20781243.97348 -16193149.99763
 91  5  1 23 43 44.9940000  0  3G13G 6G 2
  18773417.057   -22592385.024 7 -17332027.68922
  18910921.643   -29394100.482 7
  19764367.2684  -20771636.77547 -16185663.86963
 91  5  1 23 43 59.9940000  0  3G13G 6G 2
  18767280.729   -22624629.880 7 -17357153.49822
  18910988.033   -29393748.621 7
  19766202.4944  -20761995.71547 -16178151.36263
 91  5  1 23 44 14.9940000  0  3G13G 6G 2
  18761172.182   -22656732.502 7 -17382168.48422
  18911075.3464  -29393276.93947 -22733054.23263
  19768047.0104  -20752310.89548 -16170604.74963
 91  5  1 23 44 29.9940000  0  3G13G 6G 2
  18755088.775   -22688699.469 7 -17407077.76022
  18911187.9794  -29392691.66347 -22732598.16863
  19769895.9864  -20742588.78648 -16163029.07863
 91  5  1 23 44 44.9940000  0  3G13G 6G 2
  18749033.518   -22720524.146 7 -17431876.16122
  18911323.2754  -29391986.45547 -22732048.64763
  19771754.5414  -20732823.03648 -16155419.40863
 91  5  1 23 44 59.9940000  0  3G13G 6G 2
  18743001.541   -22752214.989 7 -17456570.27522
  18911478.1904  -29391169.57647 -22731412.11263
  19773617.5254  -20723022.11548 -16147782.32463
 91  5  1 23 45 14.9940000  0  3G13G 6G 2
  18736999.721   -22783761.364 7 -17481151.81822
  18911658.0254  -29390230.36047 -22730680.25063
  19775492.1584  -20713175.43148 -16140109.58763
 91  5  1 23 45 29.9940000  0  3G13G 6G 2
  18731023.533   -22815159.746 7 -17505618.04422
  18911859.3154  -29389165.36847 -22729850.38163
  19777376.2054  -20703279.41048 -16132398.40863
 91  5  1 23 45 44.9940000  0  3G13G 6G 2
  18725077.197   -22846413.256 7 -17529971.37622
  18912085.6504  -29387977.40047 -22728924.68763
  19779266.9324  -20693337.02647 -16124651.09663
 91  5  1 23 45 59.9940000  0  3G13G 6G 2
  18719155.268   -22877527.713 7 -17554216.36222
  18912336.2754  -29386672.44447 -22727907.83963
  19781166.2364  -20683354.51847 -16116872.52363
 91  5  1 23 46 14.9940000  0  3G13G 6G 2
  18713258.252   -22908506.771 7 -17578355.83922
  18912603.8154  -29385254.32847 -22726802.80863
  19783074.7684  -20673335.63047 -16109065.60263
 91  5  1 23 46 29.9940000  0  3G13G 6G 2
  18707392.002   -22939350.984 7 -17602390.24322
  18912897.0964  -29383723.30947 -22725609.80763
  19784986.2604  -20663280.82747 -16101230.69563
 91  5  1 23 46 44.9940000  0  3G13G 6G 2
  18701548.580   -22970048.394 7 -17626310.25522
  18913210.6044  -29382067.31047 -22724319.41763
  19786909.6354  -20653178.17947 -16093358.50663
 91  5  1 23 46 59.9940000  0  3G13G 6G 2
  18695735.174   -23000606.735 7 -17650121.90322
  18913549.6824  -29380294.29947 -22722937.84563
  19788838.9864  -20643035.58647 -16085455.19363
 91  5  1 23 47 14.9940000  0  3G13G 6G 2
  18689946.268   -23031021.190 7 -17673821.43122
  18913907.2444  -29378399.22047 -22721461.15463
  19790778.7444  -20632848.00847 -16077516.82963
 91  5  1 23 47 29.9940000  0  3G13G 6G 2
  18684187.002   -23061294.414 7 -17697410.91322
  18914293.2054  -29376384.55547 -22719891.28263
  19792725.0724  -20622618.14047 -16069545.51263
